[[{"header":{"parameterUnit":"m.s-1","parameterCategory":1,"la1":31.0,"la2":29.5877,"lo1":-88.7671,"lo2":-86.6584,"dy":0.0162,"dx":0.0185,"nx":115,"ny":88,"refTime":"2024-09-20T06:00:00:Z","depth":0,"parameterNumber":2,"parameterNumberName":"U-component_of_WINDS"},"data":[0.0,0.0,0.0,0.0,0.0,0.0,0.0,0.0,0.0,0.0,0.0,0.0,0.0,0.0,0.0,0.0,0.0,0.0,0.0,0.0,0.0,0.0,0.0,0.0,0.0,0.0,0.0,0.0,0.0,0.0,0.0,0.0,0.0,0.0,0.0,0.0,0.0,0.0,0.0,0.0,0.0,0.0,0.0,0.0,0.0,0.0,0.0,0.0,0.0,0.0,0.0,0.0,0.0,0.0,0.0,0.0,0.0,0.0,0.0,0.0,0.0,0.0,0.0,0.0,0.0,0.0,0.0,0.0,0.0,0.0,0.0,0.0,0.0,0.0,0.0,0.0,0.0,0.0,0.0,0.0,0.0,0.0,0.0,0.0,0.0,0.0,0.0,0.0,0.0,0.0,0.0,0.0,0.0,0.0,0.0,0.0,0.0,0.0,0.0,0.0,0.0,0.0,0.0,0.0,0.0,0.0,0.0,0.0,0.0,0.0,0.0,0.0,0.0,0.0,0.0,0.0,0.0,0.0,0.0,0.0,0.0,0.0,0.0,0.0,0.0,0.0,0.0,0.0,0.0,0.0,0.0,0.0,0.0,0.0,0.0,0.0,0.0,0.0,0.0,0.0,0.0,0.0,0.0,0.0,0.0,0.0,0.0,0.0,0.0,0.0,0.0,0.0,0.0,0.0,0.0,0.0,0.0,0.0,0.0,0.0,0.0,0.0,0.0,0.0,0.0,0.0,0.0,0.0,0.0,0.0,0.0,0.0,0.0,0.0,0.0,0.0,0.0,0.0,0.0,0.0,0.0,0.0,0.0,0.0,0.0,0.0,0.0,0.0,0.0,0.0,0.0,0.0,0.0,0.0,0.0,0.0,0.0,0.0,0.0,0.0,0.0,0.0,0.0,0.0,0.0,0.0,0.0,0.0,0.0,0.0,0.0,0.0,0.0,0.0,0.0,0.0,0.0,0.0,0.0,0.0,0.0,0.0,0.0,0.0,0.0,0.0,0.0,0.0,0.0,0.0,0.0,0.0,0.0,0.0,0.0,0.0,0.0,0.0,0.0,0.0,0.0,0.0,0.0,0.0,0.0,0.0,0.0,0.0,0.0,0.0,0.0,0.0,0.0,0.0,0.0,0.0,0.0,0.0,0.0,0.0,0.0,0.0,0.0,0.0,0.0,0.0,0.0,0.0,0.0,0.0,0.0,0.0,0.0,0.0,0.0,0.0,0.0,0.0,0.0,0.0,0.0,0.0,0.0,0.0,0.0,0.0,0.0,0.0,0.0,0.0,0.0,0.0,0.0,0.0,0.0,0.0,0.0,0.0,0.0,0.0,0.0,0.0,0.0,0.0,0.0,0.0,0.0,0.0,0.0,0.0,0.0,0.0,0.0,0.0,0.0,0.0,0.0,0.0,0.0,0.0,0.0,0.0,0.0,0.0,0.0,0.0,0.0,0.0,0.0,0.0,0.0,0.0,0.0,0.0,0.0,0.0,0.0,0.0,0.0,0.0,0.0,0.0,0.0,0.0,0.0,0.0,0.0,0.0,0.0,0.0,0.0,0.0,0.0,0.0,0.0,0.0,0.0,0.0,0.0,0.0,0.0,0.0,0.0,0.0,0.0,0.0,0.0,0.0,0.0,0.0,0.0,0.0,0.0,0.0,0.0,0.0,0.0,0.0,0.0,0.0,0.0,0.0,0.0,0.0,0.0,0.0,0.0,0.0,0.0,0.0,0.0,0.0,0.0,0.0,0.0,0.0,0.0,0.0,0.0,0.0,0.0,0.0,0.0,0.0,0.0,0.0,0.0,0.0,0.0,0.0,0.0,0.0,0.0,0.0,0.0,0.0,0.0,0.0,0.0,0.0,0.0,0.0,0.0,0.0,0.0,0.0,0.0,0.0,0.0,0.0,0.0,0.0,0.0,0.0,0.0,0.0,0.0,0.0,0.0,0.0,0.0,0.0,0.0,0.0,0.0,0.0,0.0,0.0,0.0,0.0,0.0,0.0,0.0,0.0,0.0,0.0,0.0,0.0,0.0,0.0,0.0,0.0,0.0,0.0,0.0,0.0,0.0,0.0,0.0,0.0,0.0,0.0,0.0,0.0,0.0,0.0,0.0,0.0,0.0,0.0,0.0,0.0,0.0,0.0,0.0,0.0,0.0,0.0,0.0,0.0,0.0,0.0,0.0,0.0,0.0,0.0,0.0,0.0,0.0,0.0,0.0,0.0,0.0,0.0,0.0,0.0,0.0,0.0,0.0,0.0,0.0,0.0,0.0,0.0,0.0,0.0,0.0,0.0,0.0,0.0,0.0,0.0,0.0,0.0,0.0,0.0,0.0,0.0,0.0,0.0,0.0,0.0,0.0,0.0,0.0,0.0,0.0,0.0,0.0,0.0,0.0,0.0,0.0,0.0,0.0,0.0,0.0,0.0,0.0,0.0,0.0,0.0,0.0,0.0,0.0,0.0,0.0,0.0,0.0,0.0,0.0,0.0,0.0,0.0,0.0,0.0,0.0,0.0,0.0,0.0,0.0,0.0,0.0,0.0,0.0,0.0,0.0,0.0,0.0,0.0,0.0,0.0,0.0,0.0,0.0,0.0,0.0,0.0,0.0,0.0,0.0,0.0,0.0,0.0,0.0,0.0,0.0,0.0,0.0,0.0,0.0,0.0,0.0,0.0,0.0,0.0,0.0,0.0,0.0,0.0,0.0,0.0,0.0,0.0,0.0,0.0,0.0,0.0,0.0,0.0,0.0,0.0,0.0,0.0,0.0,0.0,0.0,0.0,0.0,0.0,0.0,0.0,0.0,0.0,0.0,0.0,0.0,0.0,0.0,0.0,0.0,0.0,0.0,0.0,0.0,0.0,0.0,0.0,0.0,0.0,0.0,0.0,0.0,0.0,0.0,0.0,0.0,0.0,0.0,0.0,0.0,0.0,0.0,0.0,0.0,0.0,0.0,0.0,0.0,0.0,0.0,0.0,0.0,0.0,0.0,0.0,0.0,0.0,0.0,0.0,0.0,0.0,0.0,0.0,0.0,0.0,0.0,0.0,0.0,0.0,0.0,0.0,0.0,0.0,0.0,0.0,0.0,0.0,0.0,0.0,0.0,0.0,0.0,0.0,0.0,0.0,0.0,0.0,0.0,0.0,0.0,0.0,0.0,0.0,0.0,0.0,0.0,0.0,0.0,0.0,0.0,0.0,0.0,0.0,0.0,0.0,0.0,0.0,0.0,0.0,0.0,0.0,0.0,0.0,0.0,0.0,0.0,0.0,0.0,0.0,0.0,0.0,0.0,0.0,0.0,0.0,0.0,0.0,0.0,0.0,0.0,0.0,0.0,0.0,0.0,0.0,0.0,0.0,0.0,0.0,0.0,0.0,0.0,0.0,0.0,0.0,0.0,0.0,0.0,0.0,0.0,0.0,0.0,0.0,0.0,0.0,0.0,0.0,0.0,0.0,0.0,0.0,0.0,0.0,0.0,0.0,0.0,0.0,0.0,0.0,0.0,0.0,0.0,0.0,0.0,0.0,0.0,0.0,0.0,0.0,0.0,0.0,0.0,0.0,0.0,0.0,0.0,0.0,0.0,0.0,0.0,0.0,0.0,0.0,0.0,0.0,0.0,0.0,0.0,0.0,0.0,0.0,0.0,0.0,0.0,0.0,0.0,0.0,0.0,0.0,0.0,0.0,0.0,0.0,0.0,0.0,0.0,0.0,0.0,0.0,0.0,0.0,0.0,0.0,0.0,0.0,0.0,0.0,0.0,0.0,0.0,0.0,0.0,0.0,0.0,0.0,0.0,0.0,0.0,0.0,0.0,0.0,0.0,0.0,0.0,0.0,0.0,0.0,0.0,0.0,0.0,0.0,0.0,0.0,0.0,0.0,0.0,0.0,0.0,0.0,0.0,0.0,0.0,0.0,0.0,0.0,0.0,0.0,0.0,0.0,0.0,0.0,0.0,0.0,0.0,0.0,0.0,0.0,0.0,0.0,0.0,0.0,0.0,0.0,0.0,0.0,0.0,0.0,0.0,0.0,0.0,0.0,0.0,0.0,0.0,0.0,0.0,0.0,0.0,0.0,0.0,0.0,0.0,0.0,0.0,0.0,0.0,0.0,0.0,0.0,0.0,0.0,0.0,0.0,0.0,0.0,0.0,0.0,0.0,0.0,0.0,0.0,0.0,0.0,0.0,0.0,0.0,0.0,0.0,0.0,0.0,0.0,0.0,0.0,0.0,0.0,0.0,0.0,0.0,0.0,0.0,0.0,0.0,0.0,0.0,0.0,0.9864,0.0,0.0,0.0,0.0,0.0,0.0,0.0,0.0,0.0,0.0,0.0,0.0,0.0,0.0,0.0,0.0,0.0,0.0,0.0,0.0,0.0,0.0,0.0,0.0,0.0,0.0,0.0,0.0,0.0,0.0,0.0,0.0,0.0,0.0,0.0,0.0,0.0,0.0,0.0,0.0,0.0,0.0,0.0,0.0,0.0,0.0,0.0,0.0,0.0,0.0,0.0,0.0,0.0,0.0,0.0,0.0,0.0,0.0,0.0,0.0,0.0,0.0,0.0,0.0,0.0,0.0,0.0,0.0,0.0,0.0,0.0,0.0,0.0,0.0,0.0,0.0,0.0,0.0,0.0,0.0,0.0,0.0,0.0,0.0,0.0,0.0,0.0,0.0,0.0,0.0,0.0,0.0,0.0,0.0,0.0,0.0,0.0,0.0,0.0,0.0,0.0,0.0,0.0,0.0,0.0,0.0,0.0,0.0,0.0,0.0,1.0703,1.0322,1.0518,1.0312,0.9631,0.0,0.0,0.0,0.0,0.0,0.0,0.0,0.0,0.0,0.0,0.0,0.0,0.0,0.0,0.0,0.0,0.0,0.0,0.0,0.0,0.0,0.0,0.0,0.0,0.0,0.0,0.0,0.0,0.0,0.0,0.0,0.0,0.0,0.0,0.0,0.0,0.0,0.0,0.0,0.0,0.0,0.0,0.0,0.0,0.0,0.0,0.0,0.0,0.0,0.0,0.0,0.0,0.0,0.0,0.0,0.0,0.0,0.0,0.0,0.0,0.0,0.0,0.0,0.0,0.0,0.0,0.0,0.0,0.0,0.0,0.0,0.0,0.0,0.0,0.0,0.0,0.0,0.0,0.0,0.0,0.0,0.0,0.0,0.0,0.0,0.0,0.0,0.0,0.0,0.0,0.0,0.0,0.0,0.0,0.0,0.0,0.0,0.0,0.0,0.0,0.0,0.0,0.0,0.0,0.0,0.0,0.0,0.0,0.0,0.0,0.0,0.0,1.0546,1.0332,0.9514,0.0,0.0,0.0,0.0,0.0,0.0,0.0,0.0,0.0,0.0,0.0,0.0,0.0,0.0,0.0,0.0,0.0,0.0,0.0,0.0,0.0,0.0,0.0,0.0,0.0,0.0,0.0,0.0,0.0,0.0,0.0,0.0,0.0,0.0,0.0,0.0,0.0,0.0,0.0,0.0,0.0,0.0,0.0,0.0,0.0,0.0,0.0,0.0,0.0,0.0,0.0,0.0,0.0,0.0,0.0,0.0,0.0,0.0,0.0,0.0,0.0,0.0,0.0,0.0,0.0,0.0,0.0,0.0,0.0,0.0,0.0,0.0,0.0,0.0,0.0,0.0,0.0,0.0,0.0,0.0,0.0,0.0,0.0,0.0,0.0,0.0,0.0,0.0,0.0,0.0,0.0,0.0,0.0,0.0,0.0,0.0,0.0,0.0,0.0,0.0,0.0,0.0,0.0,0.0,0.0,0.0,0.0,0.0,0.0,0.0,1.0798,1.0058,1.0127,0.0,0.9115,0.0,0.0,0.0,0.0,0.0,0.0,0.0,0.0,0.0,0.0,0.0,0.0,0.0,0.0,0.0,0.0,0.0,0.0,0.0,0.0,0.0,0.0,0.0,0.0,0.0,0.0,0.0,0.0,0.0,0.0,0.0,0.0,0.0,0.0,0.0,0.0,0.0,0.0,0.0,0.0,0.0,0.0,0.0,0.0,0.0,0.0,0.0,0.0,0.0,0.0,0.0,0.0,0.0,0.0,0.0,0.0,0.0,0.0,0.0,0.0,0.0,0.0,0.0,0.0,0.0,0.0,0.0,0.0,0.0,0.0,0.0,0.0,0.0,0.0,0.0,0.0,0.0,0.0,0.0,0.0,0.0,0.0,0.0,0.0,0.0,0.0,0.0,0.0,0.0,0.0,0.0,0.0,0.0,0.0,0.0,0.0,0.0,0.0,0.0,0.0,0.0,0.0,0.0,0.0,0.0,0.0,0.0,0.0,0.0,0.0,1.0824,1.0019,0.9562,0.9321,0.0,0.0,0.0,0.0,0.0,0.0,0.0,0.0,0.0,0.0,0.0,0.0,0.0,0.0,0.0,0.0,0.0,0.0,0.0,0.0,0.0,0.0,0.0,0.0,0.0,0.0,0.0,0.0,0.0,0.0,0.0,0.0,0.0,0.0,0.0,0.0,0.0,0.0,0.0,0.0,0.0,0.0,0.0,0.0,0.0,0.0,0.0,0.0,0.0,0.0,0.0,0.0,0.0,0.0,0.0,0.0,0.0,0.0,0.0,0.0,0.0,0.0,0.0,0.0,0.0,0.0,0.0,0.0,0.0,0.0,0.0,0.0,0.0,0.0,0.0,0.0,0.0,0.0,0.0,0.0,0.0,0.0,0.0,0.0,0.0,0.0,0.0,0.0,0.0,0.0,0.0,0.0,0.0,0.0,0.0,0.0,0.0,0.0,0.0,0.0,0.0,0.0,0.0,0.0,0.0,0.0,0.0,0.0,0.0,0.0,1.1136,0.0,0.9809,0.9327,0.9097,0.9111,0.0,0.0,0.0,0.0,0.0,0.0,0.0,0.0,0.0,0.0,0.0,0.0,0.0,0.0,0.0,0.0,0.0,0.0,0.0,0.0,0.0,0.0,0.0,0.0,0.0,0.0,0.0,0.0,0.0,0.0,0.0,0.0,0.0,0.0,0.0,0.0,0.0,0.0,0.0,0.0,0.0,0.0,0.0,0.0,0.0,0.0,0.0,0.0,0.0,0.0,0.0,0.0,0.0,0.0,0.0,0.0,0.0,0.0,0.0,0.0,0.0,0.0,0.0,0.0,0.0,0.0,0.0,0.0,0.0,0.0,0.0,0.0,0.0,0.0,0.0,0.0,0.0,0.0,0.0,0.0,0.0,0.0,0.0,0.0,0.0,0.0,0.0,0.0,0.0,0.0,0.0,0.0,0.0,0.0,0.0,0.0,0.0,0.0,0.0,0.0,0.0,0.0,0.0,0.0,0.0,0.0,0.0,0.0,0.0,1.097,1.0363,0.932,0.9571,0.9263,0.0,0.0,0.0,0.0,0.0,0.0,0.0,0.0,0.0,0.0,0.0,0.0,0.0,0.0,0.0,0.0,0.0,0.0,0.0,0.0,0.0,0.0,0.0,0.0,0.0,0.0,0.0,0.0,0.0,0.0,0.0,0.0,0.0,0.0,0.0,0.0,0.0,0.0,0.0,0.0,0.0,0.0,0.0,0.0,0.0,0.0,0.0,0.0,0.0,0.0,0.0,0.0,0.0,0.0,0.0,0.0,0.0,0.0,0.0,0.0,0.0,0.0,0.0,0.0,0.0,0.0,0.0,0.0,0.0,0.0,0.0,0.0,0.0,0.0,0.0,0.0,0.0,0.0,0.0,0.0,0.0,0.0,0.0,0.0,0.0,0.0,0.0,0.0,0.0,0.0,0.0,0.0,0.0,0.0,0.0,0.0,0.0,0.0,0.0,0.0,0.0,0.0,0.0,0.0,0.0,0.0,0.0,0.0,0.0,1.0244,1.0156,0.9944,0.9531,0.9217,0.8852,0.0,0.0,0.0,0.0,0.0,0.0,0.0,0.0,0.0,0.0,0.0,0.0,0.0,0.0,0.0,0.0,0.0,0.0,0.0,0.0,0.0,0.0,0.0,0.0,0.0,0.0,0.0,0.0,0.0,0.0,0.0,0.0,0.0,0.0,0.0,0.0,0.0,0.0,0.0,0.0,0.0,0.0,0.0,0.0,0.0,0.0,0.0,0.0,0.0,0.0,0.0,0.0,0.0,0.0,0.0,0.0,0.0,0.0,0.0,0.0,0.0,0.0,0.0,0.0,0.0,0.0,0.0,0.0,0.0,0.0,0.0,0.0,0.0,0.0,0.0,0.0,0.0,0.0,0.0,0.0,0.0,0.0,0.0,0.0,0.0,0.0,0.0,0.0,0.0,0.0,0.0,0.0,0.0,0.0,0.0,0.0,0.0,0.0,0.0,0.0,0.0,0.0,0.0,0.0,0.0,0.0,0.0,0.0,0.0,0.9739,0.0,0.9648,0.0,0.9013,0.8623,0.0,0.0,0.0,0.0,0.0,0.0,0.0,0.0,0.0,0.0,0.0,0.0,0.0,0.0,0.0,0.0,0.0,0.0,0.0,0.0,0.0,0.0,0.0,0.0,0.0,0.0,0.0,0.0,0.0,0.0,0.0,0.0,0.0,0.0,0.0,0.0,0.0,0.0,0.0,0.0,0.0,0.0,0.0,0.0,0.0,0.0,0.0,0.0,0.0,0.0,0.0,0.0,0.0,0.0,0.0,0.0,0.0,0.0,0.0,0.0,0.0,0.0,0.0,0.0,0.0,0.0,0.0,0.0,0.0,0.0,0.0,0.0,0.0,0.0,0.0,0.0,0.0,0.0,0.0,0.0,0.0,0.0,0.0,0.0,0.0,0.0,0.0,0.0,0.0,0.0,0.0,0.0,0.0,0.0,0.0,0.0,0.0,0.0,0.0,0.0,0.0,0.0,0.0,0.0,0.0,0.0,0.0,0.0,1.0474,0.9711,0.9683,0.9556,0.9124,0.9096,0.8692,0.0,0.0,0.0,0.0,0.0,0.0,0.0,0.0,0.0,0.0,0.0,0.0,0.0,0.0,0.0,0.0,0.0,0.0,0.0,0.0,0.0,0.0,0.0,0.0,0.0,0.0,0.0,0.0,0.0,0.0,0.0,0.0,0.0,0.0,0.0,0.0,0.0,0.0,0.0,0.0,0.0,0.0,0.0,0.0,0.0,0.0,0.0,0.0,0.0,0.0,0.0,0.0,0.0,0.0,0.0,0.0,0.0,0.0,0.0,0.0,0.0,0.0,0.0,0.0,0.0,0.0,0.0,0.0,0.0,0.0,0.0,0.0,0.0,0.0,0.0,0.0,0.0,0.0,0.0,0.0,0.0,0.0,0.0,0.0,0.0,0.0,0.0,0.0,0.0,0.0,0.0,0.0,0.0,0.0,0.0,0.0,0.0,0.0,0.0,0.0,0.0,0.0,0.0,0.0,0.0,0.0,0.0,0.0,0.0,0.8647,0.9407,0.9795,0.9651,0.9113,0.8793,0.0,0.0,0.0,0.0,0.0,0.0,0.0,0.0,0.0,0.0,0.0,0.0,0.0,0.0,0.0,0.0,0.0,0.0,0.0,0.0,0.0,0.0,0.0,0.0,0.0,0.0,0.0,0.0,0.0,0.0,0.0,0.0,0.0,0.0,0.0,0.0,0.0,0.0,0.0,0.0,0.0,0.0,0.0,0.0,0.0,0.0,0.0,0.0,0.0,0.0,0.0,0.0,0.0,0.0,0.0,0.0,0.0,0.0,0.0,0.0,0.0,0.0,0.0,0.0,0.0,0.0,0.0,0.0,0.0,0.0,0.0,0.0,0.0,0.0,0.0,0.0,0.0,0.0,0.0,0.0,0.0,0.0,0.0,0.0,0.0,0.0,0.0,0.0,0.0,0.0,0.0,0.0,0.0,0.0,0.0,0.0,0.0,0.0,0.0,0.0,0.0,0.0,0.0,0.0,0.0,0.0,0.0,0.0,0.0,0.8703,0.9609,1.0068,0.9981,0.93,0.9002,0.9156,0.0,0.0,0.0,0.0,0.0,0.0,0.0,0.0,0.0,0.0,0.0,0.0,0.0,0.0,0.0,0.0,0.0,0.0,0.0,0.0,0.0,0.0,0.0,0.0,0.0,0.0,0.0,0.0,0.0,0.0,0.0,0.0,0.0,0.0,0.0,0.0,0.0,0.0,0.0,0.0,0.0,0.0,0.0,0.0,0.0,0.0,0.0,0.0,0.0,0.0,0.0,0.0,0.0,0.0,0.0,0.0,0.0,0.0,0.0,0.0,0.0,0.0,0.0,0.0,0.0,0.0,0.0,0.0,0.0,0.0,0.0,0.0,0.0,0.0,0.0,0.0,0.0,0.0,0.0,0.0,0.0,0.0,0.0,0.0,0.0,0.0,0.0,0.0,0.0,0.0,0.0,0.0,0.0,0.0,0.0,0.0,0.0,0.0,0.0,0.0,0.0,0.0,0.0,0.0,0.0,0.0,0.0,0.0,0.9563,1.0188,1.0382,1.0109,0.957,0.931,0.0,0.0,0.0,0.0,0.0,0.0,0.0,0.0,0.0,0.0,0.0,0.0,0.0,0.0,0.0,0.0,0.0,0.0,0.0,0.0,0.0,0.0,0.0,0.0,0.0,0.0,0.0,0.0,0.0,0.0,0.0,0.0,0.0,0.0,0.0,0.0,0.0,0.0,0.0,0.0,0.0,0.0,0.0,0.0,0.0,0.0,0.0,0.0,0.0,0.0,0.0,0.0,0.0,0.0,0.0,0.0,0.0,0.0,0.0,0.0,0.0,0.0,0.0,0.0,0.0,0.0,0.0,0.0,0.0,0.0,0.0,0.0,0.0,0.0,0.0,0.0,0.0,0.0,0.0,0.0,0.0,0.0,0.0,0.0,0.0,0.0,0.0,0.0,0.0,0.0,0.0,0.0,0.0,0.0,0.0,0.0,0.0,0.0,0.0,0.0,0.0,0.0,0.0,0.0,0.0,0.0,0.0,0.0,0.0,1.0131,1.055,1.0612,1.0244,0.9589,0.9382,0.0,0.0,0.0,0.0,0.0,0.0,0.0,0.0,0.0,0.0,0.0,0.0,0.0,0.0,0.0,0.0,0.0,0.0,0.0,0.0,0.0,0.0,0.0,0.0,0.0,0.0,0.0,0.0,0.0,0.0,0.0,0.0,0.0,0.0,0.0,0.0,0.0,0.0,0.0,0.0,0.0,0.0,0.0,0.0,0.0,0.0,0.0,0.0,0.0,0.0,0.0,0.0,0.0,0.0,0.0,0.0,0.0,0.0,0.0,0.0,0.0,0.0,0.0,0.0,0.0,0.0,0.0,0.0,0.0,0.0,0.0,0.0,0.0,0.0,0.0,0.0,0.0,0.0,0.0,0.0,0.0,0.0,0.0,0.0,0.0,0.0,0.0,0.0,0.0,0.0,0.0,0.0,0.0,0.0,0.0,0.0,0.0,0.0,0.0,0.0,0.0,0.0,0.0,0.0,0.0,0.0,0.0,0.0,1.0695,1.0717,1.0944,1.0852,1.0388,0.9914,0.9771,0.0,0.0,0.0,0.0,0.0,0.0,0.0,0.0,0.0,0.0,0.0,0.0,0.0,0.0,0.0,0.0,0.0,0.0,0.0,0.0,0.0,0.0,0.0,0.0,0.0,0.0,0.0,0.0,0.0,0.0,0.0,0.0,0.0,0.0,0.0,0.0,0.0,0.0,0.0,0.0,0.0,0.0,0.0,0.0,0.0,0.0,0.0,0.0,0.0,0.0,0.0,0.0,0.0,0.0,0.0,0.0,0.0,0.0,0.0,0.0,0.0,0.0,0.0,0.0,0.0,0.0,0.0,0.0,0.0,0.0,0.0,0.0,0.0,0.0,0.0,0.0,0.0,0.0,0.0,0.0,0.0,0.0,0.0,0.0,0.0,0.0,0.0,0.0,0.0,0.0,0.0,0.0,0.0,0.0,0.0,0.0,0.0,0.0,0.0,0.0,0.0,0.0,0.0,0.0,0.0,0.0,0.0,0.0,1.1018,1.1288,1.1238,1.0977,1.0518,1.0339,1.022,0.0,0.0,0.0,0.0,0.0,0.0,0.0,0.0,0.0,0.0,0.0,0.0,0.0,0.0,0.0,0.0,0.0,0.0,0.0,0.0,0.0,0.0,0.0,0.0,0.0,0.0,0.0,0.0,0.0,0.0,0.0,0.0,0.0,0.0,0.0,0.0,0.0,0.0,0.0,0.0,0.0,0.0,0.0,0.0,0.0,0.0,0.0,0.0,0.0,0.0,0.0,0.0,0.0,0.0,0.0,0.0,0.0,0.0,0.0,0.0,0.0,0.0,0.0,0.0,0.0,0.0,0.0,0.0,0.0,0.0,0.0,0.0,0.0,0.0,0.0,0.0,0.0,0.0,0.0,0.0,0.0,0.0,0.0,0.0,0.0,0.0,0.0,0.0,0.0,0.0,0.0,0.0,0.0,0.0,0.0,0.0,0.0,0.0,0.0,0.0,0.0,0.0,0.0,0.0,0.0,0.0,0.0,0.0,1.091,1.1284,1.0896,1.0624,1.0509,1.017,1.0026,0.0,0.0,0.0,0.0,0.0,0.0,0.0,0.0,0.0,0.0,0.0,0.0,0.0,0.0,0.0,0.0,0.0,0.0,0.0,0.0,0.0,0.0,0.0,0.0,0.0,0.0,0.0,0.0,0.0,0.0,0.0,0.0,0.0,0.0,0.0,0.0,0.0,0.0,0.0,0.0,0.0,0.0,0.0,0.0,0.0,0.0,0.0,0.0,0.6846,0.0,0.0,0.0,0.0,0.0,0.0,0.0,0.0,0.0,0.0,0.0,0.0,0.0,0.0,0.0,0.0,0.0,0.0,0.0,0.0,0.0,0.0,0.0,0.0,0.0,0.0,0.0,0.0,0.0,0.0,0.0,0.0,0.0,0.0,0.0,0.0,0.0,0.0,0.0,0.0,0.0,0.0,0.0,0.0,0.0,0.0,0.0,0.0,0.0,0.0,0.0,0.0,0.0,0.0,0.0,0.0,0.0,0.0,0.0,1.1018,1.1284,1.0896,1.0629,1.0488,1.028,1.0145,0.0,0.0,0.0,0.0,0.0,0.0,0.0,0.0,0.0,0.0,0.0,0.0,0.0,0.0,0.0,0.0,0.0,0.0,0.0,0.0,0.0,0.0,0.0,0.0,0.0,0.0,0.0,0.0,0.0,0.0,0.0,0.0,0.0,0.0,0.0,0.0,0.0,0.0,0.0,0.0,0.0,0.0,0.0,0.0,0.0,0.0,0.0,0.0,0.0,0.0,0.0,0.0,0.0,0.0,0.0,0.0,0.0,0.0,0.0,0.0,0.0,0.0,0.0,0.0,0.0,0.0,0.0,0.0,0.0,0.0,0.0,0.0,0.0,0.0,0.0,0.0,0.0,0.0,0.0,0.0,0.0,0.0,0.0,0.0,0.0,0.0,0.0,0.0,0.0,0.0,0.0,0.0,0.0,0.0,0.0,0.0,0.0,0.0,0.0,0.0,0.0,0.0,0.0,0.0,0.0,0.0,0.0,1.1018,1.1127,1.1284,1.0998,1.0744,1.0509,1.0496,1.0364,1.0058,0.0,0.0,0.0,0.0,0.0,0.0,0.0,0.0,0.0,0.0,0.0,0.0,0.0,0.0,0.0,0.0,0.0,0.0,0.0,0.0,0.0,0.0,0.0,0.0,0.0,0.0,0.0,0.0,0.0,0.0,0.0,0.0,0.0,0.0,0.0,0.0,0.0,0.0,1.0039,0.9624,0.0,0.0,0.0,0.0,0.0,0.0,0.0,0.0,0.7316,0.0,0.0,0.0,0.0,0.0,0.0,0.0,0.0,0.0,0.0,0.0,0.0,0.0,0.0,0.0,0.0,0.0,0.0,0.0,0.0,0.0,0.0,0.0,0.0,0.0,0.0,0.0,0.0,0.0,0.0,0.0,0.0,0.0,0.0,0.0,0.0,0.0,0.0,0.0,0.0,0.0,0.0,0.0,0.0,0.0,0.0,0.0,0.0,0.0,0.0,0.0,0.0,0.0,0.0,0.0,0.0,1.1391,1.0971,1.0944,1.1284,1.082,1.0539,1.0496,1.0496,1.0273,0.9783,0.0,0.0,0.0,0.0,0.0,0.0,0.0,0.0,0.0,0.0,0.0,0.0,0.0,0.0,0.0,0.0,0.0,0.0,0.0,0.0,0.0,0.0,0.0,0.0,0.0,0.0,0.0,0.0,0.0,0.0,0.0,0.0,0.0,0.0,0.0,0.0,0.0,0.0,0.0,0.8794,0.8444,0.0,0.0,0.0,0.0,0.0,0.0,0.0,0.0,0.7602,0.0,0.0,0.0,0.0,0.0,0.0,0.0,0.0,0.0,0.0,0.0,0.0,0.0,0.0,0.0,0.0,0.0,0.0,0.0,0.0,0.0,0.0,0.0,0.0,0.0,0.0,0.0,0.0,0.0,0.0,0.0,0.0,0.0,0.0,0.0,0.0,0.0,0.0,0.0,0.0,0.0,0.0,0.0,0.0,0.0,0.0,0.0,0.0,0.0,0.0,0.0,0.0,0.0,0.0,0.0,1.1171,1.1202,1.1257,1.1272,1.0909,1.054,1.02,1.0192,0.9947,0.0,0.0,0.0,0.0,0.0,0.0,0.0,0.0,0.0,0.0,0.0,0.0,0.0,0.0,0.0,0.0,0.0,0.0,0.0,0.0,0.0,0.0,0.0,0.0,0.0,0.0,0.0,0.0,0.0,0.0,0.0,0.0,0.0,0.0,0.0,0.0,0.0,0.0,0.0,0.0,0.8763,0.8378,0.7892,0.0,0.0,0.0,0.0,0.0,0.0,0.7252,0.7345,0.0,0.0,0.0,0.0,0.0,0.0,0.0,0.0,0.0,0.0,0.0,0.0,0.0,0.0,0.0,0.0,0.0,0.0,0.0,0.0,0.0,0.0,0.0,0.0,0.0,0.0,0.0,0.0,0.0,0.0,0.0,0.0,0.0,0.0,0.0,0.0,0.0,0.0,0.0,0.0,0.0,0.0,0.0,0.0,0.0,0.0,0.0,0.0,0.0,0.0,0.0,0.0,0.0,0.0,0.0,1.0917,1.1355,1.1511,1.1368,1.1061,1.0602,1.0011,0.9922,0.9655,0.0,0.0,0.0,0.0,0.0,0.0,0.0,0.0,0.0,0.0,0.0,0.0,0.0,0.0,0.0,0.0,0.0,0.0,0.0,0.0,0.0,0.0,0.0,0.0,0.0,0.0,0.0,0.0,0.0,0.0,0.0,0.0,0.0,0.0,0.0,0.0,0.0,0.0,0.0,0.0,0.0,0.8249,0.7246,0.7273,0.0,0.0,0.0,0.0,0.6819,0.6961,0.0,0.0,0.0,0.0,0.0,0.0,0.0,0.0,0.0,0.0,0.0,0.0,0.0,0.0,0.0,0.0,0.0,0.0,0.0,0.0,0.0,0.0,0.0,0.0,0.0,0.0,0.0,0.0,0.0,0.0,0.0,0.0,0.0,0.0,0.0,0.0,0.0,0.0,0.0,0.0,0.0,0.0,0.0,0.0,0.0,0.0,0.0,0.0,0.0,0.0,0.0,0.0,0.0,0.0,0.0,0.0,1.0908,1.1073,1.1317,1.1623,1.1175,1.0698,1.0266,1.0019,0.9585,0.0,0.0,0.0,0.0,0.0,0.0,0.0,0.0,0.0,0.0,0.0,0.0,0.0,0.0,0.0,0.0,0.0,0.0,0.0,0.0,0.0,0.0,0.0,0.0,0.0,0.0,0.0,0.0,0.0,0.0,0.0,0.0,0.0,0.0,0.0,0.0,0.0,0.0,0.0,0.0,0.0,0.7254,0.7125,0.7125,0.7109,0.0,0.0,0.7074,0.706,0.7095,0.0,0.0,0.0,0.0,0.0,0.0,0.0,0.0,0.0,0.0,0.0,0.0,0.0,0.0,0.0,0.0,0.0,0.0,0.0,0.0,0.0,0.0,0.0,0.0,0.0,0.0,0.0,0.0,0.0,0.0,0.0,0.0,0.0,0.0,0.0,0.0,0.0,0.0,0.0,0.0,0.0,0.0,0.0,0.0,0.0,0.0,0.0,0.0,0.0,0.0,0.0,0.0,0.0,0.0,0.0,1.1129,1.0917,1.1404,1.1681,1.1681,1.1339,1.0864,1.0318,0.9854,0.931,0.0,0.0,0.0,0.0,0.0,0.0,0.0,0.0,0.0,0.0,0.0,0.0,0.0,0.0,0.0,0.0,0.0,0.0,0.0,0.0,0.0,0.0,0.0,0.0,0.0,0.0,0.0,0.0,0.0,0.0,0.0,0.0,0.0,0.0,0.0,0.0,0.0,0.0,0.0,0.0,0.0,0.0,0.6657,0.6752,0.0,0.0,0.0,0.659,0.659,0.0,0.0,0.0,0.0,0.0,0.0,0.0,0.0,0.0,0.0,0.0,0.0,0.0,0.0,0.0,0.0,0.0,0.0,0.0,0.0,0.0,0.0,0.0,0.0,0.0,0.0,0.0,0.0,0.0,0.0,0.0,0.0,0.0,0.0,0.0,0.0,0.0,0.0,0.0,0.0,0.0,0.0,0.0,0.0,0.0,0.0,0.0,0.0,0.0,0.0,0.0,0.0,0.0,0.0,0.0,0.0,0.0,1.0938,1.1687,1.2014,1.1794,1.149,1.1042,1.0502,0.985,0.0,0.0,0.0,0.0,0.0,0.0,0.0,0.0,0.0,0.0,0.0,0.0,0.0,0.0,0.0,0.0,0.0,0.0,0.0,0.0,0.0,0.0,0.0,0.0,0.0,0.0,0.0,0.7357,0.0,0.0,0.0,0.0,0.0,0.0,0.0,0.0,0.0,0.0,0.0,0.0,0.0,0.0,0.7012,0.6377,0.6491,0.654,0.0,0.0,0.6187,0.6187,0.6187,0.6187,0.0,0.0,0.0,0.0,0.0,0.0,0.0,0.0,0.0,0.0,0.0,0.0,0.0,0.0,0.0,0.0,0.0,0.0,0.0,0.0,0.0,0.0,0.0,0.0,0.0,0.0,0.0,0.0,0.0,0.0,0.0,0.0,0.0,0.0,0.0,0.0,0.0,0.0,0.0,0.0,0.0,0.0,0.0,0.0,0.0,0.0,0.0,0.0,0.0,0.0,0.0,0.0,0.0,0.0,0.0,1.0956,1.1687,1.2088,1.2051,1.1556,1.1224,1.1039,1.0152,0.9401,0.0,0.0,0.0,0.0,0.0,0.0,0.0,0.0,0.0,0.0,0.0,0.0,0.0,0.0,0.0,0.0,0.0,0.0,0.0,0.0,0.0,0.0,0.0,0.0,0.0,0.0,0.0,0.0,0.0,0.0,0.0,0.0,0.0,0.0,0.0,0.0,0.0,0.0,0.0,0.0,0.0,0.6554,0.6483,0.6497,0.6431,0.0,0.0,0.6187,0.6187,0.6191,0.6187,0.6187,0.0,0.0,0.0,0.0,0.0,0.0,0.0,0.0,0.0,0.0,0.0,0.0,0.0,0.0,0.0,0.0,0.0,0.0,0.0,0.0,0.0,0.0,0.0,0.0,0.0,0.0,0.0,0.0,0.0,0.0,0.0,0.0,0.0,0.0,0.0,0.0,0.0,0.0,0.0,0.0,0.0,0.0,0.0,0.0,0.0,0.0,0.0,0.0,0.0,0.0,0.0,0.0,0.0,1.1825,1.1292,1.1816,1.2088,1.2088,1.174,1.1511,1.1484,1.0724,0.9924,0.0,0.0,0.0,0.0,0.0,0.0,0.0,0.0,0.0,0.0,0.0,0.0,0.0,0.0,0.0,0.0,0.0,0.0,0.0,0.0,0.0,0.0,0.0,0.0,0.0,0.0,0.0,0.0,0.8089,0.8231,0.8388,0.0,0.0,0.0,0.0,0.0,0.0,0.0,0.0,0.0,0.0,0.7017,0.6888,0.6649,0.0,0.0,0.6304,0.6346,0.6224,0.6295,0.6262,0.5891,0.586,0.0,0.0,0.0,0.0,0.0,0.0,0.0,0.0,0.0,0.0,0.0,0.0,0.0,0.0,0.0,0.0,0.0,0.0,0.0,0.0,0.0,0.0,0.0,0.0,0.0,0.0,0.0,0.0,0.0,0.0,0.0,0.0,0.0,0.0,0.0,0.0,0.0,0.0,0.0,0.0,0.0,0.0,0.0,0.0,0.0,0.0,0.0,0.0,0.0,0.0,0.0,0.0,1.1798,1.151,1.1886,1.2088,1.2088,1.184,1.174,1.1797,1.1179,1.0414,0.0,0.0,0.0,0.0,0.0,0.0,0.0,0.0,0.0,0.0,0.0,0.0,0.0,0.0,0.0,0.0,0.0,0.0,0.0,0.0,0.0,0.0,0.0,0.0,0.0,0.0,0.0,0.0,0.8606,0.8575,0.8685,0.0,0.0,0.0,0.0,0.0,0.0,0.0,0.0,0.0,0.0,0.7539,0.7244,0.6957,0.6668,0.6337,0.636,0.6384,0.6304,0.6285,0.6109,0.5701,0.0,0.0,0.0,0.0,0.0,0.0,0.0,0.0,0.0,0.0,0.0,0.0,0.0,0.0,0.0,0.0,0.0,0.0,0.0,0.0,0.0,0.0,0.0,0.0,0.0,0.0,0.0,0.0,0.0,0.0,0.6434,0.0,0.0,0.0,0.0,0.0,0.0,0.0,0.0,0.0,0.0,0.0,0.0,0.0,0.0,0.0,0.0,0.0,0.0,0.0,0.0,0.0,0.0,1.1508,1.151,1.1896,1.2088,1.2088,1.1852,1.184,1.2054,1.145,1.0798,1.0171,0.0,0.0,0.0,0.0,0.0,0.0,0.0,0.0,0.0,0.0,0.0,0.0,0.0,0.0,0.0,0.0,0.0,0.0,0.0,0.0,0.0,0.0,0.0,0.0,0.0,0.0,0.9347,0.9024,0.8716,0.0,0.0,0.0,0.0,0.0,0.0,0.0,0.0,0.0,0.0,0.8623,0.8008,0.7485,0.7389,0.717,0.6587,0.6332,0.629,0.6478,0.6081,0.5713,0.0,0.0,0.0,0.0,0.0,0.0,0.0,0.0,0.0,0.0,0.0,0.0,0.0,0.0,0.0,0.0,0.0,0.0,0.0,0.0,0.0,0.0,0.0,0.0,0.0,0.0,0.0,0.772,0.7645,0.0,0.0,0.0,0.0,0.0,0.0,0.0,0.0,0.0,0.0,0.0,1.0426,1.0963,0.0,0.0,0.0,0.0,0.0,0.0,0.0,0.0,0.0,0.0,0.0,0.0,1.1899,1.1908,1.2027,1.2088,1.2088,1.2014,1.2014,1.2088,1.1714,1.1001,0.9975,0.0,0.0,0.0,0.0,0.0,0.0,0.0,0.0,0.0,0.0,0.0,0.0,0.0,0.0,0.0,0.0,0.0,0.0,0.0,0.0,0.0,0.0,0.0,0.0,0.0,1.0092,0.0,0.0,0.0,0.0,0.0,0.0,0.0,0.0,0.0,0.0,0.0,0.8872,0.9371,0.9034,0.8554,0.8018,0.7856,0.754,0.0,0.0,0.0,0.0,0.0,0.0,0.0,0.0,0.0,0.0,0.0,0.0,0.0,0.0,0.5464,0.4774,0.4559,0.4517,0.4581,0.0,0.0,0.0,0.0,0.0,0.0,0.0,0.0,0.0,0.0,0.0,0.0,0.0,0.0,0.8424,0.0,0.8124,0.0,0.0,0.0,0.0,0.0,0.0,0.0,0.0,1.0419,1.0905,1.0986,1.163,1.2367,0.0,1.2869,1.2605,0.0,0.0,0.0,0.0,0.0,0.0,0.0,0.0,1.1963,1.2079,1.2088,1.2088,1.2088,1.2088,1.2088,1.2088,1.1753,1.1062,1.0011,0.95,0.9096,0.0,0.0,0.0,0.0,0.0,0.0,0.0,0.0,0.0,0.0,0.0,0.0,0.0,0.0,0.0,0.0,0.0,0.0,0.0,0.0,0.0,0.0,0.0,1.0388,0.0,0.0,0.0,0.0,0.0,0.0,0.0,0.0,0.0,0.9137,0.9191,0.9378,0.9739,0.944,0.9052,0.8707,0.0,0.0,0.0,0.0,0.0,0.0,0.0,0.6886,0.6172,0.608,0.5867,0.5157,0.5424,0.5711,0.5697,0.0,0.0,0.5077,0.4878,0.4852,0.4961,0.4974,0.493,0.4771,0.4598,0.4124,0.0,0.0,0.0,0.0,0.0,0.0,0.0,0.0,0.9464,0.93,0.0,0.8969,0.0,0.0,0.0,0.0,0.0,0.0,0.0,0.0,1.1741,1.1963,1.2008,1.2881,1.3079,1.2605,1.3802,1.407,1.3479,1.2422,0.0,0.0,0.0,0.0,0.0,0.0,1.1721,1.211,1.2125,1.2107,1.2101,1.2088,1.2076,1.2039,1.1569,1.0988,1.0343,1.006,0.9747,0.9414,0.8808,0.0,0.0,0.0,0.0,0.0,0.0,0.0,0.0,0.0,0.0,0.0,0.0,0.0,0.0,0.0,0.0,0.0,0.0,0.0,0.0,0.9753,0.0,0.0,0.0,0.0,0.0,0.0,0.0,0.0,0.0,0.0,0.9966,0.9686,0.9716,1.0238,0.0,0.0,0.0,0.0,0.8526,0.8454,0.7945,0.7652,0.7831,0.745,0.6954,0.6523,0.0,0.0,0.5588,0.5587,0.5611,0.556,0.5666,0.5791,0.5981,0.5651,0.5421,0.5483,0.5321,0.5111,0.5015,0.452,0.3896,0.8645,0.0,0.0,0.0,0.0,0.9359,0.9736,1.023,1.0247,1.0166,1.0051,0.9715,0.0,0.0,0.0,0.0,0.0,0.0,1.0618,1.0647,1.1328,1.1514,1.1301,1.1578,1.1999,1.2589,1.3156,1.3608,1.3917,1.3802,1.3405,1.2804,0.0,0.0,0.0,0.0,1.2426,1.2514,1.2527,1.2386,1.211,1.2088,1.1906,1.154,1.1389,1.1015,1.0458,1.0362,1.0137,0.9763,0.9577,0.0,0.0,0.0,0.0,0.0,0.0,0.0,0.0,0.0,0.0,0.0,0.0,0.0,0.0,0.0,0.0,0.0,0.0,0.0,0.9638,0.97,0.9763,0.0,0.0,0.0,0.0,0.0,0.0,0.0,0.0,0.0,1.0695,1.0324,1.0213,0.0,0.0,0.9997,0.9748,0.9672,0.9508,0.9108,0.0,0.0,0.0,0.883,0.8359,0.7522,0.6602,0.5979,0.6078,0.6095,0.6093,0.6065,0.612,0.6185,0.6302,0.5998,0.5763,0.583,0.58,0.5731,0.5613,0.5034,0.4208,0.9529,0.9201,0.8899,0.9096,0.9671,0.9877,1.0199,1.0565,1.0653,1.0671,1.0605,1.0328,0.999,0.9576,0.9724,0.0,0.0,0.0,1.1019,1.0959,1.118,1.1186,1.1015,1.1145,1.1407,1.1814,1.2472,1.3026,1.3471,1.3904,1.3939,1.3636,0.0,0.0,1.3048,1.3109,1.3095,1.3016,1.285,1.263,1.234,1.2183,1.189,1.1477,1.1465,1.1204,1.068,1.0675,1.0507,1.0157,0.9977,0.9727,0.0,0.0,0.0,0.0,0.0,0.0,0.0,0.0,0.0,0.0,0.0,0.8068,0.7747,0.0,0.0,0.0,0.7852,0.8611,1.0039,1.0097,0.0,0.0,0.0,0.0,0.0,0.0,0.0,1.1622,1.1622,1.1555,1.1483,1.1241,1.0991,1.0888,1.0544,1.03,1.0313,0.0,1.0016,0.9803,0.9732,0.972,0.9714,0.9345,0.8705,0.7626,0.6695,0.6119,0.6257,0.628,0.628,0.6306,0.6344,0.6412,0.6494,0.6291,0.6159,0.6177,0.6159,0.6076,0.5925,0.5509,0.4902,1.0205,1.046,0.9753,0.9769,1.0272,1.0272,1.0607,1.1069,1.0834,1.0851,1.1087,1.0858,1.0634,1.0392,1.0337,0.0,0.0,1.1292,1.1477,1.1835,1.1269,1.1002,1.0975,1.128,1.1162,1.0719,1.1872,1.2489,1.2667,1.3272,1.3803,1.4239,1.4273,1.4054,1.3601,1.375,1.3764,1.356,1.3191,1.2928,1.2748,1.2349,1.201,1.176,1.1712,1.1452,1.0922,1.0896,1.0769,1.0501,1.0153,0.9942,0.9894,0.0,0.0,0.0,0.0,0.0,0.0,0.0,0.0,0.0,0.0,0.0,0.0,0.0,0.0,0.0,0.8351,0.0,1.0206,1.0761,0.0,0.0,0.0,1.2082,1.1951,1.2132,1.228,1.228,0.0,0.0,1.228,0.0,1.198,1.1271,1.0743,1.0568,1.1026,1.0576,1.028,1.0512,1.025,0.9992,1.0027,0.9314,0.8405,0.7391,0.6618,0.6296,0.628,0.628,0.628,0.6304,0.6426,0.6508,0.6525,0.6603,0.6654,0.6525,0.6412,0.6239,0.6045,0.5834,0.5628,1.0869,1.095,1.0751,1.0758,1.0873,1.0891,1.0958,1.1087,1.1026,1.1057,1.1111,1.1193,1.1291,1.1363,1.1349,1.1545,1.1832,1.1815,1.1706,1.153,1.1372,1.1089,1.07,1.0778,1.0996,1.1303,1.1585,1.2422,1.3679,1.4048,1.466,1.5517,1.5806,1.5344,1.4232,1.4227,1.4241,1.4199,1.3932,1.3603,1.3162,1.2775,1.2426,1.2177,1.1867,1.1444,1.0922,1.0888,1.0782,1.0522,1.0396,1.0196,0.9906,0.9494,0.0,0.0,0.0,0.0,0.0,0.0,0.0,0.0,0.0,0.8918,0.8243,0.0,0.9256,0.0,0.9478,1.0034,1.0541,1.1075,0.0,0.0,1.2398,1.2612,1.3107,1.3055,1.2942,1.2962,1.3022,1.2969,1.2759,1.2544,1.2305,1.1954,1.1478,1.1138,1.1118,1.0995,1.0891,1.0931,1.0869,1.0812,1.0644,0.9604,0.8585,0.8337,0.7176,0.6296,0.63,0.628,0.6311,0.6416,0.6487,0.6556,0.6745,0.6763,0.6695,0.6644,0.6546,0.6443,0.6361,0.5777,0.5179,1.1149,1.1223,1.1217,1.1298,1.1335,1.1186,1.1149,1.1242,1.1242,1.1279,1.1372,1.1477,1.1595,1.1706,1.1781,1.191,1.199,1.197,1.1823,1.1623,1.1466,1.1239,1.0949,1.0965,1.1138,1.1458,1.1546,1.2244,1.3453,1.4002,1.4765,1.5721,1.6252,1.6144,1.5441,1.5249,1.5109,1.5031,1.4411,1.3872,1.3409,1.312,1.2816,1.2481,1.226,1.1872,1.1285,1.1263,1.1074,1.0701,1.0667,1.043,0.9866,0.9537,0.917,0.0,0.0,0.0,0.0,0.0,0.0,0.0,0.0,0.0,0.0,0.0,0.9847,1.0184,1.0498,1.0956,1.169,1.1973,1.244,1.321,1.312,1.3207,1.3774,1.3694,1.3601,1.3601,1.3601,1.3486,1.3259,1.3088,1.2877,1.2551,1.2254,1.1885,1.1459,1.1372,1.1372,1.1372,1.1372,1.1031,1.0338,0.9415,0.8546,0.7748,0.6965,0.6412,0.6319,0.628,0.6347,0.646,0.6546,0.6644,0.6769,0.6806,0.6762,0.6698,0.66,0.6501,0.6429,0.598,0.5473,1.1285,1.1446,1.1446,1.1539,1.1663,1.1322,1.1279,1.1428,1.1446,1.1558,1.1744,1.175,1.1762,1.1781,1.1947,1.204,1.2045,1.1965,1.1946,1.1886,1.1638,1.148,1.144,1.1457,1.1515,1.1601,1.1679,1.2218,1.3094,1.3865,1.4709,1.5687,1.6346,1.6751,1.6843,1.6471,1.612,1.579,1.4775,1.404,1.3667,1.3479,1.3194,1.2803,1.2729,1.2399,1.1733,1.1672,1.1421,1.0945,1.0858,1.054,0.9868,0.9531,0.9284,0.0,0.8563,0.0,0.0,0.0,0.0,0.0,0.0,0.0,0.0,0.9995,1.0574,1.146,1.1409,1.1827,1.2975,1.3028,1.3236,1.3808,1.3756,1.3794,1.4102,1.4136,1.4109,1.4109,1.4109,1.3981,1.37,1.3626,1.3439,1.3067,1.2903,1.2629,1.2055,1.1827,1.1783,1.1802,1.1783,1.1221,0.9784,0.9188,0.8508,0.7007,0.6673,0.6611,0.645,0.6431,0.6476,0.6598,0.6709,0.675,0.6774,0.6873,0.6919,0.6788,0.6701,0.656,0.6417,0.6339,0.6099,1.1614,1.1657,1.1651,1.1669,1.1688,1.1614,1.1614,1.1651,1.1632,1.1762,1.1947,1.1947,1.204,1.2169,1.2231,1.2243,1.2243,1.2226,1.2109,1.1906,1.1994,1.1901,1.1659,1.1806,1.2163,1.2637,1.2197,1.3044,1.512,1.4917,1.5647,1.7237,1.7569,1.7713,1.7727,0.0,0.0,0.0,1.5276,1.4824,1.4473,1.4123,1.3705,1.3213,1.2886,0.0,1.1729,1.1494,1.1221,1.0918,1.0687,0.0,0.0,0.0,0.0,0.0,0.0,0.0,0.0,0.0,0.0,0.0,1.1054,1.0484,1.0567,1.1297,1.1764,1.1754,1.2279,1.2721,1.2922,1.3313,1.3753,1.4289,1.4133,1.4115,1.4367,1.4229,1.4109,1.4109,1.4109,1.4068,1.3995,1.3774,1.3566,1.3466,1.328,1.3101,1.2949,1.2447,1.2203,1.2362,1.2164,1.1638,1.0415,0.9604,0.8827,0.7963,0.7297,0.7015,0.6923,0.6943,0.6982,0.7156,0.7132,0.7053,0.7149,0.7207,0.7171,0.7051,0.6993,0.6927,0.6743,0.6633,0.6505,1.2133,0.0,1.208,1.2053,0.0,1.1984,1.2003,1.1984,1.1892,1.1947,1.215,1.215,1.2212,1.2305,1.2305,1.2342,1.2452,1.2452,1.2426,1.241,1.2482,1.2453,1.2289,1.2396,1.2607,1.2941,1.272,1.3233,1.4427,1.4689,1.5444,1.6707,1.72,1.764,1.7981,1.7598,1.7002,1.6251,1.575,1.5423,1.5239,1.4696,1.4155,1.371,0.0,0.0,0.0,0.0,0.0,0.0,0.0,0.0,0.0,0.0,0.0,0.953,0.9586,0.992,1.0535,1.0702,1.1082,1.1837,1.1782,1.1511,1.1084,1.1595,1.2024,1.219,1.2659,1.312,1.3516,1.3764,1.4074,1.4441,1.4262,1.4148,1.4262,1.4196,1.4109,1.4109,1.4109,1.4109,1.4109,1.3968,1.3854,1.3834,1.3741,1.3634,1.358,1.3088,1.2602,1.214,1.1897,1.1189,0.9784,0.9188,0.8546,0.7723,0.7352,0.7215,0.7111,0.7114,0.7167,0.7332,0.723,0.7132,0.7174,0.72,0.7169,0.7036,0.7011,0.7031,0.6975,0.687,0.6614,1.2654,1.2621,1.2647,1.2553,1.2465,1.2465,1.2465,1.2433,0.0,0.0,0.0,1.2378,1.2423,1.2496,1.2514,1.2626,1.2838,1.2838,1.2885,1.2984,1.3039,1.3011,1.2955,1.2991,1.3017,1.301,1.3174,1.3339,1.3484,1.4232,1.5055,1.5904,1.6576,1.7278,1.7937,1.7666,1.7314,1.6911,1.6299,1.5946,1.5906,1.5334,1.4765,1.424,1.4121,1.3829,1.3314,1.3203,1.3017,1.2718,1.2093,1.1443,1.0805,1.0302,0.9963,0.9833,1.0123,1.0402,1.0684,1.1126,1.1426,1.1471,1.214,1.2276,1.1598,1.1856,1.2216,1.2659,1.2961,1.3375,1.4038,1.4102,1.4182,1.4416,1.4229,1.4109,1.4109,1.4109,1.4109,1.4109,1.4109,1.4103,1.4138,1.4117,1.4109,1.4145,1.409,1.4109,1.4028,1.3654,1.3002,1.2079,1.1906,1.1041,0.9267,0.8789,0.8236,0.7386,0.7344,0.7414,0.7304,0.7233,0.7295,0.7445,0.7306,0.7224,0.7189,0.7212,0.712,0.7026,0.6996,0.7057,0.7196,0.7138,0.6807,1.3107,1.3114,1.3094,1.308,1.3086,1.308,1.308,1.302,1.2494,1.2426,1.2723,1.2717,1.2941,1.3333,1.3333,1.3477,1.3717,1.3717,1.3577,0.0,1.3514,1.3439,1.3163,1.3346,1.3426,1.3419,1.3444,1.3786,1.4358,1.4527,1.5305,1.6577,1.6845,1.726,1.794,1.7932,1.7891,1.7796,1.6993,1.6515,1.6404,1.629,1.5763,1.4761,1.4689,1.4229,1.3341,1.2825,1.2377,1.2037,1.1461,1.085,1.0273,1.0465,1.0474,1.0263,1.0728,1.1168,1.1435,1.1688,1.1906,1.2158,1.2533,1.2712,1.2614,1.3041,1.3266,1.3161,1.3559,1.3853,1.3752,1.3947,1.4108,1.4148,1.4136,1.4109,1.4124,1.413,1.413,1.413,1.4109,1.418,1.4321,1.4229,1.418,1.4279,1.4243,1.413,1.411,1.4021,1.36,1.2882,1.2804,1.1975,1.0095,0.9655,0.9033,0.7897,0.7688,0.7781,0.7816,0.7724,0.7685,0.7741,0.7553,0.7452,0.7417,0.7424,0.7401,0.7369,0.7369,0.7407,0.7422,0.7403,0.7292,1.3574,1.3413,1.3427,1.3307,1.3226,1.3318,1.3457,1.3554,1.328,1.3167,1.3186,1.3343,1.3516,1.3699,1.3699,1.3843,1.4073,1.4047,1.4034,1.4014,1.4103,1.405,1.3912,1.4007,1.4037,1.4045,1.4045,1.4219,1.4531,1.4543,1.5107,1.6153,1.64,1.6599,1.6734,1.675,1.6985,1.7389,1.7185,1.7058,1.6983,1.667,1.6245,1.5729,1.556,1.5029,1.4146,1.3774,1.3315,1.2735,1.21,1.1633,1.1374,1.1175,1.1018,1.0923,1.131,1.1618,1.175,1.2146,1.2442,1.2583,1.2845,1.3019,1.3019,1.3113,1.3213,1.34,1.3687,1.3868,1.386,1.4008,1.4124,1.4237,1.4265,1.4307,1.4412,1.4433,1.4412,1.4433,1.4433,1.4454,1.4538,1.4489,1.4454,1.4545,1.4468,1.4419,1.4419,1.4419,1.3985,1.2892,1.2666,1.1864,1.0081,0.963,0.9127,0.8088,0.8,0.8085,0.8142,0.8037,0.7931,0.7898,0.7699,0.7524,0.7518,0.7499,0.7499,0.7499,0.7499,0.7499,0.7499,0.7499,0.748,1.4094,1.3844,1.3858,1.373,1.3567,1.3707,1.3914,1.4074,1.414,1.4054,1.39,1.3964,1.407,1.418,1.4173,1.428,1.4439,1.4466,1.4529,1.4582,1.4594,1.4565,1.4499,1.4484,1.4484,1.4484,1.4484,1.4484,1.4484,1.4484,1.4866,1.5576,1.6082,1.6202,1.5976,1.594,1.6252,1.6899,1.7053,1.7257,1.7519,1.7074,1.6699,1.6378,1.6143,1.5562,1.469,1.4413,1.3965,1.3285,1.2672,1.2319,1.218,1.1799,1.1564,1.1557,1.1888,1.2141,1.2209,1.2679,1.2961,1.2942,1.3203,1.3365,1.3419,1.3263,1.3264,1.3621,1.381,1.3993,1.4196,1.4243,1.4327,1.4544,1.4578,1.4683,1.4894,1.4859,1.4859,1.4894,1.4866,1.4846,1.4944,1.4965,1.495,1.4943,1.4922,1.4929,1.4929,1.4922,1.4347,1.3416,1.2752,1.1881,1.0146,0.9639,0.9216,0.8342,0.8305,0.8409,0.84,0.8272,0.8106,0.808,0.7849,0.7705,0.7657,0.7702,0.7723,0.7779,0.782,0.7806,0.7775,0.7752,0.7643,1.4636,1.4608,1.4559,1.458,1.4552,1.4566,1.458,1.4649,1.4865,1.4983,1.4877,1.4465,1.4541,1.4961,1.4982,1.5071,1.5244,1.5294,1.5126,1.4878,1.4863,1.473,1.4555,1.4526,1.4492,1.4526,1.454,1.4589,1.4582,1.456,1.4886,1.56,1.6312,1.6667,1.6803,1.6643,1.6699,1.6971,1.6524,1.6857,1.7867,1.7903,1.7276,1.6081,1.6022,1.5393,1.4189,1.3596,1.3171,1.2783,1.2461,1.2015,1.163,1.19,1.205,1.1899,1.2395,1.2824,1.3066,1.3303,1.3435,1.3461,1.3666,1.3938,1.4155,1.4168,1.4087,1.4097,1.4358,1.4559,1.4657,1.465,1.4775,1.5068,1.5139,1.5244,1.5498,1.5322,1.5266,1.5575,1.5373,1.5324,1.5696,1.568,1.5598,1.5571,1.5571,1.5556,1.5563,1.5563,1.5464,1.4776,1.3819,1.247,1.1248,1.0354,0.972,0.9061,0.8747,0.8765,0.8788,0.863,0.8358,0.8321,0.821,0.8056,0.8062,0.8166,0.8293,0.8236,0.8326,0.8485,0.8364,0.8273,0.8099,1.4713,1.4713,1.4713,1.4783,1.4915,1.4936,1.4999,1.5124,1.5215,1.5277,1.5249,1.5036,1.5071,1.5277,1.5277,1.5319,1.541,1.541,1.5323,1.5192,1.5185,1.5119,1.503,1.5022,1.5089,1.5203,1.5223,1.5284,1.542,1.5461,1.5496,1.5594,1.5933,1.5946,1.572,1.5627,1.5781,1.6166,1.5951,1.6289,1.7044,1.6829,1.6374,1.5895,1.5757,1.5347,1.4543,1.4145,1.3814,1.3438,1.3269,1.3107,1.2896,1.3081,1.3163,1.3101,1.3296,1.3496,1.3614,1.3833,1.397,1.397,1.4217,1.4426,1.4531,1.4683,1.4795,1.4923,1.4797,1.4783,1.495,1.4992,1.5176,1.5559,1.568,1.5796,1.6073,1.5994,1.5994,1.608,1.6016,1.5972,1.6183,1.6175,1.6102,1.6124,1.6109,1.6115,1.6094,1.6109,1.6051,1.5717,1.442,1.2945,1.1935,1.1455,1.0604,0.9588,0.912,0.9099,0.9137,0.897,0.874,0.8634,0.8542,0.8431,0.8286,0.8442,0.8579,0.8626,0.8605,0.8661,0.86,0.8579,0.8386,1.4887,1.4901,1.4972,1.5127,1.531,1.5417,1.5488,1.552,1.5541,1.549,1.5417,1.541,1.541,1.541,1.541,1.541,1.541,1.541,1.5423,1.5486,1.5486,1.552,1.5569,1.559,1.5673,1.5803,1.5788,1.5899,1.6087,1.6115,1.5978,1.5751,1.5741,1.5579,1.5263,1.5181,1.5379,1.5776,1.5639,1.577,1.6152,1.5696,1.5467,1.5639,1.5585,1.5279,1.4735,1.4539,1.429,1.4006,1.3988,1.3968,1.3909,1.3949,1.3991,1.4002,1.4009,1.4051,1.4109,1.4367,1.4514,1.4556,1.4753,1.4887,1.4922,1.514,1.5403,1.5583,1.5355,1.5305,1.5468,1.5524,1.5747,1.6173,1.6246,1.6357,1.6615,1.6594,1.6565,1.6631,1.6557,1.6565,1.6638,1.666,1.6659,1.6652,1.666,1.6653,1.6563,1.642,1.6166,1.6067,1.4631,1.3421,1.2531,1.1718,1.1016,1.0293,0.9682,0.9709,0.9646,0.9484,0.9353,0.9374,0.9167,0.9051,0.9048,0.907,0.9044,0.9065,0.9044,0.9028,0.9014,0.8974,0.887,1.5368,1.5405,1.5725,1.582,1.587,1.6184,1.6148,1.587,1.5877,1.5723,1.5454,1.5432,1.541,1.5431,1.5451,1.541,1.541,1.5431,1.5527,1.5679,1.5699,1.5831,1.6046,1.6066,1.6066,1.6066,1.6059,1.6087,1.6136,1.6136,1.61,1.6077,1.6083,1.6137,1.619,1.6047,1.6121,1.6213,1.5703,1.5393,1.5368,1.4904,1.4988,1.5541,1.5575,1.5211,1.4611,1.4345,1.4203,1.4205,1.4234,1.4141,1.397,1.4114,1.4257,1.4283,1.4305,1.4404,1.4663,1.4893,1.5047,1.5082,1.5236,1.5383,1.5371,1.5646,1.5856,1.5892,1.6119,1.6272,1.6308,1.6279,1.644,1.6754,1.6828,1.696,1.7193,1.699,1.7019,1.7121,1.7005,1.6961,1.7178,1.7258,1.7193,1.7193,1.7229,1.7207,1.704,1.6439,1.5848,1.5358,1.4528,1.3662,1.328,1.2163,1.1042,1.0393,1.025,1.043,1.0443,1.04,1.0259,1.0124,0.9934,0.9845,0.9896,0.9904,0.9851,0.981,0.9751,0.9691,0.9467,0.9529,0.9407,1.4427,1.5075,1.5878,1.6228,1.6235,1.6345,1.6323,1.6228,1.6206,1.603,1.5774,1.5837,1.5803,1.5596,1.5769,1.5756,1.5603,1.5603,1.5728,1.5935,1.5955,1.6017,1.6087,1.6115,1.619,1.6278,1.6306,1.6368,1.6471,1.6492,1.6492,1.6492,1.6492,1.6463,1.6402,1.6332,1.6286,1.6175,1.5929,1.5815,1.5779,1.5457,1.5402,1.5615,1.5148,1.4847,1.4772,1.4692,1.4747,1.495,1.4978,1.4937,1.4868,1.4916,1.498,1.5007,1.5,1.5051,1.5151,1.5236,1.5305,1.532,1.5565,1.5709,1.5789,1.6023,1.6309,1.6499,1.6639,1.677,1.6894,1.6829,1.6829,1.7091,1.7165,1.7186,1.7251,1.72,1.7185,1.7266,1.7185,1.7216,1.7258,1.7309,1.7309,1.7309,1.7309,1.7309,1.7162,1.6443,1.5745,1.5359,1.4212,1.3072,1.3005,1.2206,1.1321,1.0819,1.0556,1.0565,1.0574,1.0593,1.0475,1.0372,1.0328,1.0318,1.028,1.0209,1.0214,1.0167,1.0156,1.0025,0.9881,0.9817,0.9703,1.3691,1.4401,1.5203,1.5678,1.5834,1.5925,1.5979,1.6065,1.6327,1.6249,1.6038,1.6305,1.6318,1.6091,1.6299,1.6213,1.5935,1.5865,1.5976,1.6198,1.6319,1.6414,1.65,1.6585,1.6716,1.6841,1.6855,1.6891,1.6879,1.6892,1.6829,1.6705,1.6689,1.6628,1.6525,1.6504,1.643,1.6314,1.6232,1.6203,1.6162,1.5955,1.5824,1.5764,1.5295,1.5015,1.5074,1.5053,1.5148,1.5373,1.541,1.541,1.541,1.541,1.541,1.541,1.541,1.541,1.541,1.541,1.5461,1.557,1.576,1.5943,1.606,1.6367,1.6638,1.6836,1.699,1.7136,1.7223,1.7128,1.7099,1.7266,1.7309,1.7309,1.7309,1.7309,1.7302,1.7302,1.7295,1.7295,1.7309,1.7309,1.7309,1.7309,1.7309,1.7309,1.7185,1.6466,1.5822,1.5626,1.3998,1.2989,1.2614,1.203,1.1478,1.1,1.082,1.0782,1.0749,1.0759,1.0735,1.065,1.0621,1.0631,1.0593,1.0513,1.0451,1.0399,1.0266,1.0143,1.006,1.0015,0.9887,1.3337,1.3504,1.3715,1.4387,1.4872,1.5125,1.5196,1.552,1.6156,1.6237,1.5982,1.6683,1.6766,1.6655,1.6872,1.6861,1.649,1.6339,1.6329,1.6487,1.6744,1.7006,1.7252,1.7497,1.7616,1.766,1.7753,1.7572,1.7286,1.7292,1.7127,1.6813,1.6821,1.6832,1.6729,1.6779,1.674,1.6702,1.6593,1.6492,1.6389,1.6288,1.6207,1.6184,1.6089,1.5874,1.5473,1.5423,1.5373,1.5402,1.541,1.541,1.5446,1.5454,1.5439,1.549,1.5461,1.5446,1.5461,1.549,1.5651,1.587,1.595,1.6126,1.6396,1.6735,1.6948,1.7014,1.7197,1.7342,1.7358,1.7366,1.7343,1.7309,1.7356,1.7356,1.7356,1.7333,1.7333,1.738,1.7396,1.7349,1.7326,1.7396,1.7426,1.7426,1.7403,1.738,1.7239,1.6372,1.5822,1.5365,1.3878,1.2417,1.2155,1.1907,1.1512,1.1161,1.1113,1.1095,1.1052,1.1048,1.1029,1.0962,1.0948,1.0929,1.0844,1.0764,1.0702,1.0621,1.0446,1.0266,1.0186,1.0132,1.0028,1.3991,1.4098,1.4839,1.5254,1.5433,1.5525,1.5593,1.5644,1.5926,1.5827,1.5741,1.6493,1.6714,1.666,1.7208,1.7479,1.7368,1.7295,1.7185,1.7062,1.7133,1.7349,1.7612,1.7745,1.7785,1.7785,1.7785,1.7767,1.7665,1.7634,1.7562,1.7482,1.7451,1.7467,1.7413,1.7453,1.7453,1.7445,1.7402,1.736,1.736,1.7153,1.7054,1.704,1.6903,1.6716,1.6571,1.5945,1.5555,1.5445,1.541,1.5505,1.5687,1.5739,1.5862,1.6045,1.6096,1.6096,1.6096,1.6067,1.614,1.6272,1.644,1.6609,1.6763,1.7172,1.7427,1.7465,1.7677,1.7854,1.7846,1.7846,1.7761,1.7574,1.7581,1.7644,1.7776,1.7831,1.7854,1.7846,1.787,1.787,1.7846,1.7823,1.78,1.7807,1.7823,1.7776,1.7387,1.6183,1.4961,1.4627,1.2993,1.2106,1.216,1.2092,1.1707,1.1414,1.134,1.1218,1.1194,1.1194,1.1194,1.1194,1.1194,1.1165,1.1085,1.1,1.092,1.0773,1.0574,1.0427,1.0331,1.0213,1.0104,1.3745,1.3817,1.4418,1.4801,1.4944,1.4944,1.507,1.5255,1.5534,1.5523,1.5541,1.6334,1.6524,1.6407,1.7011,1.7359,1.7417,1.7524,1.7609,1.7662,1.7652,1.7801,1.7999,1.8112,1.8182,1.8168,1.819,1.8111,1.7991,1.7984,1.792,1.7809,1.7785,1.7777,1.7785,1.7785,1.7785,1.7785,1.7777,1.7785,1.7771,1.767,1.7612,1.7583,1.7444,1.7313,1.7216,1.6673,1.6203,1.588,1.5643,1.5647,1.5877,1.5899,1.6103,1.6463,1.6551,1.6588,1.6632,1.6631,1.6721,1.6847,1.7034,1.7212,1.7354,1.7701,1.7831,1.7885,1.7994,1.8087,1.8087,1.8087,1.804,1.8024,1.7908,1.7924,1.8063,1.8087,1.8087,1.8063,1.8087,1.8087,1.8087,1.8087,1.8087,1.8087,1.8087,1.787,1.7356,1.6372,1.5538,1.4704,1.3776,1.3082,1.2554,1.2243,1.1907,1.1683,1.1512,1.1316,1.1194,1.1194,1.1194,1.1194,1.1194,1.1194,1.1127,1.1094,1.1014,1.0863,1.0726,1.0612,1.0494,1.0276,1.0165,1.2905,1.2886,1.291,1.334,1.3702,1.3727,1.404,1.4418,1.5003,1.5283,1.546,1.6085,1.6283,1.6107,1.6488,1.6784,1.6758,1.7041,1.7462,1.7838,1.7988,1.8034,1.8314,1.8581,1.8669,1.8709,1.8717,1.859,1.8343,1.8327,1.8168,1.796,1.796,1.7872,1.7952,1.7872,1.7928,1.796,1.7912,1.792,1.792,1.7912,1.789,1.7898,1.7884,1.7812,1.7666,1.752,1.7195,1.6629,1.6123,1.5963,1.6014,1.5994,1.6366,1.6914,1.6884,1.7024,1.7119,1.7195,1.7279,1.7515,1.7576,1.7758,1.7956,1.8064,1.8117,1.8141,1.8179,1.8179,1.8179,1.8203,1.828,1.8427,1.8303,1.8203,1.8156,1.8179,1.8226,1.8203,1.8133,1.8156,1.8179,1.8133,1.804,1.8017,1.7947,1.752,1.7037,1.6403,1.6308,1.5384,1.4046,1.3474,1.2754,1.2584,1.2297,1.2175,1.1975,1.1731,1.1361,1.1273,1.1123,1.1132,1.1249,1.1238,1.1184,1.1171,1.1137,1.1061,1.0934,1.0806,1.0603,1.0385,1.019,1.3919,1.3913,1.3913,1.3986,1.4082,1.4082,1.4154,1.4322,1.4484,1.4651,1.4771,1.5391,1.5653,1.5641,1.6274,1.6593,1.6597,1.6702,1.6813,1.6992,1.7038,1.7734,1.8486,1.8726,1.8781,1.8804,1.8804,1.8757,1.8669,1.8638,1.859,1.8557,1.8471,1.8495,1.8519,1.851,1.8527,1.8535,1.8519,1.8526,1.8495,1.8495,1.8527,1.8549,1.8526,1.848,1.8427,1.8213,1.7736,1.7045,1.6851,1.6877,1.7032,1.7078,1.7258,1.7606,1.772,1.7758,1.7819,1.7835,1.7896,1.7949,1.798,1.7995,1.8064,1.8303,1.8381,1.8427,1.8512,1.8596,1.862,1.8596,1.8643,1.8697,1.862,1.8573,1.8573,1.862,1.862,1.862,1.8566,1.8496,1.8404,1.8079,1.7792,1.7676,1.738,1.6934,1.6473,1.5906,1.5551,1.4741,1.3739,1.3335,1.3001,1.2856,1.274,1.2686,1.2516,1.2316,1.1832,1.14,1.1178,1.0967,1.1274,1.1342,1.1273,1.1194,1.1213,1.1389,1.1153,1.1015,1.0687,1.0427,1.0252,1.4322,1.4322,1.4322,1.4322,1.4322,1.4322,1.4322,1.4322,1.4322,1.4322,1.4418,1.4723,1.4938,1.4986,1.5415,1.5818,1.6086,1.6079,1.6292,1.6605,1.6645,1.7271,1.8094,1.8334,1.8496,1.8804,1.8781,1.8804,1.8796,1.8804,1.8804,1.8773,1.8804,1.8804,1.8765,1.8804,1.8804,1.8796,1.8804,1.8804,1.8804,1.8804,1.8796,1.8796,1.8804,1.8804,1.8765,1.8598,1.8116,1.7466,1.727,1.7365,1.756,1.7605,1.7811,1.8195,1.8257,1.8288,1.8365,1.8388,1.8388,1.8388,1.8388,1.8411,1.8435,1.8558,1.8635,1.8651,1.8766,1.8781,1.8804,1.8804,1.8804,1.8781,1.8804,1.8804,1.8804,1.8781,1.8804,1.8758,1.8542,1.8334,1.8326,1.7699,1.7349,1.7154,1.6934,1.6433,1.593,1.5289,1.4765,1.422,1.3938,1.3721,1.36,1.3509,1.3413,1.334,1.3098,1.2899,1.2339,1.1775,1.1542,1.1397,1.1461,1.1521,1.1539,1.1623,1.178,1.1794,1.1496,1.1211,1.0923,1.0806,1.059,1.4322,1.4322,1.4322,1.4322,1.4322,1.4322,1.4322,1.4322,1.4322,1.4322,1.4322,1.4322,1.4418,1.4322,1.4562,1.4723,1.5296,1.5296,1.5676,1.6015,1.6228,1.6591,1.7241,1.7528,1.7839,1.8311,1.8573,1.8612,1.8566,1.8612,1.8735,1.8712,1.8712,1.8735,1.8758,1.8804,1.8804,1.8804,1.8804,1.8804,1.8804,1.8804,1.8804,1.8804,1.8804,1.8804,1.8804,1.8741,1.8428,1.7681,1.7634,1.7734,1.7772,1.7757,1.7987,1.8395,1.852,1.8581,1.8743,1.8735,1.8758,1.8735,1.8758,1.8804,1.8758,1.8758,1.8758,1.8758,1.8804,1.8804,1.8804,1.8804,1.8804,1.8804,1.8804,1.8804,1.8804,1.8804,1.8804,1.8758,1.8164,1.7785,1.7505,1.7037,1.6487,1.6403,1.615,1.5676,1.5337,1.5003,1.4627,1.4346,1.4226,1.4274,1.4226,1.4202,1.413,1.4058,1.3751,1.344,1.291,1.2418,1.2178,1.2008,1.1812,1.19,1.2144,1.2254,1.2385,1.2311,1.205,1.1664,1.1325,1.1368,1.1245,1.4322,1.4322,1.4322,1.4322,1.4322,1.4322,1.4322,1.4322,1.4322,1.4322,1.4322,1.4322,1.4322,1.4322,1.4322,1.4412,1.458,1.4604,1.4675,1.4723,1.4795,1.5218,1.593,1.648,1.6904,1.7255,1.7715,1.7924,1.7924,1.7971,1.8234,1.862,1.8172,1.8218,1.8635,1.8596,1.8781,1.8804,1.8789,1.8758,1.8804,1.8804,1.8804,1.8804,1.8804,1.8804,1.8804,1.8804,1.8702,1.8568,1.8467,1.8414,1.8447,1.847,1.8548,1.865,1.872,1.8758,1.8781,1.8735,1.8781,1.8666,1.8666,1.8804,1.8804,1.8804,1.8804,1.8804,1.8804,1.8804,1.8804,1.8804,1.8804,1.8804,1.8804,1.8804,1.8804,1.8804,1.8804,1.8666,1.8187,1.7684,1.7614,1.6426,1.5913,1.5646,1.5272,1.4825,1.4699,1.4651,1.4514,1.4322,1.4322,1.4322,1.4322,1.4322,1.4322,1.4322,1.4112,1.3944,1.343,1.2925,1.2604,1.2296,1.2017,1.224,1.2633,1.2711,1.2796,1.2678,1.2592,1.2304,1.2061,1.2017,1.1881,1.4322,1.4322,1.4322,1.4322,1.4322,1.4322,1.4322,1.4322,1.4322,1.4322,1.4322,1.4322,1.4322,1.4322,1.4322,1.4322,1.4322,1.4322,1.4322,1.4346,1.4346,1.4532,1.4819,1.5367,1.5795,1.6487,1.6974,1.7185,1.7185,1.7209,1.7356,1.773,1.7372,1.7349,1.7707,1.7823,1.7939,1.8218,1.8311,1.8427,1.8735,1.8804,1.8804,1.8804,1.8804,1.8804,1.8804,1.8804,1.8804,1.8804,1.8781,1.8781,1.8804,1.8804,1.8804,1.8804,1.8804,1.8589,1.8396,1.8257,1.8102,1.7846,1.8048,1.8257,1.8404,1.8566,1.8804,1.8804,1.8804,1.8804,1.8804,1.8804,1.8804,1.8804,1.8804,1.8804,1.8804,1.8804,1.8804,1.8666,1.8164,1.7575,1.692,1.6001,1.5313,1.5027,1.4914,1.4514,1.449,1.4442,1.4418,1.4322,1.4322,1.4322,1.4322,1.4322,1.4322,1.4322,1.425,1.416,1.3933,1.345,1.2992,1.2768,1.2631,1.2768,1.3101,1.3161,1.3157,1.3004,1.2903,1.2835,1.2737,1.2542,1.2419,1.4322,1.4322,1.4322,1.4322,1.4322,1.4322,1.4322,1.4322,1.4322,1.4322,1.4322,1.4322,1.4322,1.4322,1.4322,1.4322,1.4322,1.4322,1.4322,1.4322,1.4322,1.437,1.4466,1.461,1.501,1.6204,1.6369,1.6416,1.6416,1.644,1.6581,1.6605,1.644,1.6605,1.6612,1.6659,1.7005,1.7466,1.7528,1.7715,1.8195,1.8288,1.8295,1.8265,1.8473,1.8388,1.838,1.8542,1.8689,1.8496,1.8573,1.8573,1.8496,1.8612,1.8635,1.8589,1.8404,1.8002,1.7652,1.7505,1.7271,1.6652,1.7138,1.7512,1.7676,1.8125,1.845,1.8612,1.8635,1.8804,1.8804,1.8804,1.8804,1.8804,1.8804,1.8804,1.8804,1.8804,1.8804,1.8658,1.7932,1.7185,1.6544,1.5771,1.5051,1.4484,1.437,1.4322,1.4322,1.4322,1.4322,1.4322,1.4322,1.4322,1.4322,1.4322,1.4322,1.4322,1.4322,1.4286,1.4262,1.3951,1.3543,1.3487,1.3422,1.3468,1.3545,1.3661,1.3596,1.3372,1.3376,1.3455,1.3301,1.305,1.2939,1.4322,1.4322,1.4322,1.4322,1.4322,1.4322,1.4322,1.4322,1.4322,1.4322,1.4322,1.4322,1.4322,1.4322,1.4322,1.4322,1.4322,1.4322,1.4322,1.4322,1.4322,1.4322,1.4322,1.4322,1.4538,1.4771,1.5248,1.5605,1.5605,1.5629,1.5866,1.6268,1.5889,1.5842,1.6298,1.6588,1.6464,1.6716,1.6763,1.6927,1.7122,1.7192,1.72,1.7239,1.7652,1.7606,1.7473,1.8102,1.8241,1.7192,1.7582,1.7489,1.7326,1.7606,1.7785,1.7792,1.745,1.7122,1.6833,1.677,1.6723,1.6659,1.6699,1.6746,1.6927,1.7419,1.7816,1.8048,1.8404,1.8758,1.8804,1.8758,1.8804,1.8804,1.8804,1.8804,1.8804,1.8804,1.8804,1.8712,1.773,1.6793,1.6339,1.5795,1.5105,1.458,1.4346,1.4322,1.4322,1.4322,1.4322,1.4322,1.4322,1.4322,1.4322,1.4322,1.4322,1.4322,1.4322,1.4322,1.428,1.428,1.4135,1.393,1.3786,1.3728,1.3865,1.4032,1.4004,1.3755,1.3909,1.4106,1.3865,1.363,1.3582,1.4322,1.4322,1.4322,1.4322,1.4322,1.4322,1.4322,1.4322,1.4322,1.4322,1.4322,1.4322,1.4322,1.4322,1.4322,1.4322,1.4322,1.4322,1.4322,1.4322,1.4322,1.4322,1.4322,1.4322,1.4322,1.4418,1.4675,1.4867,1.4819,1.4849,1.5112,1.5177,1.4962,1.5057,1.532,1.535,1.5652,1.5842,1.5984,1.618,1.6511,1.6565,1.6565,1.6699,1.6887,1.6904,1.6864,1.7122,1.7356,1.684,1.6934,1.688,1.6692,1.652,1.6702,1.6951,1.6746,1.6346,1.6055,1.5937,1.5795,1.5486,1.5747,1.5961,1.615,1.6622,1.7115,1.7326,1.7769,1.8234,1.821,1.855,1.8781,1.8804,1.8804,1.8804,1.8804,1.8804,1.8804,1.8804,1.8334,1.7543,1.6581,1.5961,1.5201,1.4723,1.4394,1.4322,1.4322,1.4322,1.4322,1.4322,1.4322,1.4322,1.4322,1.4322,1.4322,1.4322,1.4322,1.4322,1.4322,1.4292,1.4262,1.4147,1.4069,1.396,1.39,1.3984,1.4057,1.4141,1.4172,1.4184,1.4268,1.4226,1.4082,1.41,1.4322,1.4322,1.4322,1.4322,1.4322,1.4322,1.4322,1.4322,1.4322,1.4322,1.4322,1.4322,1.4322,1.4322,1.4322,1.4322,1.4322,1.4322,1.4322,1.4322,1.4322,1.4322,1.4322,1.4322,1.4322,1.4346,1.4322,1.4394,1.4394,1.4346,1.4466,1.437,1.4322,1.4418,1.4562,1.4771,1.4962,1.5201,1.5551,1.5984,1.6133,1.6157,1.6197,1.6282,1.6275,1.6015,1.6558,1.6433,1.6204,1.6204,1.6275,1.6055,1.5534,1.5486,1.5991,1.6126,1.5747,1.5391,1.5177,1.4986,1.4634,1.4914,1.5099,1.5367,1.5849,1.644,1.6652,1.7075,1.7489,1.7582,1.8125,1.845,1.8589,1.8658,1.8804,1.8804,1.8804,1.8804,1.8804,1.8804,1.8102,1.6927,1.5984,1.5201,1.4658,1.4322,1.4322,1.4322,1.4322,1.4322,1.4322,1.4322,1.4322,1.4322,1.4322,1.4322,1.4322,1.4322,1.4322,1.4322,1.4298,1.4268,1.4238,1.4171,1.4069,1.4002,1.3961,1.4105,1.4201,1.4238,1.4268,1.4292,1.4322,1.4226,1.3438,1.4298,1.4274,1.4322,1.4274,1.425,1.4298,1.4322,1.4322,1.4322,1.4322,1.4322,1.4322,1.4322,1.4322,1.4322,1.4322,1.4322,1.4322,1.4322,1.4322,1.4322,1.4322,1.4322,1.4322,1.4322,1.4322,1.4322,1.4322,1.4322,1.4322,1.4322,1.4322,1.4322,1.4322,1.4322,1.434,1.4442,1.4466,1.4562,1.4675,1.4723,1.4723,1.4867,1.5177,1.5343,1.5081,1.5676,1.5889,1.489,1.5272,1.5177,1.4699,1.4508,1.4466,1.4562,1.4556,1.4532,1.4538,1.4562,1.4562,1.4346,1.449,1.4436,1.4705,1.5153,1.5795,1.6565,1.6706,1.6723,1.6857,1.7442,1.7746,1.8118,1.8473,1.8712,1.8804,1.8804,1.8804,1.8804,1.8804,1.7986,1.6958,1.6055,1.5224,1.4705,1.4322,1.4322,1.4322,1.4322,1.4322,1.4322,1.4322,1.4322,1.4322,1.4322,1.4322,1.4322,1.4322,1.4322,1.4322,1.4322,1.4322,1.4268,1.4214,1.4195,1.4165,1.4171,1.4226,1.4244,1.4274,1.4286,1.4298,1.4322,1.4322,1.1585,1.2533,1.2562,1.2877,1.3366,1.3396,1.3757,1.4226,1.4322,1.4322,1.4322,1.4322,1.4322,1.4322,1.4322,1.4322,1.4322,1.4322,1.4322,1.4322,1.4322,1.4322,1.4322,1.4322,1.4322,1.4322,1.4322,1.4322,1.4322,1.4322,1.4322,1.4322,1.4322,1.4322,1.4322,1.4322,1.4322,1.4322,1.4322,1.4322,1.4322,1.4322,1.4322,1.4322,1.4658,1.4586,1.461,1.4747,1.5034,1.437,1.4675,1.4651,1.4394,1.4322,1.4322,1.4322,1.4346,1.4346,1.4322,1.4322,1.4322,1.4322,1.4322,1.4346,1.437,1.461,1.489,1.5231,1.57,1.5889,1.6173,1.7037,1.7505,1.7878,1.821,1.8542,1.8712,1.8781,1.8804,1.8804,1.8689,1.7916,1.7162,1.648,1.5676,1.5057,1.4562,1.4322,1.4322,1.4322,1.4322,1.4322,1.4322,1.4322,1.4322,1.4322,1.4322,1.4322,1.4322,1.4322,1.4322,1.4322,1.4322,1.4322,1.4268,1.4274,1.4322,1.4292,1.4268,1.428,1.4322,1.4322,1.4322,1.4322,1.4322,0.9682,1.044,1.0974,1.1639,1.229,1.2309,1.2732,1.3468,1.3757,1.3884,1.4004,1.4124,1.4322,1.4322,1.4322,1.4322,1.4322,1.4322,1.4322,1.4322,1.4322,1.4322,1.4322,1.4322,1.4322,1.4322,1.4322,1.4322,1.4322,1.4322,1.4322,1.4322,1.4322,1.4322,1.4322,1.4322,1.4322,1.4322,1.4322,1.4322,1.4322,1.4322,1.4322,1.4322,1.4322,1.4322,1.4322,1.437,1.4346,1.4346,1.4346,1.437,1.4322,1.4322,1.4322,1.4322,1.4322,1.4322,1.4322,1.4322,1.4322,1.4322,1.4322,1.4322,1.4322,1.4322,1.4322,1.4514,1.4819,1.5081,1.5367,1.6332,1.6709,1.7217,1.7808,1.821,1.8542,1.8566,1.8519,1.8396,1.828,1.8118,1.7442,1.6911,1.6221,1.5456,1.4914,1.4418,1.4322,1.4322,1.4322,1.4322,1.4322,1.4322,1.4322,1.4322,1.4322,1.4322,1.4322,1.4322,1.4322,1.4322,1.4322,1.4322,1.4322,1.4322,1.4322,1.4322,1.4322,1.4322,1.4322,1.4322,1.4322,1.4322,1.4322,0.8137,0.8379,1.0342,1.117,1.1292,1.1292,1.1365,1.176,1.2484,1.2853,1.3095,1.3757,1.4178,1.4322,1.4322,1.4322,1.4322,1.4322,1.4322,1.4322,1.4322,1.4322,1.4322,1.4322,1.4322,1.4322,1.4322,1.4322,1.4322,1.4322,1.4322,1.4322,1.4322,1.4322,1.4322,1.4322,1.4322,1.4322,1.4322,1.4322,1.4322,1.4322,1.4322,1.4322,1.4322,1.4322,1.4322,1.4322,1.4322,1.4322,1.4322,1.4322,1.4322,1.4322,1.4322,1.4322,1.4322,1.4322,1.4322,1.4322,1.4322,1.4322,1.4322,1.4322,1.4322,1.4322,1.4322,1.4322,1.4532,1.449,1.4705,1.5081,1.5859,1.6332,1.7014,1.7559,1.7932,1.8265,1.8187,1.8017,1.7808,1.7606,1.7255,1.6598,1.6173,1.5432,1.4819,1.4322,1.4322,1.4322,1.4322,1.4322,1.4322,1.4322,1.4322,1.4322,1.4322,1.4322,1.4322,1.4322,1.4322,1.4322,1.4322,1.4322,1.4322,1.4322,1.4322,1.4322,1.4322,1.4322,1.4322,1.4322,1.4322,1.4322,1.4322,0.7988,0.8088,0.8899,0.9608,1.0219,1.0219,1.0583,1.1194,1.1609,1.2169,1.2708,1.3143,1.3685,1.4124,1.4298,1.4322,1.4322,1.4322,1.4322,1.4322,1.4322,1.4322,1.4322,1.4322,1.4322,1.4322,1.4322,1.4322,1.4322,1.4322,1.4322,1.4322,1.4322,1.4322,1.4322,1.4322,1.4322,1.4322,1.4322,1.4322,1.4322,1.4322,1.4322,1.4322,1.4322,1.4322,1.4322,1.4322,1.4322,1.4322,1.4322,1.4322,1.4322,1.4322,1.4322,1.4322,1.4346,1.4346,1.4346,1.4322,1.4322,1.4322,1.4322,1.4322,1.4322,1.4322,1.4322,1.4322,1.434,1.4334,1.4424,1.4968,1.5557,1.5724,1.6163,1.6838,1.7238,1.758,1.7512,1.7201,1.7138,1.7028,1.6629,1.6173,1.5795,1.5384,1.4795,1.4322,1.4322,1.4322,1.4322,1.4322,1.4322,1.4322,1.4322,1.4322,1.4322,1.4322,1.4322,1.4322,1.4322,1.4322,1.4322,1.4322,1.4322,1.4322,1.4322,1.4322,1.4322,1.4322,1.4322,1.4322,1.4322,1.4322,1.4328,0.7988,0.7988,0.7988,0.8432,0.9093,0.9118,0.9558,1.0219,1.0583,1.1292,1.2266,1.2533,1.3071,1.3733,1.4226,1.4298,1.4322,1.4322,1.4322,1.4322,1.4322,1.4322,1.4322,1.4322,1.4322,1.4322,1.4322,1.4322,1.4322,1.4322,1.4322,1.4322,1.4322,1.4322,1.4322,1.4322,1.4322,1.4322,1.4322,1.4322,1.4322,1.4322,1.4394,1.4418,1.4442,1.4448,1.4448,1.4448,1.437,1.4346,1.4322,1.4322,1.4322,1.4322,1.434,1.4394,1.4418,1.4442,1.4496,1.437,1.4322,1.4322,1.4322,1.4322,1.4322,1.4322,1.4322,1.443,1.4431,1.4437,1.4491,1.5032,1.5291,1.5452,1.5877,1.645,1.6531,1.6748,1.6553,1.6315,1.6416,1.6541,1.573,1.532,1.5224,1.4962,1.4682,1.4322,1.4322,1.4322,1.4322,1.4322,1.4322,1.4322,1.4322,1.4322,1.4322,1.4322,1.4322,1.4322,1.4322,1.4322,1.4322,1.4322,1.4322,1.4322,1.4322,1.4322,1.4322,1.4322,1.4334,1.4352,1.4322,1.431,1.4395,0.7988,0.7988,0.7988,0.8038,0.8137,0.8063,0.8162,0.8506,0.9262,1.0243,1.1268,1.2047,1.2514,1.2926,1.3613,1.4004,1.4124,1.4226,1.4322,1.4322,1.4322,1.4322,1.4322,1.4322,1.4322,1.4322,1.4322,1.4322,1.4322,1.4322,1.4322,1.4322,1.4322,1.4322,1.4322,1.4322,1.4322,1.4322,1.4322,1.4346,1.4376,1.4376,1.4472,1.4568,1.4562,1.4544,1.452,1.452,1.4448,1.4322,1.4322,1.4322,1.4346,1.437,1.4466,1.4664,1.4688,1.4814,1.5,1.4604,1.4497,1.4479,1.4533,1.4497,1.4382,1.437,1.4466,1.4676,1.4716,1.4832,1.4979,1.5127,1.5245,1.5401,1.5836,1.594,1.6058,1.5932,1.5752,1.5615,1.596,1.6086,1.5088,1.4418,1.449,1.4418,1.4346,1.4322,1.4322,1.4322,1.4322,1.4322,1.4322,1.4322,1.4322,1.4322,1.4322,1.4322,1.4322,1.4322,1.4322,1.4322,1.4322,1.4322,1.4322,1.4322,1.4322,1.4322,1.434,1.4383,1.4364,1.4389,1.4352,1.4395,1.4552,0.7988,0.7988,0.7988,0.7988,0.7988,0.7988,0.7988,0.8063,0.8428,0.9143,1.0022,1.0558,1.1116,1.1828,1.2684,1.327,1.339,1.4172,1.4322,1.4322,1.4322,1.4322,1.4322,1.4322,1.4322,1.4322,1.4322,1.4322,1.4322,1.4322,1.4322,1.4322,1.4322,1.4322,1.4322,1.4322,1.4322,1.4346,1.4442,1.4562,1.4568,1.4544,1.4592,1.467,1.4568,1.449,1.449,1.4496,1.4424,1.4346,1.4346,1.4394,1.4514,1.4568,1.4694,1.4922,1.4976,1.5082,1.5344,1.5287,1.5231,1.5075,1.4958,1.4977,1.4864,1.4844,1.4916,1.4985,1.512,1.5257,1.5337,1.5607,1.5733,1.5695,1.587,1.5676,1.5612,1.5306,1.5089,1.4978,1.5134,1.5163,1.4538,1.4316,1.4316,1.4328,1.4334,1.4334,1.4322,1.4322,1.4322,1.4322,1.4322,1.4322,1.4322,1.4322,1.4322,1.4322,1.4322,1.4322,1.4322,1.4322,1.4322,1.4322,1.4322,1.4322,1.431,1.434,1.4437,1.4479,1.4552,1.4582,1.4588,1.4714,1.4908,0.7988,0.7988,0.7988,0.7988,0.7988,0.7988,0.7988,0.7988,0.8013,0.8432,0.9023,0.9414,0.9973,1.0828,1.1658,1.2509,1.2727,1.3342,1.4172,1.4202,1.4322,1.4322,1.4322,1.4298,1.4322,1.4322,1.4322,1.4322,1.4322,1.4322,1.4322,1.4322,1.4322,1.4322,1.4322,1.4322,1.4322,1.4346,1.4418,1.449,1.452,1.4544,1.4586,1.4616,1.4562,1.4466,1.4448,1.4424,1.4418,1.4448,1.449,1.4568,1.4736,1.4861,1.5025,1.5257,1.5593,1.5727,1.5946,1.6242,1.6132,1.5778,1.5739,1.559,1.54,1.5282,1.5405,1.55,1.5615,1.5767,1.5914,1.6163,1.6209,1.6183,1.603,1.5865,1.5612,1.5363,1.498,1.4795,1.4546,1.4425,1.4322,1.4328,1.434,1.4352,1.4364,1.4346,1.4322,1.4304,1.4304,1.4322,1.4322,1.4322,1.4322,1.4322,1.4322,1.4322,1.4322,1.4322,1.4322,1.4322,1.4322,1.4328,1.4334,1.434,1.4328,1.4383,1.4552,1.4714,1.4896,1.4902,1.4865,1.4992,1.5179,0.7988,0.7988,0.7988,0.7988,0.7988,0.7988,0.7988,0.7988,0.7988,0.8013,0.8113,0.9118,0.946,0.9731,1.0656,1.1531,1.2237,1.2514,1.3119,1.3752,1.383,1.4004,1.413,1.4202,1.4298,1.4322,1.4322,1.4322,1.4322,1.4322,1.4322,1.4322,1.4322,1.4322,1.4322,1.4322,1.4322,1.4322,1.4418,1.4466,1.449,1.4442,1.4538,1.4616,1.4664,1.464,1.464,1.4664,1.4688,1.4712,1.4712,1.4885,1.5005,1.5107,1.5441,1.5874,1.6351,1.656,1.666,1.6924,1.6951,1.6598,1.6339,1.615,1.5952,1.5808,1.5882,1.6042,1.6178,1.6386,1.66,1.6659,1.6734,1.6631,1.6496,1.6271,1.6002,1.5655,1.5232,1.4912,1.4588,1.4425,1.4413,1.4407,1.4497,1.4612,1.4624,1.4503,1.4455,1.4304,1.4304,1.4322,1.4322,1.4322,1.4322,1.4304,1.4322,1.4322,1.4322,1.4322,1.4322,1.4322,1.4322,1.4328,1.4346,1.4352,1.4437,1.4576,1.472,1.4913,1.5136,1.5179,1.5137,1.5215,1.536,0.7988,0.7988,0.7988,0.7988,0.7988,0.7988,0.7988,0.7988,0.7988,0.7988,0.8038,0.8308,0.8577,0.8552,0.9583,1.0194,1.073,1.1219,1.1682,1.229,1.3047,1.3119,1.3438,1.3902,1.4178,1.4322,1.4322,1.4322,1.4322,1.4322,1.4322,1.4322,1.4322,1.4322,1.4322,1.4322,1.4322,1.4346,1.4442,1.449,1.4514,1.452,1.4616,1.4664,1.4712,1.4712,1.4736,1.4885,1.4939,1.4987,1.4981,1.51,1.5356,1.5417,1.5623,1.6164,1.6673,1.7053,1.7125,1.7321,1.7414,1.7295,1.7126,1.6888,1.6645,1.643,1.6435,1.6555,1.6654,1.6831,1.6982,1.7095,1.7153,1.7088,1.6957,1.6768,1.6509,1.6163,1.5714,1.5256,1.4917,1.4642,1.4618,1.4606,1.4708,1.4871,1.4902,1.4763,1.4612,1.4479,1.431,1.431,1.4358,1.4377,1.4322,1.4316,1.4304,1.4322,1.4322,1.4322,1.4322,1.4322,1.4322,1.4352,1.4437,1.4521,1.4612,1.4756,1.4979,1.5178,1.5403,1.5409,1.5427,1.5493,1.5553,0.7988,0.7988,0.7988,0.7988,0.7988,0.7988,0.7988,0.7988,0.7988,0.7988,0.7988,0.8013,0.7988,0.8137,0.8726,0.9242,0.978,1.0293,1.0828,1.1609,1.212,1.2606,1.3071,1.3637,1.4202,1.4298,1.4274,1.4322,1.4274,1.4298,1.4322,1.4322,1.4322,1.4322,1.4346,1.44,1.4394,1.4394,1.4442,1.452,1.4568,1.4568,1.4592,1.4694,1.4712,1.4772,1.4874,1.5078,1.515,1.525,1.5267,1.5363,1.5673,1.5827,1.6148,1.6673,1.7066,1.7307,1.7374,1.7474,1.7582,1.7615,1.7608,1.7402,1.7155,1.695,1.6983,1.7082,1.7134,1.722,1.7361,1.7495,1.7528,1.7582,1.745,1.7292,1.7003,1.6723,1.6259,1.5749,1.536,1.5057,1.4915,1.4896,1.4938,1.5113,1.5167,1.5077,1.4902,1.4702,1.4479,1.4346,1.4407,1.4473,1.4413,1.4364,1.437,1.4352,1.4322,1.4322,1.4322,1.4334,1.437,1.4473,1.4575,1.4684,1.4841,1.5077,1.53,1.5469,1.559,1.5632,1.5662,1.571,1.5777,0.7988,0.7988,0.7988,0.7988,0.7988,0.7988,0.7988,0.7988,0.7988,0.7988,0.7988,0.7988,0.7988,0.8038,0.8233,0.8651,0.9044,0.9439,0.983,1.0979,1.156,1.195,1.2344,1.3396,1.3396,1.3811,1.3932,1.3565,1.4052,1.4196,1.4322,1.4322,1.4322,1.4322,1.4346,1.4544,1.4544,1.4466,1.4496,1.4544,1.4448,1.4418,1.4472,1.4724,1.4839,1.496,1.514,1.526,1.5332,1.553,1.5662,1.5743,1.6011,1.637,1.6814,1.7086,1.7361,1.7488,1.7535,1.7588,1.7595,1.7615,1.7608,1.7561,1.7408,1.7294,1.7314,1.7354,1.7374,1.7388,1.7495,1.7541,1.7588,1.7615,1.7536,1.743,1.7266,1.6997,1.6613,1.6118,1.5717,1.541,1.5289,1.5251,1.524,1.539,1.5445,1.5378,1.5209,1.4985,1.4793,1.454,1.4594,1.4672,1.4503,1.4485,1.4473,1.4437,1.4364,1.4322,1.4322,1.4364,1.4449,1.4648,1.4846,1.4968,1.5113,1.5348,1.5517,1.5596,1.5716,1.5831,1.5885,1.5879,1.5879,0.7988,0.7988,0.7988,0.7988,0.7988,0.7988,0.7988,0.7988,0.7988,0.7988,0.7988,0.7988,0.7988,0.7988,0.7988,0.8283,0.8382,0.863,0.8581,0.9242,1.0096,1.0803,1.0705,1.1804,1.2072,1.1931,1.2028,1.2659,1.327,1.383,1.4322,1.4322,1.4322,1.4322,1.4322,1.4568,1.467,1.4568,1.4807,1.4802,1.4731,1.4826,1.4987,1.5129,1.5289,1.5557,1.5805,1.6072,1.6242,1.6401,1.6426,1.6457,1.6526,1.6886,1.7073,1.7246,1.7461,1.7575,1.7615,1.7615,1.7615,1.7615,1.7615,1.7615,1.7582,1.7528,1.7488,1.7522,1.7542,1.7568,1.7575,1.7602,1.7615,1.7615,1.7615,1.7562,1.7483,1.7206,1.6925,1.6516,1.6079,1.5841,1.5719,1.5619,1.5618,1.5656,1.5741,1.5704,1.5523,1.5342,1.5234,1.5016,1.4944,1.4932,1.4751,1.469,1.4714,1.457,1.4455,1.4389,1.4364,1.4503,1.4702,1.4956,1.5161,1.5252,1.5384,1.5614,1.5747,1.5759,1.5777,1.5867,1.5885,1.5885,1.5885,0.7988,0.7988,0.7988,0.7988,0.7988,0.7988,0.7988,0.7988,0.7988,0.7988,0.7988,0.7988,0.7988,0.7988,0.7988,0.7988,0.7988,0.8013,0.8162,0.8382,0.8924,0.9583,1.0047,1.0558,1.117,1.1248,1.1755,1.2368,1.2732,1.3685,1.4322,1.4322,1.4322,1.4328,1.437,1.4646,1.4814,1.4712,1.5161,1.5284,1.5186,1.5297,1.5375,1.5531,1.5802,1.6099,1.632,1.6559,1.661,1.6675,1.6642,1.6794,1.6872,1.7085,1.7259,1.7367,1.7515,1.7615,1.7615,1.7615,1.7615,1.7615,1.7615,1.7615,1.7615,1.7568,1.7568,1.7595,1.7595,1.7595,1.7595,1.7608,1.7615,1.7615,1.7615,1.7589,1.7562,1.743,1.7187,1.6938,1.654,1.6246,1.6068,1.5812,1.5812,1.5791,1.5867,1.5873,1.5728,1.562,1.5529,1.5451,1.5342,1.5173,1.4968,1.4962,1.5034,1.4841,1.46,1.4684,1.4757,1.4829,1.4949,1.5215,1.5403,1.5499,1.5656,1.5827,1.5876,1.5837,1.5849,1.5885,1.5885,1.5885,1.5885,0.7988,0.7988,0.7988,0.7988,0.7988,0.7988,0.7988,0.7988,0.7988,0.7988,0.7988,0.7988,0.7988,0.7988,0.7988,0.7988,0.7988,0.7988,0.7988,0.8209,0.8874,0.9044,0.946,1.0121,1.0268,1.073,1.1292,1.1853,1.2339,1.3318,1.3956,1.4202,1.4352,1.4364,1.452,1.4802,1.5096,1.5183,1.5475,1.5811,1.582,1.5741,1.5808,1.5993,1.6263,1.6527,1.6692,1.6807,1.6814,1.6854,1.6921,1.7034,1.7153,1.7306,1.7374,1.7515,1.7568,1.7615,1.7615,1.7615,1.7615,1.7615,1.7615,1.7615,1.7615,1.7615,1.7615,1.7615,1.7615,1.7615,1.7615,1.7615,1.7615,1.7615,1.7615,1.7615,1.7589,1.7582,1.7424,1.7206,1.6909,1.6585,1.6346,1.6086,1.5933,1.5912,1.5885,1.5885,1.5861,1.5801,1.5722,1.5674,1.5614,1.5421,1.5209,1.5203,1.5276,1.5083,1.489,1.504,1.5149,1.5136,1.5252,1.5463,1.5626,1.5686,1.5747,1.5849,1.5912,1.5885,1.5885,1.5885,1.5885,1.5885,1.5885,0.7988,0.7988,0.7988,0.7988,0.7988,0.7988,0.7988,0.7988,0.7988,0.7988,0.7988,0.7988,0.7988,0.7988,0.7988,0.7988,0.7988,0.7988,0.7988,0.8137,0.8382,0.8382,0.8531,0.9019,0.8676,0.9213,1.0022,1.0656,1.1609,1.2562,1.3487,1.4178,1.4568,1.472,1.4966,1.5225,1.5447,1.5575,1.5831,1.6171,1.6248,1.6243,1.6341,1.6552,1.6857,1.6989,1.714,1.7301,1.7408,1.7441,1.7394,1.7421,1.7441,1.7468,1.7535,1.7561,1.7615,1.7615,1.7615,1.7615,1.7615,1.7615,1.7615,1.7615,1.7615,1.7615,1.7615,1.7615,1.7615,1.7615,1.7615,1.7615,1.7615,1.7615,1.7615,1.7589,1.7562,1.7536,1.7477,1.7213,1.6942,1.6703,1.6544,1.6252,1.5912,1.5885,1.5885,1.5885,1.5885,1.5885,1.5885,1.5849,1.5813,1.568,1.5481,1.5433,1.5433,1.5258,1.5179,1.53,1.5384,1.5421,1.5541,1.5674,1.5785,1.5819,1.5879,1.5885,1.5885,1.5885,1.5885,1.5885,1.5885,1.5885,1.5885]},{"header":{"parameterUnit":"m.s-1","parameterCategory":1,"la1":31.0,"la2":29.5877,"lo1":-88.7671,"lo2":-86.6584,"dy":0.0162,"dx":0.0185,"nx":115,"ny":88,"refTime":"2024-09-20T06:00:00:Z","depth":0,"parameterNumber":3,"parameterNumberName":"V-component_of_WINDS"},"data":[0.0,0.0,0.0,0.0,0.0,0.0,0.0,0.0,0.0,0.0,0.0,0.0,0.0,0.0,0.0,0.0,0.0,0.0,0.0,0.0,0.0,0.0,0.0,0.0,0.0,0.0,0.0,0.0,0.0,0.0,0.0,0.0,0.0,0.0,0.0,0.0,0.0,0.0,0.0,0.0,0.0,0.0,0.0,0.0,0.0,0.0,0.0,0.0,0.0,0.0,0.0,0.0,0.0,0.0,0.0,0.0,0.0,0.0,0.0,0.0,0.0,0.0,0.0,0.0,0.0,0.0,0.0,0.0,0.0,0.0,0.0,0.0,0.0,0.0,0.0,0.0,0.0,0.0,0.0,0.0,0.0,0.0,0.0,0.0,0.0,0.0,0.0,0.0,0.0,0.0,0.0,0.0,0.0,0.0,0.0,0.0,0.0,0.0,0.0,0.0,0.0,0.0,0.0,0.0,0.0,0.0,0.0,0.0,0.0,0.0,0.0,0.0,0.0,0.0,0.0,0.0,0.0,0.0,0.0,0.0,0.0,0.0,0.0,0.0,0.0,0.0,0.0,0.0,0.0,0.0,0.0,0.0,0.0,0.0,0.0,0.0,0.0,0.0,0.0,0.0,0.0,0.0,0.0,0.0,0.0,0.0,0.0,0.0,0.0,0.0,0.0,0.0,0.0,0.0,0.0,0.0,0.0,0.0,0.0,0.0,0.0,0.0,0.0,0.0,0.0,0.0,0.0,0.0,0.0,0.0,0.0,0.0,0.0,0.0,0.0,0.0,0.0,0.0,0.0,0.0,0.0,0.0,0.0,0.0,0.0,0.0,0.0,0.0,0.0,0.0,0.0,0.0,0.0,0.0,0.0,0.0,0.0,0.0,0.0,0.0,0.0,0.0,0.0,0.0,0.0,0.0,0.0,0.0,0.0,0.0,0.0,0.0,0.0,0.0,0.0,0.0,0.0,0.0,0.0,0.0,0.0,0.0,0.0,0.0,0.0,0.0,0.0,0.0,0.0,0.0,0.0,0.0,0.0,0.0,0.0,0.0,0.0,0.0,0.0,0.0,0.0,0.0,0.0,0.0,0.0,0.0,0.0,0.0,0.0,0.0,0.0,0.0,0.0,0.0,0.0,0.0,0.0,0.0,0.0,0.0,0.0,0.0,0.0,0.0,0.0,0.0,0.0,0.0,0.0,0.0,0.0,0.0,0.0,0.0,0.0,0.0,0.0,0.0,0.0,0.0,0.0,0.0,0.0,0.0,0.0,0.0,0.0,0.0,0.0,0.0,0.0,0.0,0.0,0.0,0.0,0.0,0.0,0.0,0.0,0.0,0.0,0.0,0.0,0.0,0.0,0.0,0.0,0.0,0.0,0.0,0.0,0.0,0.0,0.0,0.0,0.0,0.0,0.0,0.0,0.0,0.0,0.0,0.0,0.0,0.0,0.0,0.0,0.0,0.0,0.0,0.0,0.0,0.0,0.0,0.0,0.0,0.0,0.0,0.0,0.0,0.0,0.0,0.0,0.0,0.0,0.0,0.0,0.0,0.0,0.0,0.0,0.0,0.0,0.0,0.0,0.0,0.0,0.0,0.0,0.0,0.0,0.0,0.0,0.0,0.0,0.0,0.0,0.0,0.0,0.0,0.0,0.0,0.0,0.0,0.0,0.0,0.0,0.0,0.0,0.0,0.0,0.0,0.0,0.0,0.0,0.0,0.0,0.0,0.0,0.0,0.0,0.0,0.0,0.0,0.0,0.0,0.0,0.0,0.0,0.0,0.0,0.0,0.0,0.0,0.0,0.0,0.0,0.0,0.0,0.0,0.0,0.0,0.0,0.0,0.0,0.0,0.0,0.0,0.0,0.0,0.0,0.0,0.0,0.0,0.0,0.0,0.0,0.0,0.0,0.0,0.0,0.0,0.0,0.0,0.0,0.0,0.0,0.0,0.0,0.0,0.0,0.0,0.0,0.0,0.0,0.0,0.0,0.0,0.0,0.0,0.0,0.0,0.0,0.0,0.0,0.0,0.0,0.0,0.0,0.0,0.0,0.0,0.0,0.0,0.0,0.0,0.0,0.0,0.0,0.0,0.0,0.0,0.0,0.0,0.0,0.0,0.0,0.0,0.0,0.0,0.0,0.0,0.0,0.0,0.0,0.0,0.0,0.0,0.0,0.0,0.0,0.0,0.0,0.0,0.0,0.0,0.0,0.0,0.0,0.0,0.0,0.0,0.0,0.0,0.0,0.0,0.0,0.0,0.0,0.0,0.0,0.0,0.0,0.0,0.0,0.0,0.0,0.0,0.0,0.0,0.0,0.0,0.0,0.0,0.0,0.0,0.0,0.0,0.0,0.0,0.0,0.0,0.0,0.0,0.0,0.0,0.0,0.0,0.0,0.0,0.0,0.0,0.0,0.0,0.0,0.0,0.0,0.0,0.0,0.0,0.0,0.0,0.0,0.0,0.0,0.0,0.0,0.0,0.0,0.0,0.0,0.0,0.0,0.0,0.0,0.0,0.0,0.0,0.0,0.0,0.0,0.0,0.0,0.0,0.0,0.0,0.0,0.0,0.0,0.0,0.0,0.0,0.0,0.0,0.0,0.0,0.0,0.0,0.0,0.0,0.0,0.0,0.0,0.0,0.0,0.0,0.0,0.0,0.0,0.0,0.0,0.0,0.0,0.0,0.0,0.0,0.0,0.0,0.0,0.0,0.0,0.0,0.0,0.0,0.0,0.0,0.0,0.0,0.0,0.0,0.0,0.0,0.0,0.0,0.0,0.0,0.0,0.0,0.0,0.0,0.0,0.0,0.0,0.0,0.0,0.0,0.0,0.0,0.0,0.0,0.0,0.0,0.0,0.0,0.0,0.0,0.0,0.0,0.0,0.0,0.0,0.0,0.0,0.0,0.0,0.0,0.0,0.0,0.0,0.0,0.0,0.0,0.0,0.0,0.0,0.0,0.0,0.0,0.0,0.0,0.0,0.0,0.0,0.0,0.0,0.0,0.0,0.0,0.0,0.0,0.0,0.0,0.0,0.0,0.0,0.0,0.0,0.0,0.0,0.0,0.0,0.0,0.0,0.0,0.0,0.0,0.0,0.0,0.0,0.0,0.0,0.0,0.0,0.0,0.0,0.0,0.0,0.0,0.0,0.0,0.0,0.0,0.0,0.0,0.0,0.0,0.0,0.0,0.0,0.0,0.0,0.0,0.0,0.0,0.0,0.0,0.0,0.0,0.0,0.0,0.0,0.0,0.0,0.0,0.0,0.0,0.0,0.0,0.0,0.0,0.0,0.0,0.0,0.0,0.0,0.0,0.0,0.0,0.0,0.0,0.0,0.0,0.0,0.0,0.0,0.0,0.0,0.0,0.0,0.0,0.0,0.0,0.0,0.0,0.0,0.0,0.0,0.0,0.0,0.0,0.0,0.0,0.0,0.0,0.0,0.0,0.0,0.0,0.0,0.0,0.0,0.0,0.0,0.0,0.0,0.0,0.0,0.0,0.0,0.0,0.0,0.0,0.0,0.0,0.0,0.0,0.0,0.0,0.0,0.0,0.0,0.0,0.0,0.0,0.0,0.0,0.0,0.0,0.0,0.0,0.0,0.0,0.0,0.0,0.0,0.0,0.0,0.0,0.0,0.0,0.0,0.0,0.0,0.0,0.0,0.0,0.0,0.0,0.0,0.0,0.0,0.0,0.0,0.0,0.0,0.0,0.0,0.0,0.0,0.0,0.0,0.0,0.0,0.0,0.0,0.0,0.0,0.0,0.0,0.0,0.0,0.0,0.0,0.0,0.0,0.0,0.0,0.0,0.0,0.0,0.0,0.0,0.0,0.0,0.0,0.0,0.0,0.0,0.0,0.0,0.0,0.0,0.0,0.0,0.0,0.0,0.0,0.0,0.0,0.0,0.0,0.0,0.0,0.0,0.0,0.0,0.0,0.0,0.0,0.0,0.0,0.0,0.0,0.0,0.0,0.0,0.0,0.0,0.0,0.0,0.0,0.0,0.0,0.0,0.0,0.0,0.0,0.0,0.0,0.0,0.0,0.0,0.0,0.0,0.0,0.0,0.0,0.0,0.0,0.0,0.0,0.0,0.0,0.0,0.0,0.0,0.0,0.0,0.0,0.0,0.0,0.0,0.0,0.0,0.0,0.0,0.0,0.0,0.0,0.0,0.0,0.0,0.0,0.0,0.0,0.0,0.0,0.0,0.0,0.0,0.0,0.0,0.0,0.0,0.0,0.0,0.0,0.0,0.0,0.0,0.0,0.0,0.0,0.0,0.0,0.0,1.6767,0.0,0.0,0.0,0.0,0.0,0.0,0.0,0.0,0.0,0.0,0.0,0.0,0.0,0.0,0.0,0.0,0.0,0.0,0.0,0.0,0.0,0.0,0.0,0.0,0.0,0.0,0.0,0.0,0.0,0.0,0.0,0.0,0.0,0.0,0.0,0.0,0.0,0.0,0.0,0.0,0.0,0.0,0.0,0.0,0.0,0.0,0.0,0.0,0.0,0.0,0.0,0.0,0.0,0.0,0.0,0.0,0.0,0.0,0.0,0.0,0.0,0.0,0.0,0.0,0.0,0.0,0.0,0.0,0.0,0.0,0.0,0.0,0.0,0.0,0.0,0.0,0.0,0.0,0.0,0.0,0.0,0.0,0.0,0.0,0.0,0.0,0.0,0.0,0.0,0.0,0.0,0.0,0.0,0.0,0.0,0.0,0.0,0.0,0.0,0.0,0.0,0.0,0.0,0.0,0.0,0.0,0.0,0.0,0.0,0.0,1.8538,1.7834,1.8194,1.7862,1.6744,0.0,0.0,0.0,0.0,0.0,0.0,0.0,0.0,0.0,0.0,0.0,0.0,0.0,0.0,0.0,0.0,0.0,0.0,0.0,0.0,0.0,0.0,0.0,0.0,0.0,0.0,0.0,0.0,0.0,0.0,0.0,0.0,0.0,0.0,0.0,0.0,0.0,0.0,0.0,0.0,0.0,0.0,0.0,0.0,0.0,0.0,0.0,0.0,0.0,0.0,0.0,0.0,0.0,0.0,0.0,0.0,0.0,0.0,0.0,0.0,0.0,0.0,0.0,0.0,0.0,0.0,0.0,0.0,0.0,0.0,0.0,0.0,0.0,0.0,0.0,0.0,0.0,0.0,0.0,0.0,0.0,0.0,0.0,0.0,0.0,0.0,0.0,0.0,0.0,0.0,0.0,0.0,0.0,0.0,0.0,0.0,0.0,0.0,0.0,0.0,0.0,0.0,0.0,0.0,0.0,0.0,0.0,0.0,0.0,0.0,0.0,0.0,1.8381,1.7986,1.6541,0.0,0.0,0.0,0.0,0.0,0.0,0.0,0.0,0.0,0.0,0.0,0.0,0.0,0.0,0.0,0.0,0.0,0.0,0.0,0.0,0.0,0.0,0.0,0.0,0.0,0.0,0.0,0.0,0.0,0.0,0.0,0.0,0.0,0.0,0.0,0.0,0.0,0.0,0.0,0.0,0.0,0.0,0.0,0.0,0.0,0.0,0.0,0.0,0.0,0.0,0.0,0.0,0.0,0.0,0.0,0.0,0.0,0.0,0.0,0.0,0.0,0.0,0.0,0.0,0.0,0.0,0.0,0.0,0.0,0.0,0.0,0.0,0.0,0.0,0.0,0.0,0.0,0.0,0.0,0.0,0.0,0.0,0.0,0.0,0.0,0.0,0.0,0.0,0.0,0.0,0.0,0.0,0.0,0.0,0.0,0.0,0.0,0.0,0.0,0.0,0.0,0.0,0.0,0.0,0.0,0.0,0.0,0.0,0.0,0.0,1.9405,1.8051,1.799,0.0,1.5847,0.0,0.0,0.0,0.0,0.0,0.0,0.0,0.0,0.0,0.0,0.0,0.0,0.0,0.0,0.0,0.0,0.0,0.0,0.0,0.0,0.0,0.0,0.0,0.0,0.0,0.0,0.0,0.0,0.0,0.0,0.0,0.0,0.0,0.0,0.0,0.0,0.0,0.0,0.0,0.0,0.0,0.0,0.0,0.0,0.0,0.0,0.0,0.0,0.0,0.0,0.0,0.0,0.0,0.0,0.0,0.0,0.0,0.0,0.0,0.0,0.0,0.0,0.0,0.0,0.0,0.0,0.0,0.0,0.0,0.0,0.0,0.0,0.0,0.0,0.0,0.0,0.0,0.0,0.0,0.0,0.0,0.0,0.0,0.0,0.0,0.0,0.0,0.0,0.0,0.0,0.0,0.0,0.0,0.0,0.0,0.0,0.0,0.0,0.0,0.0,0.0,0.0,0.0,0.0,0.0,0.0,0.0,0.0,0.0,0.0,1.9502,1.8028,1.7075,1.6516,0.0,0.0,0.0,0.0,0.0,0.0,0.0,0.0,0.0,0.0,0.0,0.0,0.0,0.0,0.0,0.0,0.0,0.0,0.0,0.0,0.0,0.0,0.0,0.0,0.0,0.0,0.0,0.0,0.0,0.0,0.0,0.0,0.0,0.0,0.0,0.0,0.0,0.0,0.0,0.0,0.0,0.0,0.0,0.0,0.0,0.0,0.0,0.0,0.0,0.0,0.0,0.0,0.0,0.0,0.0,0.0,0.0,0.0,0.0,0.0,0.0,0.0,0.0,0.0,0.0,0.0,0.0,0.0,0.0,0.0,0.0,0.0,0.0,0.0,0.0,0.0,0.0,0.0,0.0,0.0,0.0,0.0,0.0,0.0,0.0,0.0,0.0,0.0,0.0,0.0,0.0,0.0,0.0,0.0,0.0,0.0,0.0,0.0,0.0,0.0,0.0,0.0,0.0,0.0,0.0,0.0,0.0,0.0,0.0,0.0,2.0245,0.0,1.7787,1.6848,1.6306,1.6186,0.0,0.0,0.0,0.0,0.0,0.0,0.0,0.0,0.0,0.0,0.0,0.0,0.0,0.0,0.0,0.0,0.0,0.0,0.0,0.0,0.0,0.0,0.0,0.0,0.0,0.0,0.0,0.0,0.0,0.0,0.0,0.0,0.0,0.0,0.0,0.0,0.0,0.0,0.0,0.0,0.0,0.0,0.0,0.0,0.0,0.0,0.0,0.0,0.0,0.0,0.0,0.0,0.0,0.0,0.0,0.0,0.0,0.0,0.0,0.0,0.0,0.0,0.0,0.0,0.0,0.0,0.0,0.0,0.0,0.0,0.0,0.0,0.0,0.0,0.0,0.0,0.0,0.0,0.0,0.0,0.0,0.0,0.0,0.0,0.0,0.0,0.0,0.0,0.0,0.0,0.0,0.0,0.0,0.0,0.0,0.0,0.0,0.0,0.0,0.0,0.0,0.0,0.0,0.0,0.0,0.0,0.0,0.0,0.0,2.0335,1.9287,1.7098,1.7628,1.6973,0.0,0.0,0.0,0.0,0.0,0.0,0.0,0.0,0.0,0.0,0.0,0.0,0.0,0.0,0.0,0.0,0.0,0.0,0.0,0.0,0.0,0.0,0.0,0.0,0.0,0.0,0.0,0.0,0.0,0.0,0.0,0.0,0.0,0.0,0.0,0.0,0.0,0.0,0.0,0.0,0.0,0.0,0.0,0.0,0.0,0.0,0.0,0.0,0.0,0.0,0.0,0.0,0.0,0.0,0.0,0.0,0.0,0.0,0.0,0.0,0.0,0.0,0.0,0.0,0.0,0.0,0.0,0.0,0.0,0.0,0.0,0.0,0.0,0.0,0.0,0.0,0.0,0.0,0.0,0.0,0.0,0.0,0.0,0.0,0.0,0.0,0.0,0.0,0.0,0.0,0.0,0.0,0.0,0.0,0.0,0.0,0.0,0.0,0.0,0.0,0.0,0.0,0.0,0.0,0.0,0.0,0.0,0.0,0.0,1.904,1.8976,1.8603,1.7738,1.702,1.624,0.0,0.0,0.0,0.0,0.0,0.0,0.0,0.0,0.0,0.0,0.0,0.0,0.0,0.0,0.0,0.0,0.0,0.0,0.0,0.0,0.0,0.0,0.0,0.0,0.0,0.0,0.0,0.0,0.0,0.0,0.0,0.0,0.0,0.0,0.0,0.0,0.0,0.0,0.0,0.0,0.0,0.0,0.0,0.0,0.0,0.0,0.0,0.0,0.0,0.0,0.0,0.0,0.0,0.0,0.0,0.0,0.0,0.0,0.0,0.0,0.0,0.0,0.0,0.0,0.0,0.0,0.0,0.0,0.0,0.0,0.0,0.0,0.0,0.0,0.0,0.0,0.0,0.0,0.0,0.0,0.0,0.0,0.0,0.0,0.0,0.0,0.0,0.0,0.0,0.0,0.0,0.0,0.0,0.0,0.0,0.0,0.0,0.0,0.0,0.0,0.0,0.0,0.0,0.0,0.0,0.0,0.0,0.0,0.0,1.8269,0.0,1.8074,0.0,1.6775,1.5965,0.0,0.0,0.0,0.0,0.0,0.0,0.0,0.0,0.0,0.0,0.0,0.0,0.0,0.0,0.0,0.0,0.0,0.0,0.0,0.0,0.0,0.0,0.0,0.0,0.0,0.0,0.0,0.0,0.0,0.0,0.0,0.0,0.0,0.0,0.0,0.0,0.0,0.0,0.0,0.0,0.0,0.0,0.0,0.0,0.0,0.0,0.0,0.0,0.0,0.0,0.0,0.0,0.0,0.0,0.0,0.0,0.0,0.0,0.0,0.0,0.0,0.0,0.0,0.0,0.0,0.0,0.0,0.0,0.0,0.0,0.0,0.0,0.0,0.0,0.0,0.0,0.0,0.0,0.0,0.0,0.0,0.0,0.0,0.0,0.0,0.0,0.0,0.0,0.0,0.0,0.0,0.0,0.0,0.0,0.0,0.0,0.0,0.0,0.0,0.0,0.0,0.0,0.0,0.0,0.0,0.0,0.0,0.0,1.9648,1.824,1.8211,1.7924,1.707,1.704,1.6326,0.0,0.0,0.0,0.0,0.0,0.0,0.0,0.0,0.0,0.0,0.0,0.0,0.0,0.0,0.0,0.0,0.0,0.0,0.0,0.0,0.0,0.0,0.0,0.0,0.0,0.0,0.0,0.0,0.0,0.0,0.0,0.0,0.0,0.0,0.0,0.0,0.0,0.0,0.0,0.0,0.0,0.0,0.0,0.0,0.0,0.0,0.0,0.0,0.0,0.0,0.0,0.0,0.0,0.0,0.0,0.0,0.0,0.0,0.0,0.0,0.0,0.0,0.0,0.0,0.0,0.0,0.0,0.0,0.0,0.0,0.0,0.0,0.0,0.0,0.0,0.0,0.0,0.0,0.0,0.0,0.0,0.0,0.0,0.0,0.0,0.0,0.0,0.0,0.0,0.0,0.0,0.0,0.0,0.0,0.0,0.0,0.0,0.0,0.0,0.0,0.0,0.0,0.0,0.0,0.0,0.0,0.0,0.0,0.0,1.6835,1.8289,1.8968,1.8713,1.7671,1.6869,0.0,0.0,0.0,0.0,0.0,0.0,0.0,0.0,0.0,0.0,0.0,0.0,0.0,0.0,0.0,0.0,0.0,0.0,0.0,0.0,0.0,0.0,0.0,0.0,0.0,0.0,0.0,0.0,0.0,0.0,0.0,0.0,0.0,0.0,0.0,0.0,0.0,0.0,0.0,0.0,0.0,0.0,0.0,0.0,0.0,0.0,0.0,0.0,0.0,0.0,0.0,0.0,0.0,0.0,0.0,0.0,0.0,0.0,0.0,0.0,0.0,0.0,0.0,0.0,0.0,0.0,0.0,0.0,0.0,0.0,0.0,0.0,0.0,0.0,0.0,0.0,0.0,0.0,0.0,0.0,0.0,0.0,0.0,0.0,0.0,0.0,0.0,0.0,0.0,0.0,0.0,0.0,0.0,0.0,0.0,0.0,0.0,0.0,0.0,0.0,0.0,0.0,0.0,0.0,0.0,0.0,0.0,0.0,0.0,1.7551,1.9063,1.9947,1.9991,1.8475,1.7597,1.7495,0.0,0.0,0.0,0.0,0.0,0.0,0.0,0.0,0.0,0.0,0.0,0.0,0.0,0.0,0.0,0.0,0.0,0.0,0.0,0.0,0.0,0.0,0.0,0.0,0.0,0.0,0.0,0.0,0.0,0.0,0.0,0.0,0.0,0.0,0.0,0.0,0.0,0.0,0.0,0.0,0.0,0.0,0.0,0.0,0.0,0.0,0.0,0.0,0.0,0.0,0.0,0.0,0.0,0.0,0.0,0.0,0.0,0.0,0.0,0.0,0.0,0.0,0.0,0.0,0.0,0.0,0.0,0.0,0.0,0.0,0.0,0.0,0.0,0.0,0.0,0.0,0.0,0.0,0.0,0.0,0.0,0.0,0.0,0.0,0.0,0.0,0.0,0.0,0.0,0.0,0.0,0.0,0.0,0.0,0.0,0.0,0.0,0.0,0.0,0.0,0.0,0.0,0.0,0.0,0.0,0.0,0.0,0.0,1.9826,2.0433,2.0795,2.0842,1.93,1.847,0.0,0.0,0.0,0.0,0.0,0.0,0.0,0.0,0.0,0.0,0.0,0.0,0.0,0.0,0.0,0.0,0.0,0.0,0.0,0.0,0.0,0.0,0.0,0.0,0.0,0.0,0.0,0.0,0.0,0.0,0.0,0.0,0.0,0.0,0.0,0.0,0.0,0.0,0.0,0.0,0.0,0.0,0.0,0.0,0.0,0.0,0.0,0.0,0.0,0.0,0.0,0.0,0.0,0.0,0.0,0.0,0.0,0.0,0.0,0.0,0.0,0.0,0.0,0.0,0.0,0.0,0.0,0.0,0.0,0.0,0.0,0.0,0.0,0.0,0.0,0.0,0.0,0.0,0.0,0.0,0.0,0.0,0.0,0.0,0.0,0.0,0.0,0.0,0.0,0.0,0.0,0.0,0.0,0.0,0.0,0.0,0.0,0.0,0.0,0.0,0.0,0.0,0.0,0.0,0.0,0.0,0.0,0.0,0.0,2.1481,2.2212,2.2312,2.1751,2.0246,1.9371,0.0,0.0,0.0,0.0,0.0,0.0,0.0,0.0,0.0,0.0,0.0,0.0,0.0,0.0,0.0,0.0,0.0,0.0,0.0,0.0,0.0,0.0,0.0,0.0,0.0,0.0,0.0,0.0,0.0,0.0,0.0,0.0,0.0,0.0,0.0,0.0,0.0,0.0,0.0,0.0,0.0,0.0,0.0,0.0,0.0,0.0,0.0,0.0,0.0,0.0,0.0,0.0,0.0,0.0,0.0,0.0,0.0,0.0,0.0,0.0,0.0,0.0,0.0,0.0,0.0,0.0,0.0,0.0,0.0,0.0,0.0,0.0,0.0,0.0,0.0,0.0,0.0,0.0,0.0,0.0,0.0,0.0,0.0,0.0,0.0,0.0,0.0,0.0,0.0,0.0,0.0,0.0,0.0,0.0,0.0,0.0,0.0,0.0,0.0,0.0,0.0,0.0,0.0,0.0,0.0,0.0,0.0,0.0,2.1162,2.25,2.2976,2.3041,2.2696,2.1474,2.0571,0.0,0.0,0.0,0.0,0.0,0.0,0.0,0.0,0.0,0.0,0.0,0.0,0.0,0.0,0.0,0.0,0.0,0.0,0.0,0.0,0.0,0.0,0.0,0.0,0.0,0.0,0.0,0.0,0.0,0.0,0.0,0.0,0.0,0.0,0.0,0.0,0.0,0.0,0.0,0.0,0.0,0.0,0.0,0.0,0.0,0.0,0.0,0.0,0.0,0.0,0.0,0.0,0.0,0.0,0.0,0.0,0.0,0.0,0.0,0.0,0.0,0.0,0.0,0.0,0.0,0.0,0.0,0.0,0.0,0.0,0.0,0.0,0.0,0.0,0.0,0.0,0.0,0.0,0.0,0.0,0.0,0.0,0.0,0.0,0.0,0.0,0.0,0.0,0.0,0.0,0.0,0.0,0.0,0.0,0.0,0.0,0.0,0.0,0.0,0.0,0.0,0.0,0.0,0.0,0.0,0.0,0.0,0.0,2.1392,2.3048,2.3138,2.3241,2.3452,2.2654,2.1762,0.0,0.0,0.0,0.0,0.0,0.0,0.0,0.0,0.0,0.0,0.0,0.0,0.0,0.0,0.0,0.0,0.0,0.0,0.0,0.0,0.0,0.0,0.0,0.0,0.0,0.0,0.0,0.0,0.0,0.0,0.0,0.0,0.0,0.0,0.0,0.0,0.0,0.0,0.0,0.0,0.0,0.0,0.0,0.0,0.0,0.0,0.0,0.0,0.0,0.0,0.0,0.0,0.0,0.0,0.0,0.0,0.0,0.0,0.0,0.0,0.0,0.0,0.0,0.0,0.0,0.0,0.0,0.0,0.0,0.0,0.0,0.0,0.0,0.0,0.0,0.0,0.0,0.0,0.0,0.0,0.0,0.0,0.0,0.0,0.0,0.0,0.0,0.0,0.0,0.0,0.0,0.0,0.0,0.0,0.0,0.0,0.0,0.0,0.0,0.0,0.0,0.0,0.0,0.0,0.0,0.0,0.0,0.0,2.2124,2.3072,2.3301,2.3448,2.3499,2.2709,2.181,0.0,0.0,0.0,0.0,0.0,0.0,0.0,0.0,0.0,0.0,0.0,0.0,0.0,0.0,0.0,0.0,0.0,0.0,0.0,0.0,0.0,0.0,0.0,0.0,0.0,0.0,0.0,0.0,0.0,0.0,0.0,0.0,0.0,0.0,0.0,0.0,0.0,0.0,0.0,0.0,0.0,0.0,0.0,0.0,0.0,0.0,0.0,0.0,2.0385,0.0,0.0,0.0,0.0,0.0,0.0,0.0,0.0,0.0,0.0,0.0,0.0,0.0,0.0,0.0,0.0,0.0,0.0,0.0,0.0,0.0,0.0,0.0,0.0,0.0,0.0,0.0,0.0,0.0,0.0,0.0,0.0,0.0,0.0,0.0,0.0,0.0,0.0,0.0,0.0,0.0,0.0,0.0,0.0,0.0,0.0,0.0,0.0,0.0,0.0,0.0,0.0,0.0,0.0,0.0,0.0,0.0,0.0,0.0,2.2311,2.3072,2.3301,2.3424,2.3487,2.3088,2.2228,0.0,0.0,0.0,0.0,0.0,0.0,0.0,0.0,0.0,0.0,0.0,0.0,0.0,0.0,0.0,0.0,0.0,0.0,0.0,0.0,0.0,0.0,0.0,0.0,0.0,0.0,0.0,0.0,0.0,0.0,0.0,0.0,0.0,0.0,0.0,0.0,0.0,0.0,0.0,0.0,0.0,0.0,0.0,0.0,0.0,0.0,0.0,0.0,0.0,0.0,0.0,0.0,0.0,0.0,0.0,0.0,0.0,0.0,0.0,0.0,0.0,0.0,0.0,0.0,0.0,0.0,0.0,0.0,0.0,0.0,0.0,0.0,0.0,0.0,0.0,0.0,0.0,0.0,0.0,0.0,0.0,0.0,0.0,0.0,0.0,0.0,0.0,0.0,0.0,0.0,0.0,0.0,0.0,0.0,0.0,0.0,0.0,0.0,0.0,0.0,0.0,0.0,0.0,0.0,0.0,0.0,0.0,2.1392,2.2256,2.3072,2.3253,2.3372,2.3499,2.3505,2.2643,2.091,0.0,0.0,0.0,0.0,0.0,0.0,0.0,0.0,0.0,0.0,0.0,0.0,0.0,0.0,0.0,0.0,0.0,0.0,0.0,0.0,0.0,0.0,0.0,0.0,0.0,0.0,0.0,0.0,0.0,0.0,0.0,0.0,0.0,0.0,0.0,0.0,0.0,0.0,2.1135,2.1905,0.0,0.0,0.0,0.0,0.0,0.0,0.0,0.0,2.2308,0.0,0.0,0.0,0.0,0.0,0.0,0.0,0.0,0.0,0.0,0.0,0.0,0.0,0.0,0.0,0.0,0.0,0.0,0.0,0.0,0.0,0.0,0.0,0.0,0.0,0.0,0.0,0.0,0.0,0.0,0.0,0.0,0.0,0.0,0.0,0.0,0.0,0.0,0.0,0.0,0.0,0.0,0.0,0.0,0.0,0.0,0.0,0.0,0.0,0.0,0.0,0.0,0.0,0.0,0.0,0.0,2.1395,2.1766,2.2347,2.3072,2.3336,2.3464,2.3505,2.3505,2.2706,2.104,0.0,0.0,0.0,0.0,0.0,0.0,0.0,0.0,0.0,0.0,0.0,0.0,0.0,0.0,0.0,0.0,0.0,0.0,0.0,0.0,0.0,0.0,0.0,0.0,0.0,0.0,0.0,0.0,0.0,0.0,0.0,0.0,0.0,0.0,0.0,0.0,0.0,0.0,0.0,2.265,2.3199,0.0,0.0,0.0,0.0,0.0,0.0,0.0,0.0,2.3139,0.0,0.0,0.0,0.0,0.0,0.0,0.0,0.0,0.0,0.0,0.0,0.0,0.0,0.0,0.0,0.0,0.0,0.0,0.0,0.0,0.0,0.0,0.0,0.0,0.0,0.0,0.0,0.0,0.0,0.0,0.0,0.0,0.0,0.0,0.0,0.0,0.0,0.0,0.0,0.0,0.0,0.0,0.0,0.0,0.0,0.0,0.0,0.0,0.0,0.0,0.0,0.0,0.0,0.0,0.0,2.0981,2.1956,2.2671,2.3078,2.3295,2.3228,2.291,2.2892,2.2082,0.0,0.0,0.0,0.0,0.0,0.0,0.0,0.0,0.0,0.0,0.0,0.0,0.0,0.0,0.0,0.0,0.0,0.0,0.0,0.0,0.0,0.0,0.0,0.0,0.0,0.0,0.0,0.0,0.0,0.0,0.0,0.0,0.0,0.0,0.0,0.0,0.0,0.0,0.0,0.0,2.3476,2.3782,2.4379,0.0,0.0,0.0,0.0,0.0,0.0,2.3721,2.3978,0.0,0.0,0.0,0.0,0.0,0.0,0.0,0.0,0.0,0.0,0.0,0.0,0.0,0.0,0.0,0.0,0.0,0.0,0.0,0.0,0.0,0.0,0.0,0.0,0.0,0.0,0.0,0.0,0.0,0.0,0.0,0.0,0.0,0.0,0.0,0.0,0.0,0.0,0.0,0.0,0.0,0.0,0.0,0.0,0.0,0.0,0.0,0.0,0.0,0.0,0.0,0.0,0.0,0.0,0.0,2.0452,2.1899,2.2806,2.3052,2.3223,2.2964,2.2289,2.2285,2.1528,0.0,0.0,0.0,0.0,0.0,0.0,0.0,0.0,0.0,0.0,0.0,0.0,0.0,0.0,0.0,0.0,0.0,0.0,0.0,0.0,0.0,0.0,0.0,0.0,0.0,0.0,0.0,0.0,0.0,0.0,0.0,0.0,0.0,0.0,0.0,0.0,0.0,0.0,0.0,0.0,0.0,2.4344,2.466,2.4653,0.0,0.0,0.0,0.0,2.3829,2.4276,0.0,0.0,0.0,0.0,0.0,0.0,0.0,0.0,0.0,0.0,0.0,0.0,0.0,0.0,0.0,0.0,0.0,0.0,0.0,0.0,0.0,0.0,0.0,0.0,0.0,0.0,0.0,0.0,0.0,0.0,0.0,0.0,0.0,0.0,0.0,0.0,0.0,0.0,0.0,0.0,0.0,0.0,0.0,0.0,0.0,0.0,0.0,0.0,0.0,0.0,0.0,0.0,0.0,0.0,0.0,0.0,2.0435,2.1385,2.227,2.2903,2.3168,2.2941,2.2172,2.2242,2.1559,0.0,0.0,0.0,0.0,0.0,0.0,0.0,0.0,0.0,0.0,0.0,0.0,0.0,0.0,0.0,0.0,0.0,0.0,0.0,0.0,0.0,0.0,0.0,0.0,0.0,0.0,0.0,0.0,0.0,0.0,0.0,0.0,0.0,0.0,0.0,0.0,0.0,0.0,0.0,0.0,0.0,2.4638,2.4696,2.4696,2.4639,0.0,0.0,2.467,2.4572,2.4643,0.0,0.0,0.0,0.0,0.0,0.0,0.0,0.0,0.0,0.0,0.0,0.0,0.0,0.0,0.0,0.0,0.0,0.0,0.0,0.0,0.0,0.0,0.0,0.0,0.0,0.0,0.0,0.0,0.0,0.0,0.0,0.0,0.0,0.0,0.0,0.0,0.0,0.0,0.0,0.0,0.0,0.0,0.0,0.0,0.0,0.0,0.0,0.0,0.0,0.0,0.0,0.0,0.0,0.0,0.0,2.0848,2.0452,2.1675,2.25,2.2895,2.3088,2.2841,2.2127,2.1781,2.0912,0.0,0.0,0.0,0.0,0.0,0.0,0.0,0.0,0.0,0.0,0.0,0.0,0.0,0.0,0.0,0.0,0.0,0.0,0.0,0.0,0.0,0.0,0.0,0.0,0.0,0.0,0.0,0.0,0.0,0.0,0.0,0.0,0.0,0.0,0.0,0.0,0.0,0.0,0.0,0.0,0.0,0.0,2.4846,2.4821,0.0,0.0,0.0,2.4864,2.4864,0.0,0.0,0.0,0.0,0.0,0.0,0.0,0.0,0.0,0.0,0.0,0.0,0.0,0.0,0.0,0.0,0.0,0.0,0.0,0.0,0.0,0.0,0.0,0.0,0.0,0.0,0.0,0.0,0.0,0.0,0.0,0.0,0.0,0.0,0.0,0.0,0.0,0.0,0.0,0.0,0.0,0.0,0.0,0.0,0.0,0.0,0.0,0.0,0.0,0.0,0.0,0.0,0.0,0.0,0.0,0.0,0.0,2.0463,2.1923,2.2745,2.2838,2.3014,2.2734,2.2018,2.1396,0.0,0.0,0.0,0.0,0.0,0.0,0.0,0.0,0.0,0.0,0.0,0.0,0.0,0.0,0.0,0.0,0.0,0.0,0.0,0.0,0.0,0.0,0.0,0.0,0.0,0.0,0.0,1.5338,0.0,0.0,0.0,0.0,0.0,0.0,0.0,0.0,0.0,0.0,0.0,0.0,0.0,0.0,2.5073,2.5282,2.5213,2.512,0.0,0.0,2.4988,2.4988,2.4988,2.4988,0.0,0.0,0.0,0.0,0.0,0.0,0.0,0.0,0.0,0.0,0.0,0.0,0.0,0.0,0.0,0.0,0.0,0.0,0.0,0.0,0.0,0.0,0.0,0.0,0.0,0.0,0.0,0.0,0.0,0.0,0.0,0.0,0.0,0.0,0.0,0.0,0.0,0.0,0.0,0.0,0.0,0.0,0.0,0.0,0.0,0.0,0.0,0.0,0.0,0.0,0.0,0.0,0.0,0.0,0.0,2.0498,2.1923,2.2705,2.2725,2.2959,2.2666,2.1754,2.1255,2.0248,0.0,0.0,0.0,0.0,0.0,0.0,0.0,0.0,0.0,0.0,0.0,0.0,0.0,0.0,0.0,0.0,0.0,0.0,0.0,0.0,0.0,0.0,0.0,0.0,0.0,0.0,0.0,0.0,0.0,0.0,0.0,0.0,0.0,0.0,0.0,0.0,0.0,0.0,0.0,0.0,0.0,2.6104,2.6122,2.6118,2.5853,0.0,0.0,2.4988,2.4988,2.5007,2.4988,2.4988,0.0,0.0,0.0,0.0,0.0,0.0,0.0,0.0,0.0,0.0,0.0,0.0,0.0,0.0,0.0,0.0,0.0,0.0,0.0,0.0,0.0,0.0,0.0,0.0,0.0,0.0,0.0,0.0,0.0,0.0,0.0,0.0,0.0,0.0,0.0,0.0,0.0,0.0,0.0,0.0,0.0,0.0,0.0,0.0,0.0,0.0,0.0,0.0,0.0,0.0,0.0,0.0,0.0,2.2181,2.1182,2.2164,2.2705,2.2705,2.2887,2.2806,2.2448,2.1867,2.0865,0.0,0.0,0.0,0.0,0.0,0.0,0.0,0.0,0.0,0.0,0.0,0.0,0.0,0.0,0.0,0.0,0.0,0.0,0.0,0.0,0.0,0.0,0.0,0.0,0.0,0.0,0.0,0.0,1.8142,1.8762,1.9822,0.0,0.0,0.0,0.0,0.0,0.0,0.0,0.0,0.0,0.0,2.6711,2.622,2.6181,0.0,0.0,2.5401,2.5572,2.5079,2.5424,2.5593,2.5139,2.5507,0.0,0.0,0.0,0.0,0.0,0.0,0.0,0.0,0.0,0.0,0.0,0.0,0.0,0.0,0.0,0.0,0.0,0.0,0.0,0.0,0.0,0.0,0.0,0.0,0.0,0.0,0.0,0.0,0.0,0.0,0.0,0.0,0.0,0.0,0.0,0.0,0.0,0.0,0.0,0.0,0.0,0.0,0.0,0.0,0.0,0.0,0.0,0.0,0.0,0.0,0.0,0.0,2.213,2.1619,2.2326,2.2705,2.2705,2.2836,2.2887,2.2814,2.2208,2.1323,0.0,0.0,0.0,0.0,0.0,0.0,0.0,0.0,0.0,0.0,0.0,0.0,0.0,0.0,0.0,0.0,0.0,0.0,0.0,0.0,0.0,0.0,0.0,0.0,0.0,0.0,0.0,0.0,1.9558,2.0294,2.2084,0.0,0.0,0.0,0.0,0.0,0.0,0.0,0.0,0.0,0.0,2.7359,2.6569,2.6484,2.6256,2.5474,2.5629,2.5724,2.5401,2.5868,2.6071,2.5583,0.0,0.0,0.0,0.0,0.0,0.0,0.0,0.0,0.0,0.0,0.0,0.0,0.0,0.0,0.0,0.0,0.0,0.0,0.0,0.0,0.0,0.0,0.0,0.0,0.0,0.0,0.0,0.0,0.0,0.0,1.9657,0.0,0.0,0.0,0.0,0.0,0.0,0.0,0.0,0.0,0.0,0.0,0.0,0.0,0.0,0.0,0.0,0.0,0.0,0.0,0.0,0.0,0.0,2.1643,2.1619,2.2343,2.2705,2.2705,2.2829,2.2836,2.2701,2.2114,2.1482,2.0768,0.0,0.0,0.0,0.0,0.0,0.0,0.0,0.0,0.0,0.0,0.0,0.0,0.0,0.0,0.0,0.0,0.0,0.0,0.0,0.0,0.0,0.0,0.0,0.0,0.0,0.0,2.1087,2.1228,2.2093,0.0,0.0,0.0,0.0,0.0,0.0,0.0,0.0,0.0,0.0,2.8203,2.81,2.7394,2.7279,2.7054,2.6297,2.5575,2.5344,2.6103,2.6338,2.6381,0.0,0.0,0.0,0.0,0.0,0.0,0.0,0.0,0.0,0.0,0.0,0.0,0.0,0.0,0.0,0.0,0.0,0.0,0.0,0.0,0.0,0.0,0.0,0.0,0.0,0.0,0.0,2.4209,2.3618,0.0,0.0,0.0,0.0,0.0,0.0,0.0,0.0,0.0,0.0,0.0,2.5405,2.6345,0.0,0.0,0.0,0.0,0.0,0.0,0.0,0.0,0.0,0.0,0.0,0.0,2.2319,2.2337,2.2561,2.2705,2.2705,2.2745,2.2745,2.2705,2.2593,2.2035,2.0971,0.0,0.0,0.0,0.0,0.0,0.0,0.0,0.0,0.0,0.0,0.0,0.0,0.0,0.0,0.0,0.0,0.0,0.0,0.0,0.0,0.0,0.0,0.0,0.0,0.0,2.3384,0.0,0.0,0.0,0.0,0.0,0.0,0.0,0.0,0.0,0.0,0.0,2.7716,2.8787,2.9037,2.8877,2.8138,2.8568,2.8512,0.0,0.0,0.0,0.0,0.0,0.0,0.0,0.0,0.0,0.0,0.0,0.0,0.0,0.0,3.18,2.9618,2.8287,2.7641,2.8224,0.0,0.0,0.0,0.0,0.0,0.0,0.0,0.0,0.0,0.0,0.0,0.0,0.0,0.0,2.6465,0.0,2.5002,0.0,0.0,0.0,0.0,0.0,0.0,0.0,0.0,2.6879,2.7507,2.7538,2.8077,2.8486,0.0,2.7056,2.5666,0.0,0.0,0.0,0.0,0.0,0.0,0.0,0.0,2.244,2.2688,2.2705,2.2705,2.2705,2.2705,2.2705,2.2705,2.2881,2.2463,2.1408,2.0998,2.043,0.0,0.0,0.0,0.0,0.0,0.0,0.0,0.0,0.0,0.0,0.0,0.0,0.0,0.0,0.0,0.0,0.0,0.0,0.0,0.0,0.0,0.0,0.0,2.4659,0.0,0.0,0.0,0.0,0.0,0.0,0.0,0.0,0.0,2.8226,2.8393,2.8969,3.0084,2.977,2.9379,2.9218,0.0,0.0,0.0,0.0,0.0,0.0,0.0,2.9901,3.0594,3.119,3.1847,3.2563,3.3766,3.459,3.4276,0.0,0.0,3.1389,3.0056,2.9486,3.0359,3.0753,3.1017,3.1338,3.1838,3.2139,0.0,0.0,0.0,0.0,0.0,0.0,0.0,0.0,2.929,2.8728,0.0,2.7706,0.0,0.0,0.0,0.0,0.0,0.0,0.0,0.0,2.976,2.9797,2.9674,2.8429,2.7929,2.8146,2.7644,2.7465,2.7521,2.4578,0.0,0.0,0.0,0.0,0.0,0.0,2.2016,2.2716,2.2774,2.274,2.2699,2.2705,2.2712,2.2731,2.2952,2.2781,2.218,2.2267,2.1957,2.1144,1.9724,0.0,0.0,0.0,0.0,0.0,0.0,0.0,0.0,0.0,0.0,0.0,0.0,0.0,0.0,0.0,0.0,0.0,0.0,0.0,0.0,2.4139,0.0,0.0,0.0,0.0,0.0,0.0,0.0,0.0,0.0,0.0,3.0729,2.9978,3.0071,3.1626,0.0,0.0,0.0,0.0,3.0105,3.0875,3.0445,3.0339,3.112,3.1333,3.1447,3.1619,0.0,0.0,3.4313,3.5026,3.5299,3.4496,3.432,3.426,3.4247,3.2778,3.1965,3.2767,3.2339,3.2155,3.2941,3.3209,3.3229,3.1572,0.0,0.0,0.0,0.0,3.147,3.1907,3.2756,3.1952,3.1403,3.105,3.001,0.0,0.0,0.0,0.0,0.0,0.0,2.9474,2.9401,2.9752,2.9995,3.0076,2.9677,2.9699,3.0068,2.9162,2.8651,2.8416,2.6834,2.5345,2.405,0.0,0.0,0.0,0.0,2.3278,2.3474,2.3467,2.3233,2.2716,2.2705,2.2779,2.2989,2.3064,2.3093,2.3115,2.3137,2.2767,2.1993,2.1541,0.0,0.0,0.0,0.0,0.0,0.0,0.0,0.0,0.0,0.0,0.0,0.0,0.0,0.0,0.0,0.0,0.0,0.0,0.0,2.515,2.5858,2.6688,0.0,0.0,0.0,0.0,0.0,0.0,0.0,0.0,0.0,3.2196,3.1598,3.1491,0.0,0.0,3.1232,3.1576,3.1947,3.2098,3.1828,0.0,0.0,0.0,3.225,3.2396,3.3842,3.467,3.5139,3.5142,3.5357,3.5457,3.5184,3.5155,3.5302,3.5738,3.4125,3.2997,3.3599,3.3644,3.3795,3.4586,3.4853,3.4903,3.3231,3.2289,3.1684,3.1852,3.2518,3.2497,3.2909,3.3572,3.3155,3.2903,3.2698,3.1905,3.0803,2.9582,2.976,0.0,0.0,0.0,3.0637,3.0472,3.0204,3.0119,3.0161,2.9759,2.9764,3.0088,2.9249,2.8706,2.8522,2.7812,2.6741,2.5444,0.0,0.0,2.4252,2.4175,2.4182,2.4224,2.3915,2.3567,2.3147,2.2854,2.281,2.302,2.3026,2.3132,2.3401,2.3424,2.3222,2.278,2.2475,2.188,0.0,0.0,0.0,0.0,0.0,0.0,0.0,0.0,0.0,0.0,0.0,2.1192,2.0248,0.0,0.0,0.0,2.2642,2.4487,2.7211,2.7835,0.0,0.0,0.0,0.0,0.0,0.0,0.0,3.3634,3.3634,3.3616,3.3827,3.3475,3.3271,3.3448,3.2512,3.2058,3.2771,0.0,3.3149,3.3029,3.3457,3.3827,3.3808,3.3486,3.3658,3.4939,3.5368,3.5492,3.5488,3.5503,3.5503,3.5538,3.575,3.6135,3.6596,3.568,3.493,3.5145,3.493,3.4905,3.5406,3.5532,3.5582,3.4519,3.4279,3.286,3.2652,3.3275,3.3275,3.3641,3.4129,3.3404,3.3522,3.4123,3.3417,3.2668,3.1925,3.1121,0.0,0.0,3.2054,3.1967,3.2461,3.0962,3.0228,3.0051,2.9101,2.8749,2.8959,2.8399,2.8134,2.8161,2.7903,2.7273,2.6294,2.6254,2.5817,2.5018,2.487,2.4862,2.4974,2.4263,2.3873,2.3881,2.3164,2.2857,2.2987,2.2924,2.3033,2.3289,2.3301,2.336,2.3482,2.2803,2.2362,2.2255,0.0,0.0,0.0,0.0,0.0,0.0,0.0,0.0,0.0,0.0,0.0,0.0,0.0,0.0,0.0,2.5051,0.0,2.9123,3.0024,0.0,0.0,0.0,3.314,3.4161,3.4863,3.5288,3.5288,0.0,0.0,3.5474,0.0,3.504,3.4371,3.2941,3.2525,3.3999,3.3671,3.3558,3.4182,3.4465,3.4561,3.447,3.4608,3.484,3.5149,3.5382,3.5481,3.5503,3.5503,3.5503,3.5638,3.6212,3.6792,3.6888,3.745,3.7738,3.6888,3.6135,3.561,3.5643,3.5579,3.5534,3.4275,3.4208,3.3841,3.3798,3.3966,3.396,3.4041,3.4185,3.3999,3.403,3.4197,3.3944,3.3685,3.3475,3.3253,3.3351,3.3644,3.3422,3.2715,3.1678,3.1299,3.0467,2.9299,2.902,2.8834,2.8694,2.8539,2.8526,2.8639,2.8525,2.8502,2.8579,2.8442,2.747,2.5742,2.5633,2.5625,2.5648,2.5527,2.5217,2.4722,2.3932,2.3587,2.3739,2.3195,2.3015,2.3289,2.3283,2.3354,2.3494,2.3315,2.2933,2.2314,2.1386,0.0,0.0,0.0,0.0,0.0,0.0,0.0,0.0,0.0,2.4335,2.1794,0.0,2.5958,0.0,2.8587,3.0542,3.1053,3.2336,0.0,0.0,3.477,3.5067,3.6507,3.6298,3.6048,3.6041,3.6206,3.6308,3.6155,3.5609,3.5175,3.5028,3.4179,3.3716,3.4154,3.4091,3.4022,3.4214,3.4275,3.4293,3.4345,3.463,3.4917,3.4977,3.5273,3.5481,3.55,3.5503,3.5677,3.6273,3.6558,3.718,3.8376,3.8354,3.7969,3.768,3.7004,3.6427,3.6421,3.5965,3.5582,3.4185,3.4161,3.4142,3.4136,3.4124,3.4173,3.4185,3.4154,3.4154,3.4142,3.4111,3.4055,3.4036,3.3998,3.3972,3.3927,3.3858,3.3512,3.2818,3.1935,3.1556,3.0931,3.0081,3.0075,2.999,2.9849,2.9836,2.9789,2.9735,2.948,2.9412,2.9489,2.9244,2.8499,2.7326,2.6918,2.6773,2.6839,2.6267,2.5649,2.4989,2.4546,2.4199,2.3911,2.352,2.3237,2.3137,2.3125,2.3217,2.3413,2.3407,2.3256,2.2928,2.2198,2.1802,0.0,0.0,0.0,0.0,0.0,0.0,0.0,0.0,0.0,0.0,0.0,2.8648,2.9317,3.115,3.2685,3.3652,3.4588,3.5749,3.7238,3.6669,3.6658,3.7907,3.7624,3.7367,3.7367,3.7367,3.7243,3.693,3.6514,3.6113,3.5814,3.54,3.4887,3.4247,3.4111,3.4111,3.4111,3.4111,3.4203,3.4418,3.4682,3.4926,3.5132,3.5316,3.546,3.5497,3.5503,3.5769,3.6523,3.7004,3.7561,3.8511,3.8723,3.8473,3.7988,3.7311,3.6635,3.6231,3.5852,3.5558,3.4161,3.4086,3.4086,3.4055,3.3992,3.4148,3.4142,3.4093,3.4086,3.4049,3.3985,3.4004,3.3979,3.3972,3.3914,3.3881,3.3838,3.3099,3.2711,3.2546,3.1867,3.1488,3.1378,3.1372,3.1371,3.134,3.129,3.1167,3.0894,3.0513,3.0159,2.9816,2.9527,2.9345,2.9247,2.8492,2.8063,2.7981,2.6758,2.5825,2.5205,2.5151,2.4749,2.3984,2.3846,2.3535,2.2935,2.3032,2.3223,2.3472,2.362,2.3742,2.386,2.326,2.3233,0.0,2.3446,0.0,0.0,0.0,0.0,0.0,0.0,0.0,0.0,3.0535,3.166,3.276,3.3253,3.4287,3.614,3.6536,3.7312,3.8725,3.8183,3.7962,3.8744,3.8773,3.8699,3.8699,3.8699,3.8414,3.7768,3.7566,3.7239,3.6646,3.6373,3.5786,3.4642,3.4287,3.4281,3.4275,3.422,3.4408,3.462,3.4743,3.4936,3.5327,3.5571,3.5562,3.5671,3.5675,3.5925,3.6716,3.7332,3.78,3.7935,3.8612,3.8742,3.7893,3.7174,3.6505,3.5935,3.5612,3.5495,3.403,3.4036,3.4017,3.4011,3.4004,3.403,3.403,3.4017,3.4023,3.3979,3.3914,3.3914,3.3881,3.3835,3.3834,3.3809,3.3809,3.3648,3.3213,3.2601,3.2402,3.1937,3.1339,3.1263,3.1126,3.0937,3.1113,3.1106,3.0915,3.097,3.1001,3.0976,3.0857,3.0797,3.0743,0.0,0.0,0.0,2.7172,2.6709,2.6656,2.6113,2.5473,2.4784,2.4139,0.0,2.2958,2.373,2.427,2.445,2.5254,0.0,0.0,0.0,0.0,0.0,0.0,0.0,0.0,0.0,0.0,0.0,3.1433,3.0556,3.0259,3.2693,3.4164,3.3837,3.5598,3.6685,3.6428,3.7595,3.8703,3.9528,3.8961,3.8781,3.9541,3.9093,3.8699,3.8699,3.8699,3.8652,3.845,3.7907,3.7463,3.7312,3.6736,3.624,3.5942,3.5395,3.5314,3.5838,3.539,3.4908,3.4538,3.463,3.4836,3.5104,3.5867,3.6301,3.6358,3.6355,3.6665,3.7467,3.7233,3.7149,3.7767,3.8074,3.7882,3.703,3.6723,3.6596,3.6492,3.5896,3.5423,3.4987,0.0,3.4592,3.4333,0.0,3.3901,3.3895,3.3901,3.3934,3.3914,3.3842,3.3842,3.384,3.3807,3.3807,3.3793,3.3753,3.3753,3.3513,3.3081,3.3054,3.2814,3.2437,3.2397,3.2315,3.2183,3.2292,3.2296,3.2167,3.2048,3.193,3.1796,3.1554,3.1378,3.1183,3.048,2.9561,2.8505,2.7802,2.747,2.7528,2.6891,2.6207,2.5515,0.0,0.0,0.0,0.0,0.0,0.0,0.0,0.0,0.0,0.0,0.0,2.5962,2.6337,2.7255,2.8798,2.9755,3.1133,3.3083,3.333,3.2846,3.163,3.3437,3.4797,3.5215,3.6376,3.7373,3.8103,3.8533,3.9065,3.9743,3.9184,3.8872,3.9184,3.8938,3.8699,3.8699,3.8699,3.8699,3.8699,3.8377,3.8127,3.8072,3.7753,3.7459,3.7375,3.6514,3.5899,3.5955,3.5686,3.5218,3.4763,3.4743,3.4926,3.5198,3.5935,3.6481,3.6581,3.66,3.6868,3.7612,3.7194,3.6796,3.7126,3.726,3.6987,3.6197,3.5964,3.596,3.599,3.5653,3.5363,3.6046,3.5395,3.5407,3.4963,3.4247,3.4247,3.4247,3.4217,0.0,0.0,0.0,3.4009,3.4075,3.4215,3.4209,3.4167,3.4109,3.4109,3.4008,3.3824,3.3803,3.373,3.3584,3.357,3.3581,3.3563,3.3499,3.3433,3.3375,3.2978,3.261,3.2205,3.1842,3.1534,3.1186,3.0598,2.9989,2.9365,2.859,2.8185,2.8185,2.7699,2.7053,2.6227,2.6247,2.5872,2.504,2.5363,2.5547,2.5544,2.6083,2.6396,2.641,2.6882,2.7467,2.8157,2.909,2.9944,3.0756,3.2029,3.2834,3.2963,3.4343,3.4606,3.3271,3.407,3.5103,3.6376,3.6663,3.7573,3.9369,3.9076,3.8964,3.9606,3.9093,3.8699,3.8699,3.8699,3.8699,3.8699,3.8699,3.8681,3.8647,3.8655,3.8699,3.8666,3.8582,3.8699,3.8542,3.7577,3.6462,3.5584,3.5519,3.549,3.4965,3.4846,3.5061,3.5509,3.6096,3.6541,3.6722,3.6676,3.6883,3.7431,3.6941,3.6419,3.6347,3.6362,3.6101,3.5423,3.527,3.5278,3.5269,3.5281,3.5327,3.6258,3.6152,3.6159,3.606,3.5954,3.5936,3.5936,3.5833,3.4444,3.4199,3.4839,3.4821,3.5196,3.578,3.578,3.5747,3.5676,3.5676,3.5312,0.0,3.4582,3.4171,3.3524,3.3452,3.3441,3.3422,3.3433,3.323,3.2923,3.287,3.2451,3.1886,3.1723,3.1543,3.123,3.1099,3.0987,3.0862,2.9544,2.8895,2.8958,2.8865,2.822,2.7011,2.6984,2.6344,2.5092,2.6774,2.7435,2.6838,2.8547,2.8972,2.7707,2.8948,2.9525,2.9082,3.0347,3.1538,3.2293,3.2555,3.2934,3.3632,3.4493,3.4926,3.4775,3.6137,3.6824,3.6467,3.7507,3.819,3.7977,3.8384,3.8762,3.8872,3.8773,3.8699,3.8673,3.8692,3.8692,3.8692,3.8699,3.8632,3.8559,3.8635,3.8632,3.8575,3.8609,3.8692,3.8637,3.8524,3.743,3.5758,3.5724,3.566,3.506,3.4596,3.5167,3.6179,3.6464,3.6903,3.7475,3.7035,3.6744,3.6712,3.6113,3.5536,3.5463,3.5402,3.5387,3.5234,3.5234,3.5226,3.5202,3.5207,3.525,3.7356,3.6978,3.6953,3.6684,3.6277,3.6223,3.6172,3.6073,3.5341,3.5217,3.5564,3.5568,3.5732,3.6039,3.6039,3.6005,3.5957,3.5947,3.5742,3.5351,3.5294,3.5105,3.4761,3.4723,3.4689,3.4707,3.4707,3.4594,3.4443,3.4417,3.413,3.3583,3.2984,3.2402,3.1848,3.1795,3.1693,3.1451,3.0221,2.9619,2.9639,2.9278,2.8823,2.8194,2.8288,2.8154,2.7689,2.8637,2.909,2.89,2.9995,3.0305,2.963,3.0393,3.0741,3.0423,3.1446,3.2248,3.2616,3.3428,3.4069,3.4454,3.5231,3.5708,3.5708,3.5965,3.6365,3.6879,3.7669,3.8102,3.8146,3.8487,3.8673,3.859,3.8601,3.8585,3.8546,3.8538,3.8546,3.8538,3.8538,3.853,3.8436,3.8496,3.853,3.8454,3.8504,3.8564,3.8564,3.8564,3.81,3.6853,3.6849,3.6786,3.612,3.602,3.6352,3.7057,3.7536,3.7937,3.8304,3.7708,3.7211,3.7058,3.6122,3.5301,3.5182,3.5186,3.5186,3.5186,3.5186,3.5186,3.5186,3.5186,3.519,3.8268,3.7715,3.7689,3.7341,3.6776,3.6662,3.6605,3.6544,3.6539,3.6551,3.6568,3.6377,3.6357,3.6523,3.6505,3.6485,3.6422,3.6432,3.6302,3.6091,3.6065,3.5993,3.583,3.5794,3.5794,3.5794,3.5794,3.5794,3.5794,3.5794,3.5615,3.514,3.4244,3.3451,3.2801,3.2818,3.2686,3.2291,3.1367,3.0697,3.0345,2.9835,2.9554,2.9509,2.9616,2.9816,2.9994,3.0302,3.0511,3.06,3.107,3.1274,3.1119,3.1453,3.1665,3.1751,3.2607,3.3243,3.3488,3.4543,3.5251,3.5258,3.5849,3.6289,3.6435,3.589,3.6014,3.7235,3.7624,3.7993,3.848,3.8609,3.864,3.8705,3.8734,3.8883,3.8928,3.8773,3.8773,3.8865,3.8792,3.8737,3.8867,3.8921,3.9011,3.9055,3.8938,3.8956,3.8956,3.8938,3.8758,3.8284,3.7975,3.754,3.7297,3.7189,3.7397,3.7821,3.8249,3.8526,3.8588,3.8097,3.7433,3.7119,3.615,3.5302,3.5172,3.5382,3.5478,3.5545,3.5736,3.5859,3.5906,3.5891,3.5575,3.8378,3.8305,3.8303,3.8295,3.8159,3.8133,3.8107,3.8101,3.8101,3.8097,3.795,3.7377,3.7452,3.8043,3.8034,3.7957,3.7909,3.7973,3.7557,3.6941,3.6904,3.6516,3.5912,3.584,3.5812,3.584,3.5876,3.5941,3.5923,3.5868,3.5607,3.5193,3.4783,3.4506,3.4309,3.4409,3.4382,3.4226,3.3554,3.2511,3.1181,3.1048,3.0888,3.0646,3.0655,3.0539,3.0429,3.1316,3.1603,3.1003,3.189,3.2082,3.1579,3.2041,3.2444,3.2583,3.394,3.5114,3.5837,3.5999,3.5992,3.6003,3.6072,3.6428,3.7056,3.703,3.7061,3.7454,3.7961,3.8303,3.8433,3.8477,3.8806,3.9447,3.9503,3.9777,4.0244,3.9914,3.9768,4.0507,3.9853,3.9725,4.0167,4.032,4.0436,4.03,4.0236,4.0263,4.0281,4.0281,4.0089,3.939,3.8555,3.7678,3.7224,3.7098,3.7753,3.8479,3.8171,3.8347,3.8542,3.7757,3.6476,3.6866,3.6009,3.5424,3.5362,3.5639,3.6191,3.6304,3.6704,3.7309,3.7436,3.7317,3.6815,3.839,3.839,3.839,3.8385,3.8354,3.8346,3.8322,3.8272,3.8257,3.8232,3.8223,3.7929,3.7957,3.8232,3.8232,3.8216,3.82,3.82,3.8046,3.772,3.7701,3.7538,3.7258,3.724,3.7171,3.7104,3.7095,3.707,3.7056,3.7039,3.6728,3.6134,3.5943,3.5659,3.5204,3.5203,3.5134,3.4916,3.4649,3.4102,3.3271,3.2327,3.1793,3.1708,3.1733,3.2041,3.2521,3.3122,3.3557,3.3898,3.4342,3.4425,3.415,3.4414,3.4571,3.4636,3.521,3.574,3.6113,3.651,3.6751,3.6751,3.7158,3.758,3.7854,3.7879,3.8045,3.8498,3.8484,3.8573,3.9011,3.912,3.9405,4.0074,4.0257,4.0359,4.0544,4.0344,4.0281,4.0562,4.0335,4.0226,4.05,4.0608,4.0616,4.0607,4.0634,4.0716,4.0661,4.0634,4.0489,4.0222,3.9958,3.9474,3.8587,3.8365,3.8812,3.9276,3.9307,3.9312,3.9283,3.866,3.7671,3.7214,3.6815,3.6339,3.5892,3.6477,3.7067,3.7176,3.7181,3.7609,3.7623,3.7628,3.7251,3.8344,3.8381,3.8563,3.8649,3.8619,3.8828,3.8758,3.8535,3.8526,3.84,3.8218,3.82,3.82,3.82,3.82,3.82,3.82,3.82,3.8174,3.8149,3.8149,3.8114,3.8115,3.8106,3.8072,3.7976,3.794,3.7915,3.7899,3.7908,3.7584,3.7108,3.7027,3.6757,3.6233,3.6204,3.612,3.5906,3.5753,3.5524,3.5137,3.395,3.3216,3.3114,3.3139,3.3625,3.4505,3.4673,3.5093,3.59,3.597,3.5977,3.6,3.5985,3.6094,3.6299,3.6317,3.6427,3.6635,3.7184,3.7504,3.7551,3.8061,3.8344,3.8372,3.8497,3.8855,3.9309,3.9168,3.9292,3.9711,3.9857,4.0168,4.0861,4.0979,4.0998,4.1189,4.1008,4.0935,4.1098,4.1044,4.0935,4.1117,4.1234,4.1298,4.128,4.1234,4.1153,4.1189,4.1288,4.1304,4.105,4.1459,4.123,4.0202,4.0121,4.0319,4.053,4.072,4.0734,4.0668,3.9984,3.9433,3.9047,3.8554,3.816,3.7779,3.8055,3.8222,3.8217,3.8222,3.8246,3.847,3.8299,3.8323,3.8217,3.837,3.9042,3.9341,3.9404,4.0057,3.9967,3.9341,3.936,3.8916,3.8309,3.8255,3.82,3.8192,3.8183,3.82,3.82,3.8192,3.8132,3.8027,3.8019,3.7985,3.7916,3.7908,3.7908,3.7908,3.789,3.7899,3.7899,3.7899,3.7872,3.7818,3.7773,3.7729,3.7515,3.7576,3.7693,3.7399,3.6937,3.6708,3.6591,3.5981,3.5416,3.5113,3.5034,3.5193,3.5658,3.5786,3.5885,3.5947,3.602,3.6015,3.6039,3.6004,3.6368,3.7028,3.7145,3.7463,3.8075,3.8174,3.8198,3.8226,3.8249,3.8253,3.8405,3.8969,3.9431,3.9459,4.0084,4.0401,4.0555,4.0545,4.0818,4.1533,4.1651,4.1977,4.262,4.1986,4.2058,4.2375,4.2022,4.1913,4.2584,4.2783,4.262,4.262,4.271,4.2656,4.2576,4.2895,4.2742,4.234,4.2343,4.2363,4.1645,4.1394,4.1849,4.1975,4.1789,4.2126,4.1982,4.1711,4.1243,4.0794,4.0217,3.9857,3.9784,3.9721,3.9694,3.9624,3.9477,3.9512,3.9245,3.9692,3.9661,4.0184,3.9987,4.0053,4.0103,4.0121,4.0392,4.0338,4.0103,4.0111,3.9677,3.9043,3.8891,3.8568,3.8061,3.8011,3.8038,3.808,3.808,3.8028,3.7942,3.7933,3.7907,3.7899,3.7908,3.7855,3.7775,3.7784,3.7757,3.7712,3.7703,3.7703,3.7703,3.7703,3.7694,3.7721,3.773,3.7793,3.7819,3.7584,3.7484,3.7457,3.7316,3.7127,3.6954,3.6069,3.5899,3.6562,3.6594,3.6846,3.7354,3.7364,3.738,3.7386,3.7388,3.7489,3.7794,3.7838,3.7965,3.8219,3.8249,3.8242,3.8278,3.8706,3.8943,3.9079,3.9659,4.0302,4.0773,4.1053,4.1442,4.1814,4.1587,4.1587,4.2303,4.2484,4.2538,4.2765,4.2638,4.2602,4.2801,4.2602,4.2611,4.2783,4.291,4.291,4.291,4.291,4.291,4.2948,4.3187,4.3259,4.3149,4.3417,4.3692,4.3467,4.248,4.2159,4.231,4.2337,4.2375,4.2312,4.2388,4.2014,4.1698,4.1327,4.1289,4.1137,4.0853,4.0872,4.0682,4.0544,4.0114,3.9908,4.0024,4.0032,4.1367,4.1167,4.1211,4.1179,4.1182,4.1419,4.1356,4.1113,4.0989,4.0536,3.9884,3.9607,3.9094,3.8491,3.8573,3.8312,3.7942,3.795,3.7925,3.7873,3.8097,3.8205,3.8232,3.8429,3.85,3.8446,3.8418,3.8274,3.8023,3.7996,3.7853,3.7631,3.7595,3.7622,3.7667,3.7676,3.773,3.7802,3.7837,3.7828,3.7846,3.7933,3.7967,3.7823,3.6981,3.6759,3.7367,3.7375,3.7611,3.811,3.82,3.82,3.82,3.82,3.82,3.82,3.82,3.82,3.82,3.82,3.8327,3.8599,3.907,3.946,3.9749,4.0447,4.1117,4.1605,4.1986,4.2348,4.2629,4.2393,4.2321,4.2801,4.291,4.291,4.291,4.291,4.2892,4.2892,4.2873,4.2873,4.291,4.291,4.291,4.291,4.291,4.291,4.2939,4.3178,4.3397,4.3447,4.3896,4.4205,4.4172,4.3565,4.3309,4.3413,4.3297,4.3146,4.3013,4.3051,4.2956,4.2615,4.2501,4.2539,4.2388,4.2066,4.1819,4.1611,4.108,4.0588,4.0347,4.0076,4.0027,4.1586,4.1716,4.2367,4.2535,4.2513,4.3086,4.3061,4.2281,4.202,4.1486,4.0768,4.0402,3.986,3.9355,3.9687,3.9246,3.8151,3.8088,3.8008,3.7918,3.8509,3.8821,3.8862,3.9416,3.9683,3.9664,3.9815,3.9468,3.8826,3.878,3.8469,3.7818,3.7836,3.7916,3.7684,3.7854,3.7765,3.7846,3.7936,3.7873,3.7748,3.8026,3.8124,3.807,3.7962,3.8031,3.8238,3.8174,3.811,3.8182,3.82,3.82,3.8291,3.8309,3.8273,3.84,3.8327,3.8291,3.8327,3.84,3.8798,3.9278,3.9478,3.9912,4.0519,4.1225,4.175,4.1913,4.2365,4.2855,4.2827,4.2781,4.2791,4.291,4.2891,4.2891,4.2891,4.29,4.29,4.2881,4.2854,4.2873,4.2882,4.2854,4.2862,4.2862,4.2872,4.2881,4.2938,4.3213,4.3397,4.354,4.4016,4.4491,4.4584,4.463,4.4714,4.4762,4.4573,4.4396,4.4226,4.4207,4.4131,4.3866,4.3809,4.3834,4.3493,4.317,4.2824,4.2501,4.18,4.108,4.0758,4.0449,4.0033,4.3221,4.3228,4.3248,4.3227,4.3205,4.3463,4.3355,4.3129,4.3026,4.2542,4.1823,4.1406,4.0791,4.0158,4.0053,3.9723,3.9238,3.9249,3.8999,3.8605,3.8765,3.914,3.9557,3.9797,3.9886,3.9886,3.9886,3.9788,3.9619,3.9548,3.9387,3.9209,3.9137,3.9173,3.9111,3.92,3.92,3.9182,3.9201,3.922,3.922,3.9332,3.9397,3.9424,3.9462,3.9499,3.9518,3.8615,3.8141,3.8228,3.82,3.8436,3.8889,3.9015,3.926,3.9713,3.9777,3.9777,3.9777,3.9767,3.9822,4.0211,4.0628,4.1044,4.1361,4.1975,4.2398,4.2425,4.2611,4.2707,4.2689,4.2689,4.2746,4.2823,4.2841,4.2794,4.2718,4.2717,4.2707,4.2689,4.2679,4.2679,4.2689,4.2699,4.2709,4.2727,4.2699,4.2718,4.2899,4.3284,4.3681,4.3794,4.4306,4.4597,4.4602,4.4641,4.4764,4.484,4.4858,4.4889,4.4895,4.4895,4.4895,4.4895,4.4895,4.4781,4.4459,4.4118,4.3695,4.3108,4.2312,4.1725,4.1245,4.0772,4.0336,4.4181,4.4158,4.3966,4.3838,4.379,4.379,4.3767,4.3682,4.3563,4.3235,4.2772,4.2413,4.1814,4.1188,4.1069,4.0711,4.0176,4.0364,4.0199,3.9727,3.9646,3.9922,4.0368,4.0681,4.0778,4.0806,4.0796,4.0618,4.035,4.0332,4.019,3.994,3.9886,3.9869,3.9886,3.9886,3.9886,3.9886,3.9869,3.9886,3.9914,3.998,4.0027,4.0019,4.0058,4.0115,4.0071,3.922,3.8698,3.8515,3.8295,3.8547,3.9297,3.9414,3.9732,4.0302,4.0456,4.042,4.0402,4.0275,4.0555,4.0862,4.1314,4.1747,4.2027,4.2538,4.2717,4.2715,4.2649,4.2609,4.2609,4.2609,4.2629,4.2657,4.2706,4.2678,4.2619,4.2609,4.2609,4.2619,4.2609,4.2609,4.2609,4.2609,4.2609,4.2609,4.2609,4.2679,4.2891,4.3213,4.35,4.3788,4.411,4.4341,4.4513,4.462,4.4731,4.477,4.4815,4.4864,4.4895,4.4895,4.4895,4.4895,4.4895,4.4895,4.463,4.4497,4.4175,4.3468,4.2918,4.2464,4.199,4.1118,4.0582,4.4454,4.448,4.4473,4.4325,4.4214,4.4207,4.4108,4.3966,4.3728,4.361,4.3507,4.3238,4.2767,4.2374,4.2604,4.2068,4.0962,4.1332,4.1516,4.1271,4.1184,4.1228,4.1254,4.1734,4.1994,4.2083,4.2101,4.1815,4.1199,4.1163,4.0806,4.0279,4.0279,4.0083,4.0261,4.0083,4.0208,4.0279,4.0172,4.019,4.019,4.0172,4.0182,4.0199,4.0227,4.0302,4.0387,4.0174,3.9783,3.9175,3.8625,3.8776,3.9388,3.9523,3.9941,4.0645,4.0573,4.0598,4.0453,4.0632,4.083,4.1451,4.1595,4.1773,4.2431,4.2555,4.2617,4.2607,4.257,4.257,4.257,4.256,4.2548,4.2506,4.2538,4.256,4.258,4.257,4.255,4.256,4.2589,4.258,4.257,4.2589,4.2629,4.2639,4.2668,4.2824,4.2976,4.3223,4.3258,4.3595,4.4045,4.4244,4.4477,4.4525,4.4626,4.4659,4.4693,4.4757,4.4732,4.4694,4.4611,4.4649,4.47,4.4763,4.4857,4.4699,4.4668,4.4364,4.3853,4.3341,4.2526,4.1554,4.0777,4.4147,4.4128,4.4128,4.4105,4.4074,4.4074,4.4051,4.3997,4.3923,4.3868,4.3828,4.3614,4.3375,4.3193,4.3167,4.2878,4.2541,4.2605,4.275,4.2658,4.264,4.2355,4.2075,4.2183,4.2308,4.2297,4.2297,4.219,4.1994,4.1923,4.1815,4.168,4.1548,4.1601,4.1655,4.1573,4.1673,4.1691,4.1655,4.1609,4.1601,4.1601,4.1673,4.1663,4.1609,4.1629,4.1631,4.1149,4.0548,3.9974,3.976,4.0003,4.068,4.0788,4.1093,4.1731,4.1937,4.1963,4.1916,4.1889,4.2032,4.2222,4.2166,4.2393,4.2555,4.2538,4.2526,4.2506,4.2447,4.2389,4.2379,4.2389,4.2369,4.2366,4.2379,4.2399,4.2399,4.2379,4.2379,4.2379,4.2381,4.2412,4.2452,4.2591,4.2691,4.2739,4.2881,4.3059,4.3196,4.3408,4.3536,4.3817,4.4162,4.4306,4.4426,4.4468,4.4522,4.4517,4.4565,4.46,4.4448,4.4279,4.4114,4.3985,4.4089,4.4152,4.4593,4.4794,4.487,4.4846,4.4321,4.3571,4.2666,4.1725,4.1023,4.3997,4.3997,4.3997,4.3997,4.3997,4.3997,4.3997,4.3997,4.3997,4.3997,4.3966,4.3844,4.3771,4.3755,4.3605,4.3461,4.3383,4.3365,4.3286,4.3187,4.3151,4.2883,4.2563,4.2482,4.2412,4.2297,4.2308,4.2297,4.2279,4.2297,4.2297,4.2226,4.2297,4.2297,4.2208,4.2297,4.2297,4.2279,4.2297,4.2297,4.2297,4.2297,4.2279,4.2279,4.2297,4.2297,4.2208,4.1833,4.1171,4.041,4.0197,4.0539,4.1305,4.1413,4.1771,4.2478,4.2558,4.2502,4.249,4.248,4.248,4.248,4.248,4.247,4.246,4.2427,4.2415,4.2387,4.2336,4.2308,4.2297,4.2297,4.2297,4.2308,4.2297,4.2297,4.2297,4.2308,4.2297,4.2318,4.2391,4.2482,4.2464,4.2729,4.2873,4.293,4.3059,4.3232,4.3399,4.3629,4.3809,4.401,4.412,4.4188,4.4225,4.4274,4.4303,4.4325,4.4397,4.4435,4.4026,4.3756,4.3454,4.329,4.3435,4.3662,4.4121,4.4543,4.4745,4.46,4.4254,4.3843,4.301,4.2354,4.1603,4.3997,4.3997,4.3997,4.3997,4.3997,4.3997,4.3997,4.3997,4.3997,4.3997,4.3997,4.3997,4.3966,4.3997,4.3918,4.3844,4.3647,4.3647,4.3512,4.341,4.333,4.3151,4.2874,4.2779,4.2671,4.2492,4.2399,4.2361,4.2381,4.2361,4.2328,4.2338,4.2338,4.2328,4.2318,4.2297,4.2297,4.2297,4.2297,4.2297,4.2297,4.2297,4.2297,4.2297,4.2297,4.2297,4.2297,4.2155,4.1695,4.0423,4.0316,4.0847,4.1491,4.1518,4.1802,4.2306,4.2465,4.2417,4.2346,4.2328,4.2318,4.2328,4.2318,4.2297,4.2318,4.2318,4.2318,4.2318,4.2297,4.2297,4.2297,4.2297,4.2297,4.2297,4.2297,4.2297,4.2297,4.2297,4.2297,4.2318,4.2534,4.2673,4.2788,4.2976,4.3232,4.3223,4.3339,4.3512,4.3612,4.3728,4.3876,4.3989,4.4028,4.4013,4.4028,4.4036,4.4059,4.4082,4.4199,4.4132,4.3496,4.3131,4.2732,4.2577,4.2774,4.3094,4.3513,4.3908,4.4378,4.4581,4.439,4.4109,4.3693,4.3177,4.2523,4.3997,4.3997,4.3997,4.3997,4.3997,4.3997,4.3997,4.3997,4.3997,4.3997,4.3997,4.3997,4.3997,4.3997,4.3997,4.3947,4.3892,4.3884,4.386,4.3844,4.382,4.3654,4.3399,4.3214,4.305,4.291,4.2702,4.2614,4.2614,4.2595,4.2504,4.2379,4.2552,4.2532,4.2351,4.2389,4.2308,4.2297,4.2325,4.2318,4.2297,4.2297,4.2297,4.2297,4.2297,4.2297,4.2297,4.2297,4.2129,4.1889,4.1784,4.1787,4.1986,4.2039,4.2154,4.2259,4.2356,4.2318,4.2308,4.2328,4.2308,4.2359,4.2359,4.2297,4.2297,4.2297,4.2297,4.2297,4.2297,4.2297,4.2297,4.2297,4.2297,4.2297,4.2297,4.2297,4.2297,4.2297,4.2297,4.2359,4.2524,4.2693,4.2722,4.3214,4.3426,4.3502,4.3656,4.383,4.3852,4.3868,4.3934,4.3997,4.3997,4.3997,4.3997,4.3997,4.3997,4.3997,4.4085,4.4057,4.3419,4.2777,4.2466,4.2271,4.2169,4.2511,4.2905,4.3697,4.4261,4.4397,4.4462,4.4178,4.386,4.3609,4.3484,4.3997,4.3997,4.3997,4.3997,4.3997,4.3997,4.3997,4.3997,4.3997,4.3997,4.3997,4.3997,4.3997,4.3997,4.3997,4.3997,4.3997,4.3997,4.3997,4.3989,4.3989,4.3908,4.3812,4.3622,4.3469,4.3232,4.3022,4.2939,4.2939,4.2929,4.2891,4.2738,4.2863,4.2873,4.2747,4.2699,4.265,4.2532,4.2492,4.2442,4.2328,4.2297,4.2297,4.2297,4.2297,4.2297,4.2297,4.2297,4.2297,4.2297,4.2308,4.2308,4.2297,4.2297,4.2297,4.2297,4.2297,4.2371,4.2434,4.2494,4.2581,4.2689,4.2583,4.2494,4.2452,4.2381,4.2297,4.2297,4.2297,4.2297,4.2297,4.2297,4.2297,4.2297,4.2297,4.2297,4.2297,4.2297,4.2297,4.2359,4.2534,4.2759,4.3023,4.3373,4.3621,4.372,4.3779,4.3934,4.3942,4.3958,4.3966,4.3997,4.3997,4.3997,4.3997,4.3997,4.3997,4.3997,4.402,4.3988,4.3691,4.2984,4.2328,4.2172,4.205,4.1927,4.2356,4.3216,4.389,4.3814,4.3823,4.3945,4.4055,4.4009,4.3943,4.3997,4.3997,4.3997,4.3997,4.3997,4.3997,4.3997,4.3997,4.3997,4.3997,4.3997,4.3997,4.3997,4.3997,4.3997,4.3997,4.3997,4.3997,4.3997,4.3997,4.3997,4.3981,4.395,4.3902,4.3747,4.3339,4.3277,4.3259,4.3259,4.325,4.3196,4.3187,4.325,4.3187,4.3205,4.3187,4.3031,4.2825,4.2779,4.2702,4.2542,4.2502,4.252,4.2512,4.2422,4.248,4.2462,4.2391,4.2348,4.2412,4.2399,4.2399,4.2412,4.2361,4.2351,4.2371,4.2452,4.2603,4.2749,4.2788,4.2883,4.3169,4.2957,4.2806,4.2739,4.2571,4.2432,4.2361,4.2351,4.2297,4.2297,4.2297,4.2297,4.2297,4.2297,4.2297,4.2297,4.2297,4.2297,4.2341,4.2632,4.2939,4.3169,4.3478,4.3712,4.3923,4.3981,4.3997,4.3997,4.3997,4.3997,4.3997,4.3997,4.3997,4.3997,4.3997,4.3997,4.3997,4.3997,4.3968,4.3893,4.3501,4.2873,4.2214,4.2009,4.1995,4.2236,4.3081,4.345,4.3233,4.3497,4.3923,4.4194,4.4411,4.4301,4.3997,4.3997,4.3997,4.3997,4.3997,4.3997,4.3997,4.3997,4.3997,4.3997,4.3997,4.3997,4.3997,4.3997,4.3997,4.3997,4.3997,4.3997,4.3997,4.3997,4.3997,4.3997,4.3997,4.3997,4.3926,4.3828,4.3664,4.3538,4.3538,4.3529,4.3443,4.3294,4.3435,4.3452,4.3304,4.3214,4.3241,4.3124,4.3105,4.3041,4.2985,4.2957,4.2975,4.2938,4.2749,4.2768,4.2843,4.2581,4.2522,4.2957,4.2777,4.2816,4.2882,4.2768,4.2673,4.2691,4.2853,4.2985,4.3078,4.3123,4.3142,4.3187,4.3151,4.3133,4.3041,4.2844,4.2681,4.2583,4.2452,4.2318,4.2297,4.2318,4.2297,4.2297,4.2297,4.2297,4.2297,4.2297,4.2297,4.2338,4.2738,4.3114,4.3268,4.3469,4.3714,4.3892,4.3989,4.3997,4.3997,4.3997,4.3997,4.3997,4.3997,4.3997,4.3997,4.3997,4.3997,4.3997,4.3997,4.3997,4.3949,4.3949,4.3503,4.2872,4.2508,4.2486,4.2831,4.3188,4.3341,4.3379,4.3699,4.4067,4.4143,4.4237,4.4252,4.3997,4.3997,4.3997,4.3997,4.3997,4.3997,4.3997,4.3997,4.3997,4.3997,4.3997,4.3997,4.3997,4.3997,4.3997,4.3997,4.3997,4.3997,4.3997,4.3997,4.3997,4.3997,4.3997,4.3997,4.3997,4.3966,4.386,4.3795,4.3812,4.3822,4.3732,4.3689,4.3763,4.373,4.3639,4.3649,4.3521,4.3452,4.34,4.3348,4.3223,4.3224,4.3224,4.3151,4.3078,4.305,4.3087,4.2985,4.2891,4.3096,4.3059,4.3059,4.3133,4.3178,4.3087,4.3032,4.3133,4.3286,4.3374,4.3417,4.3469,4.358,4.3487,4.3409,4.3339,4.316,4.2967,4.2882,4.27,4.2504,4.2514,4.2409,4.2308,4.2297,4.2297,4.2297,4.2297,4.2297,4.2297,4.2297,4.2482,4.2815,4.3196,4.3409,4.3681,4.3844,4.3974,4.3997,4.3997,4.3997,4.3997,4.3997,4.3997,4.3997,4.3997,4.3997,4.3997,4.3997,4.3997,4.3997,4.3997,4.3986,4.3893,4.354,4.3299,4.2965,4.2861,4.3039,4.3262,4.3522,4.3779,4.398,4.3994,4.4028,4.4074,4.4048,4.3997,4.3997,4.3997,4.3997,4.3997,4.3997,4.3997,4.3997,4.3997,4.3997,4.3997,4.3997,4.3997,4.3997,4.3997,4.3997,4.3997,4.3997,4.3997,4.3997,4.3997,4.3997,4.3997,4.3997,4.3997,4.3989,4.3997,4.3974,4.3974,4.3989,4.395,4.3981,4.3997,4.3966,4.3918,4.3828,4.3763,4.3681,4.3536,4.34,4.3366,4.3357,4.3321,4.3331,4.3313,4.341,4.3205,4.3232,4.3339,4.3339,4.3313,4.3374,4.3563,4.358,4.3418,4.3347,4.3487,4.3614,4.3689,4.3755,4.3894,4.3779,4.3695,4.3622,4.347,4.325,4.3169,4.3003,4.2816,4.2777,4.2571,4.2432,4.2371,4.2341,4.2297,4.2297,4.2297,4.2297,4.2297,4.2297,4.2581,4.3041,4.34,4.3681,4.3886,4.3997,4.3997,4.3997,4.3997,4.3997,4.3997,4.3997,4.3997,4.3997,4.3997,4.3997,4.3997,4.3997,4.3997,4.3997,4.4005,4.3912,4.3819,4.3615,4.3299,4.3095,4.3047,4.341,4.3708,4.3819,4.3912,4.3986,4.3997,4.4028,4.4214,4.4005,4.4013,4.3997,4.4013,4.402,4.4005,4.3997,4.3997,4.3997,4.3997,4.3997,4.3997,4.3997,4.3997,4.3997,4.3997,4.3997,4.3997,4.3997,4.3997,4.3997,4.3997,4.3997,4.3997,4.3997,4.3997,4.3997,4.3997,4.3997,4.3997,4.3997,4.3997,4.3997,4.3997,4.3997,4.3971,4.3958,4.395,4.3918,4.386,4.3844,4.3844,4.3795,4.3689,4.3631,4.3722,4.3512,4.3435,4.3787,4.3656,4.3689,4.3852,4.3916,4.395,4.3918,4.39,4.3908,4.3926,4.3918,4.3918,4.3989,4.3942,4.3939,4.387,4.3697,4.3469,4.3224,4.3169,4.3142,4.3069,4.2835,4.271,4.2554,4.2422,4.2338,4.2297,4.2297,4.2297,4.2297,4.2297,4.2631,4.305,4.3374,4.3672,4.387,4.3997,4.3997,4.3997,4.3997,4.3997,4.3997,4.3997,4.3997,4.3997,4.3997,4.3997,4.3997,4.3997,4.3997,4.3997,4.3997,4.3997,4.3912,4.3745,4.3689,4.3596,4.3615,4.3782,4.3838,4.3931,4.3968,4.4005,4.3997,4.3997,4.4695,4.4438,4.445,4.436,4.4236,4.4247,4.4136,4.4028,4.3997,4.3997,4.3997,4.3997,4.3997,4.3997,4.3997,4.3997,4.3997,4.3997,4.3997,4.3997,4.3997,4.3997,4.3997,4.3997,4.3997,4.3997,4.3997,4.3997,4.3997,4.3997,4.3997,4.3997,4.3997,4.3997,4.3997,4.3997,4.3997,4.3997,4.3997,4.3997,4.3997,4.3997,4.3997,4.3997,4.3886,4.391,4.3902,4.3836,4.3738,4.3981,4.386,4.3868,4.3974,4.3997,4.3997,4.3997,4.3989,4.3989,4.3997,4.3997,4.3997,4.3997,4.3997,4.3989,4.3981,4.3902,4.3787,4.3691,4.3504,4.3435,4.333,4.2976,4.2788,4.2634,4.2514,4.2391,4.2338,4.2308,4.2297,4.2297,4.2348,4.266,4.2948,4.3214,4.3512,4.373,4.3918,4.3997,4.3997,4.3997,4.3997,4.3997,4.3997,4.3997,4.3997,4.3997,4.3997,4.3997,4.3997,4.3997,4.3997,4.3997,4.3997,4.3997,4.3912,4.3931,4.3997,4.3986,4.3912,4.3949,4.3997,4.3997,4.3997,4.3997,4.3997,4.5185,4.4996,4.4849,4.4701,4.4506,4.448,4.4402,4.4225,4.4136,4.4117,4.4079,4.4041,4.3997,4.3997,4.3997,4.3997,4.3997,4.3997,4.3997,4.3997,4.3997,4.3997,4.3997,4.3997,4.3997,4.3997,4.3997,4.3997,4.3997,4.3997,4.3997,4.3997,4.3997,4.3997,4.3997,4.3997,4.3997,4.3997,4.3997,4.3997,4.3997,4.3997,4.3997,4.3997,4.3997,4.3997,4.3997,4.3981,4.3989,4.3989,4.3989,4.3981,4.3997,4.3997,4.3997,4.3997,4.3997,4.3997,4.3997,4.3997,4.3997,4.3997,4.3997,4.3997,4.3997,4.3997,4.3997,4.3934,4.3812,4.3722,4.3622,4.3249,4.3105,4.2884,4.2663,4.2514,4.2391,4.2381,4.2402,4.2434,4.2484,4.2554,4.2835,4.3068,4.3312,4.357,4.3779,4.3966,4.3997,4.3997,4.3997,4.3997,4.3997,4.3997,4.3997,4.3997,4.3997,4.3997,4.3997,4.3997,4.3997,4.3997,4.3997,4.3997,4.3997,4.3997,4.3997,4.3997,4.3997,4.3997,4.3997,4.3997,4.3997,4.3997,4.3997,4.5568,4.5485,4.5019,4.48,4.477,4.477,4.4751,4.4669,4.4452,4.4367,4.4296,4.4136,4.4044,4.3997,4.3997,4.3997,4.3997,4.3997,4.3997,4.3997,4.3997,4.3997,4.3997,4.3997,4.3997,4.3997,4.3997,4.3997,4.3997,4.3997,4.3997,4.3997,4.3997,4.3997,4.3997,4.3997,4.3997,4.3997,4.3997,4.3997,4.3997,4.3997,4.3997,4.3997,4.3997,4.3997,4.3997,4.3997,4.3997,4.3997,4.3997,4.3997,4.3997,4.3997,4.3997,4.3997,4.3997,4.3997,4.3997,4.3997,4.3997,4.3997,4.3997,4.3997,4.3997,4.3997,4.3997,4.3997,4.3908,4.3942,4.387,4.3722,4.3425,4.3249,4.2986,4.2787,4.2632,4.2512,4.2524,4.2575,4.2663,4.2768,4.291,4.3169,4.333,4.3579,4.3812,4.3997,4.3997,4.3997,4.3997,4.3997,4.3997,4.3997,4.3997,4.3997,4.3997,4.3997,4.3997,4.3997,4.3997,4.3997,4.3997,4.3997,4.3997,4.3997,4.3997,4.3997,4.3997,4.3997,4.3997,4.3997,4.3997,4.3997,4.3997,4.5594,4.5577,4.5386,4.5201,4.5047,4.5047,4.4943,4.4794,4.4688,4.4539,4.4409,4.4282,4.4158,4.4041,4.4005,4.3997,4.3997,4.3997,4.3997,4.3997,4.3997,4.3997,4.3997,4.3997,4.3997,4.3997,4.3997,4.3997,4.3997,4.3997,4.3997,4.3997,4.3997,4.3997,4.3997,4.3997,4.3997,4.3997,4.3997,4.3997,4.3997,4.3997,4.3997,4.3997,4.3997,4.3997,4.3997,4.3997,4.3997,4.3997,4.3997,4.3997,4.3997,4.3997,4.3997,4.3997,4.3989,4.3989,4.3989,4.3997,4.3997,4.3997,4.3997,4.3997,4.3997,4.3997,4.3997,4.3997,4.4053,4.4116,4.3984,4.3781,4.3555,4.3495,4.3375,4.316,4.3002,4.2905,4.2806,4.2911,4.2957,4.3022,4.3178,4.333,4.3469,4.3595,4.382,4.3997,4.3997,4.3997,4.3997,4.3997,4.3997,4.3997,4.3997,4.3997,4.3997,4.3997,4.3997,4.3997,4.3997,4.3997,4.3997,4.3997,4.3997,4.3997,4.3997,4.3997,4.3997,4.3997,4.3997,4.3997,4.3997,4.3997,4.4098,4.5594,4.5594,4.5594,4.5495,4.5327,4.5322,4.5211,4.5047,4.4943,4.477,4.4513,4.4438,4.4303,4.4143,4.4028,4.4005,4.3997,4.3997,4.3997,4.3997,4.3997,4.3997,4.3997,4.3997,4.3997,4.3997,4.3997,4.3997,4.3997,4.3997,4.3997,4.3997,4.3997,4.3997,4.3997,4.3997,4.3997,4.3997,4.3997,4.3997,4.3997,4.3997,4.3974,4.3966,4.3958,4.3976,4.3976,4.3976,4.3981,4.3989,4.3997,4.3997,4.3997,4.3997,4.3971,4.3974,4.3966,4.3958,4.3961,4.3981,4.3997,4.3997,4.3997,4.3997,4.3997,4.3997,4.3997,4.4003,4.4167,4.435,4.4353,4.4523,4.4724,4.4875,4.4146,4.3852,4.3633,4.3488,4.3333,4.3277,4.3259,4.3233,4.3513,4.3639,4.3672,4.3763,4.3878,4.3997,4.3997,4.3997,4.3997,4.3997,4.3997,4.3997,4.3997,4.3997,4.3997,4.3997,4.3997,4.3997,4.3997,4.3997,4.3997,4.3997,4.3997,4.3997,4.3997,4.3997,4.3997,4.3997,4.4034,4.409,4.3997,4.4042,4.4302,4.5594,4.5594,4.5594,4.5586,4.5568,4.5581,4.5564,4.5481,4.5273,4.5041,4.4776,4.4572,4.4464,4.4346,4.4181,4.4079,4.4041,4.4028,4.3997,4.3997,4.3997,4.3997,4.3997,4.3997,4.3997,4.3997,4.3997,4.3997,4.3997,4.3997,4.3997,4.3997,4.3997,4.3997,4.3997,4.3997,4.3997,4.3997,4.3997,4.3989,4.4,4.4,4.3968,4.3937,4.3918,4.3945,4.3953,4.3953,4.3976,4.3997,4.3997,4.3997,4.3989,4.3981,4.395,4.3905,4.3897,4.3875,4.3874,4.3966,4.4125,4.4069,4.4072,4.4125,4.4019,4.3981,4.395,4.3942,4.4546,4.4981,4.5344,4.5706,4.5894,4.578,4.5031,4.4704,4.4496,4.4147,4.4024,4.3866,4.3554,4.3383,4.374,4.3966,4.3942,4.3966,4.3989,4.3997,4.3997,4.3997,4.3997,4.3997,4.3997,4.3997,4.3997,4.3997,4.3997,4.3997,4.3997,4.3997,4.3997,4.3997,4.3997,4.3997,4.3997,4.3997,4.3997,4.3997,4.4135,4.4265,4.4209,4.4201,4.409,4.4302,4.4785,4.5594,4.5594,4.5594,4.5594,4.5594,4.5594,4.5594,4.5581,4.5475,4.5317,4.5091,4.4948,4.4793,4.4631,4.4416,4.4265,4.4228,4.4025,4.3997,4.3997,4.3997,4.3997,4.3997,4.3997,4.3997,4.3997,4.3997,4.3997,4.3997,4.3997,4.3997,4.3997,4.3997,4.3997,4.3997,4.3997,4.3997,4.3989,4.3958,4.3918,4.3937,4.3945,4.3929,4.3923,4.3937,4.3942,4.3942,4.3961,4.3984,4.3989,4.3989,4.3974,4.3934,4.3937,4.3915,4.388,4.3882,4.4114,4.4561,4.4952,4.4868,4.4488,4.4383,4.4439,4.4023,4.3886,4.3861,4.4065,4.4782,4.5107,4.5183,4.5813,4.61,4.6154,4.5764,4.5769,4.5584,4.509,4.4772,4.4603,4.4344,4.388,4.3926,4.4061,4.4061,4.4098,4.4116,4.4034,4.3997,4.3997,4.3997,4.3997,4.3997,4.3997,4.3997,4.3997,4.3997,4.3997,4.3997,4.3997,4.3997,4.3997,4.3997,4.3997,4.3997,4.3997,4.4042,4.4135,4.4432,4.4562,4.4785,4.4878,4.4896,4.5287,4.5881,4.5594,4.5594,4.5594,4.5594,4.5594,4.5594,4.5594,4.5594,4.559,4.5495,4.5361,4.5262,4.5102,4.4884,4.4676,4.4445,4.4383,4.4243,4.4025,4.4036,4.3997,4.3997,4.3997,4.4005,4.3997,4.3997,4.3997,4.3997,4.3997,4.3997,4.3997,4.3997,4.3997,4.3997,4.3997,4.3997,4.3997,4.3989,4.3966,4.3942,4.3953,4.3945,4.391,4.3921,4.3918,4.395,4.3976,4.3984,4.3966,4.3976,4.3942,4.3937,4.3881,4.3859,4.3948,4.4075,4.4495,4.48,4.5344,4.6027,4.5714,4.4865,4.5148,4.5117,4.4645,4.4541,4.4581,4.4776,4.5108,4.5469,4.5811,4.6448,4.6825,4.6916,4.6721,4.6736,4.6491,4.5998,4.5261,4.5116,4.4684,4.4313,4.4079,4.4098,4.4135,4.4172,4.4209,4.4153,4.4079,4.4023,4.4023,4.3997,4.3997,4.3997,4.3997,4.3997,4.3997,4.3997,4.3997,4.3997,4.3997,4.3997,4.3997,4.4016,4.4034,4.4053,4.4098,4.4265,4.4785,4.5369,4.5844,4.5862,4.5751,4.6141,4.6717,4.5594,4.5594,4.5594,4.5594,4.5594,4.5594,4.5594,4.5594,4.5594,4.559,4.5573,4.5322,4.5232,4.5175,4.4925,4.4688,4.4501,4.4464,4.4289,4.4117,4.4113,4.4079,4.4059,4.4036,4.4005,4.3997,4.3997,4.3997,4.3997,4.3997,4.3997,4.3997,4.3997,4.3997,4.3997,4.3997,4.3997,4.3997,4.3966,4.395,4.3942,4.3958,4.3926,4.3921,4.3905,4.3913,4.3913,4.3905,4.3897,4.3889,4.3889,4.3851,4.381,4.3796,4.4217,4.4748,4.5386,4.5809,4.6085,4.6737,4.681,4.6149,4.622,4.6246,4.5839,4.5268,4.5242,4.5538,4.5925,4.6514,4.704,4.7619,4.8172,4.796,4.7655,4.7506,4.7308,4.6704,4.5857,4.5304,4.4732,4.4395,4.4358,4.4339,4.4618,4.4971,4.5008,4.4636,4.4488,4.4023,4.4023,4.3997,4.3997,4.3997,4.3997,4.4023,4.3997,4.3997,4.3997,4.3997,4.3997,4.3997,4.3997,4.4016,4.4071,4.4172,4.4432,4.4859,4.5387,4.5982,4.6669,4.6717,4.6587,4.6828,4.7274,4.5594,4.5594,4.5594,4.5594,4.5594,4.5594,4.5594,4.5594,4.5594,4.5594,4.5586,4.5517,4.5448,4.5452,4.5206,4.5052,4.4908,4.4788,4.4669,4.4506,4.4311,4.4289,4.4214,4.4091,4.4044,4.3997,4.3997,4.3997,4.3997,4.3997,4.3997,4.3997,4.3997,4.3997,4.3997,4.3997,4.3997,4.3989,4.3958,4.3942,4.3934,4.3953,4.3921,4.3905,4.3889,4.3889,4.3881,4.3851,4.3853,4.3837,4.3818,4.3777,4.3667,4.3688,4.3967,4.479,4.581,4.6773,4.6892,4.7507,4.7764,4.7517,4.7536,4.6875,4.636,4.5919,4.5854,4.6268,4.6544,4.6958,4.738,4.7942,4.8356,4.8255,4.8053,4.8016,4.7775,4.7274,4.6457,4.6013,4.5405,4.4981,4.4907,4.4952,4.5268,4.5769,4.5862,4.5435,4.4971,4.4562,4.4042,4.4042,4.4191,4.4246,4.4079,4.4061,4.4023,4.3997,4.3997,4.3997,4.3997,4.3997,4.3997,4.4172,4.4432,4.4692,4.4971,4.5499,4.6186,4.6799,4.7404,4.7423,4.7478,4.7683,4.7868,4.5594,4.5594,4.5594,4.5594,4.5594,4.5594,4.5594,4.5594,4.5594,4.5594,4.5594,4.559,4.5594,4.5568,4.5419,4.5297,4.5164,4.503,4.4884,4.4688,4.4553,4.4418,4.4303,4.4173,4.4036,4.4005,4.4013,4.3997,4.4013,4.4005,4.3997,4.3997,4.3997,4.3997,4.3989,4.3992,4.3974,4.3974,4.3958,4.3953,4.3937,4.3937,4.3929,4.3915,4.3889,4.391,4.3896,4.3868,4.3843,4.3746,4.3719,4.3686,4.3804,4.4081,4.4899,4.581,4.681,4.7471,4.7654,4.7929,4.8223,4.8315,4.8296,4.781,4.7214,4.6728,4.682,4.7012,4.7076,4.7232,4.7617,4.7984,4.8159,4.8306,4.8354,4.8411,4.8099,4.7721,4.7303,4.6899,4.6411,4.5914,4.5735,4.5761,4.5974,4.6513,4.668,4.6401,4.5862,4.5332,4.4562,4.4071,4.4339,4.4544,4.4358,4.4209,4.4228,4.4172,4.3997,4.3997,4.3997,4.4116,4.4228,4.4544,4.4942,4.5276,4.5677,4.6401,4.7088,4.7608,4.798,4.811,4.8203,4.8351,4.8556,4.5594,4.5594,4.5594,4.5594,4.5594,4.5594,4.5594,4.5594,4.5594,4.5594,4.5594,4.5594,4.5594,4.5586,4.5531,4.5434,4.5337,4.5256,4.5153,4.4868,4.4701,4.4599,4.4511,4.4247,4.4247,4.414,4.4102,4.4196,4.4064,4.4017,4.3997,4.3997,4.3997,4.3997,4.3989,4.3945,4.3945,4.395,4.3961,4.3945,4.3976,4.3966,4.3968,4.3926,4.3949,4.3991,4.397,4.3929,4.3904,4.3855,4.3849,4.3924,4.4367,4.513,4.6195,4.6865,4.7617,4.7966,4.8095,4.8241,4.826,4.8315,4.8296,4.8168,4.7746,4.7434,4.7489,4.7599,4.7654,4.7691,4.7984,4.8113,4.8241,4.8315,4.8343,4.8382,4.8254,4.7914,4.7573,4.7228,4.6889,4.6477,4.6537,4.6591,4.6903,4.7367,4.7534,4.733,4.681,4.6205,4.5528,4.4666,4.4915,4.5157,4.4719,4.4581,4.4544,4.4432,4.4209,4.3997,4.3997,4.4209,4.4469,4.5082,4.5778,4.6067,4.6513,4.7237,4.7757,4.7999,4.837,4.8723,4.889,4.8872,4.8872,4.5594,4.5594,4.5594,4.5594,4.5594,4.5594,4.5594,4.5594,4.5594,4.5594,4.5594,4.5594,4.5594,4.5594,4.5594,4.5522,4.5504,4.5457,4.5467,4.5297,4.5074,4.489,4.4914,4.4637,4.4566,4.4624,4.4598,4.4423,4.4265,4.4113,4.3997,4.3997,4.3997,4.3997,4.3997,4.3937,4.3923,4.3937,4.3857,4.392,4.4027,4.3912,4.3837,4.4015,4.4167,4.4549,4.471,4.5072,4.5239,4.5369,4.536,4.5369,4.5406,4.6315,4.6828,4.7223,4.7893,4.8205,4.8315,4.8315,4.8315,4.8315,4.8315,4.8315,4.8223,4.8076,4.8049,4.8141,4.8196,4.8186,4.8205,4.8278,4.8315,4.8315,4.8315,4.8334,4.8363,4.8089,4.7795,4.7545,4.7282,4.7259,4.7321,4.7539,4.7889,4.8184,4.8444,4.8333,4.7776,4.7218,4.6884,4.6215,4.5992,4.5955,4.5398,4.5212,4.5287,4.4841,4.4488,4.4283,4.4127,4.4636,4.5249,4.603,4.6661,4.694,4.7348,4.8054,4.8463,4.85,4.8556,4.8834,4.889,4.889,4.889,4.5594,4.5594,4.5594,4.5594,4.5594,4.5594,4.5594,4.5594,4.5594,4.5594,4.5594,4.5594,4.5594,4.5594,4.5594,4.5594,4.5594,4.559,4.5564,4.5504,4.5381,4.5206,4.5085,4.4948,4.48,4.4801,4.465,4.4505,4.4402,4.4158,4.3997,4.3997,4.3997,4.4016,4.3981,4.3931,4.3875,4.3889,4.3798,4.392,4.4182,4.4267,4.4261,4.4475,4.4857,4.5228,4.5377,4.5727,4.5791,4.5892,4.5801,4.614,4.6278,4.6782,4.7259,4.7636,4.8039,4.8315,4.8315,4.8315,4.8315,4.8315,4.8315,4.8315,4.8315,4.8186,4.8186,4.826,4.826,4.826,4.826,4.8296,4.8315,4.8315,4.8315,4.8324,4.8334,4.8216,4.8116,4.808,4.795,4.803,4.811,4.8216,4.8483,4.851,4.8834,4.8853,4.8407,4.8073,4.7794,4.7553,4.7218,4.6698,4.6067,4.6048,4.6271,4.5677,4.4934,4.5194,4.5417,4.5639,4.6093,4.6828,4.7404,4.7701,4.8184,4.8621,4.877,4.8742,4.8779,4.889,4.889,4.889,4.889,4.5594,4.5594,4.5594,4.5594,4.5594,4.5594,4.5594,4.5594,4.5594,4.5594,4.5594,4.5594,4.5594,4.5594,4.5594,4.5594,4.5594,4.5594,4.5594,4.5535,4.539,4.5337,4.5232,4.5069,4.5036,4.4908,4.477,4.4624,4.4493,4.425,4.4094,4.4036,4.4008,4.4045,4.4035,4.392,4.3841,4.4017,4.4081,4.419,4.4519,4.4919,4.4875,4.5162,4.5688,4.6112,4.6094,4.6177,4.6195,4.6305,4.6489,4.6801,4.7049,4.7388,4.7654,4.8039,4.8186,4.8315,4.8315,4.8315,4.8315,4.8315,4.8315,4.8315,4.8315,4.8315,4.8315,4.8315,4.8315,4.8315,4.8315,4.8315,4.8315,4.8315,4.8315,4.8315,4.8324,4.8306,4.8363,4.842,4.8504,4.8595,4.8676,4.8783,4.8854,4.8881,4.889,4.889,4.8816,4.863,4.8389,4.824,4.8054,4.746,4.681,4.6791,4.7014,4.642,4.5825,4.629,4.6624,4.6669,4.694,4.759,4.8091,4.8277,4.8463,4.8779,4.8881,4.889,4.889,4.889,4.889,4.889,4.889,4.5594,4.5594,4.5594,4.5594,4.5594,4.5594,4.5594,4.5594,4.5594,4.5594,4.5594,4.5594,4.5594,4.5594,4.5594,4.5594,4.5594,4.5594,4.5594,4.5568,4.5504,4.5504,4.5476,4.5342,4.5429,4.5283,4.5091,4.4925,4.4688,4.445,4.4199,4.4044,4.3937,4.4154,4.4648,4.4375,4.3925,4.4212,4.4473,4.458,4.4718,4.501,4.5203,4.5709,4.6471,4.6755,4.7012,4.7535,4.7746,4.7838,4.7709,4.7783,4.7838,4.7911,4.8095,4.8168,4.8315,4.8315,4.8315,4.8315,4.8315,4.8315,4.8315,4.8315,4.8315,4.8315,4.8315,4.8315,4.8315,4.8315,4.8315,4.8315,4.8315,4.8315,4.8315,4.8324,4.8334,4.8343,4.8344,4.8439,4.8514,4.8596,4.8651,4.8749,4.8881,4.889,4.889,4.889,4.889,4.889,4.889,4.8779,4.8667,4.8259,4.7646,4.7497,4.7497,4.6958,4.6717,4.7088,4.7348,4.746,4.7831,4.824,4.8491,4.8686,4.8872,4.889,4.889,4.889,4.889,4.889,4.889,4.889,4.889]}]]